<?xml version="1.0" encoding="UTF-8" standalone="no" ?>
<gpx xmlns="http://www.topografix.com/GPX/1/1" xmlns:xsi="http://www.w3.org/2001/XMLSchema-instance" xsi:schemaLocation="http://www.topografix.com/GPX/1/1 http://www.topografix.com/GPX/1/1/gpx.xsd" version="1.1" creator="VisuGPX - https://www.visugpx.com">
  <metadata>
    <name>lac achard</name>
  </metadata>
  <trk>
    <name><![CDATA[lac achard_1]]></name>
    <trkseg>
      <trkpt lat="45.10786" lon="5.88495">
        <ele>1854.944</ele>
        <time>2021-01-10T14:31:48Z</time>
      </trkpt>
      <trkpt lat="45.10785" lon="5.88494">
        <ele>1856.374</ele>
        <time>2021-01-10T14:31:51Z</time>
      </trkpt>
      <trkpt lat="45.10789" lon="5.88477">
        <ele>1852.683</ele>
        <time>2021-01-10T14:31:54Z</time>
      </trkpt>
      <trkpt lat="45.1079" lon="5.88458">
        <ele>1874.143</ele>
        <time>2021-01-10T14:31:57Z</time>
      </trkpt>
      <trkpt lat="45.10783" lon="5.88459">
        <ele>1854.13</ele>
        <time>2021-01-10T14:31:59Z</time>
      </trkpt>
      <trkpt lat="45.10782" lon="5.88458">
        <ele>1852.789</ele>
        <time>2021-01-10T14:32:01Z</time>
      </trkpt>
      <trkpt lat="45.10778" lon="5.88451">
        <ele>1854.246</ele>
        <time>2021-01-10T14:32:04Z</time>
      </trkpt>
      <trkpt lat="45.10777" lon="5.88448">
        <ele>1860.486</ele>
        <time>2021-01-10T14:32:06Z</time>
      </trkpt>
      <trkpt lat="45.10773" lon="5.88452">
        <ele>1850.862</ele>
        <time>2021-01-10T14:32:09Z</time>
      </trkpt>
      <trkpt lat="45.1077" lon="5.88449">
        <ele>1846.274</ele>
        <time>2021-01-10T14:32:12Z</time>
      </trkpt>
      <trkpt lat="45.10768" lon="5.88444">
        <ele>1847.275</ele>
        <time>2021-01-10T14:32:15Z</time>
      </trkpt>
      <trkpt lat="45.10768" lon="5.88439">
        <ele>1847.916</ele>
        <time>2021-01-10T14:32:17Z</time>
      </trkpt>
      <trkpt lat="45.10769" lon="5.8843">
        <ele>1848.829</ele>
        <time>2021-01-10T14:32:20Z</time>
      </trkpt>
      <trkpt lat="45.10771" lon="5.88424">
        <ele>1851.125</ele>
        <time>2021-01-10T14:32:23Z</time>
      </trkpt>
      <trkpt lat="45.10771" lon="5.88419">
        <ele>1852.138</ele>
        <time>2021-01-10T14:32:25Z</time>
      </trkpt>
      <trkpt lat="45.10772" lon="5.88416">
        <ele>1855.108</ele>
        <time>2021-01-10T14:32:27Z</time>
      </trkpt>
      <trkpt lat="45.10774" lon="5.88411">
        <ele>1855.903</ele>
        <time>2021-01-10T14:32:30Z</time>
      </trkpt>
      <trkpt lat="45.10775" lon="5.88408">
        <ele>1855.577</ele>
        <time>2021-01-10T14:32:32Z</time>
      </trkpt>
      <trkpt lat="45.10775" lon="5.88403">
        <ele>1858.028</ele>
        <time>2021-01-10T14:32:35Z</time>
      </trkpt>
      <trkpt lat="45.10776" lon="5.88399">
        <ele>1858.074</ele>
        <time>2021-01-10T14:32:37Z</time>
      </trkpt>
      <trkpt lat="45.10775" lon="5.88394">
        <ele>1857.237</ele>
        <time>2021-01-10T14:32:40Z</time>
      </trkpt>
      <trkpt lat="45.10775" lon="5.88389">
        <ele>1856.811</ele>
        <time>2021-01-10T14:32:43Z</time>
      </trkpt>
      <trkpt lat="45.10774" lon="5.88385">
        <ele>1857.978</ele>
        <time>2021-01-10T14:32:46Z</time>
      </trkpt>
      <trkpt lat="45.10773" lon="5.88383">
        <ele>1858.285</ele>
        <time>2021-01-10T14:32:48Z</time>
      </trkpt>
      <trkpt lat="45.1077" lon="5.88378">
        <ele>1858.353</ele>
        <time>2021-01-10T14:32:51Z</time>
      </trkpt>
      <trkpt lat="45.10769" lon="5.88374">
        <ele>1857.016</ele>
        <time>2021-01-10T14:32:53Z</time>
      </trkpt>
      <trkpt lat="45.10767" lon="5.88372">
        <ele>1855.615</ele>
        <time>2021-01-10T14:32:56Z</time>
      </trkpt>
      <trkpt lat="45.10766" lon="5.88371">
        <ele>1855.488</ele>
        <time>2021-01-10T14:32:58Z</time>
      </trkpt>
      <trkpt lat="45.10765" lon="5.88372">
        <ele>1855.903</ele>
        <time>2021-01-10T14:33:01Z</time>
      </trkpt>
      <trkpt lat="45.10765" lon="5.88374">
        <ele>1857.68</ele>
        <time>2021-01-10T14:33:04Z</time>
      </trkpt>
      <trkpt lat="45.10764" lon="5.88374">
        <ele>1858.373</ele>
        <time>2021-01-10T14:33:06Z</time>
      </trkpt>
      <trkpt lat="45.10761" lon="5.88373">
        <ele>1858.899</ele>
        <time>2021-01-10T14:33:09Z</time>
      </trkpt>
      <trkpt lat="45.10758" lon="5.88373">
        <ele>1860.665</ele>
        <time>2021-01-10T14:33:12Z</time>
      </trkpt>
      <trkpt lat="45.10756" lon="5.88374">
        <ele>1859.757</ele>
        <time>2021-01-10T14:33:14Z</time>
      </trkpt>
      <trkpt lat="45.10755" lon="5.88373">
        <ele>1858.964</ele>
        <time>2021-01-10T14:33:17Z</time>
      </trkpt>
      <trkpt lat="45.10752" lon="5.88374">
        <ele>1858.236</ele>
        <time>2021-01-10T14:33:20Z</time>
      </trkpt>
      <trkpt lat="45.10748" lon="5.88374">
        <ele>1856.249</ele>
        <time>2021-01-10T14:33:23Z</time>
      </trkpt>
      <trkpt lat="45.10746" lon="5.88372">
        <ele>1857.248</ele>
        <time>2021-01-10T14:33:25Z</time>
      </trkpt>
      <trkpt lat="45.10744" lon="5.88371">
        <ele>1856.319</ele>
        <time>2021-01-10T14:33:27Z</time>
      </trkpt>
      <trkpt lat="45.10741" lon="5.88371">
        <ele>1855.522</ele>
        <time>2021-01-10T14:33:30Z</time>
      </trkpt>
      <trkpt lat="45.10741" lon="5.88369">
        <ele>1855.109</ele>
        <time>2021-01-10T14:33:33Z</time>
      </trkpt>
      <trkpt lat="45.10741" lon="5.88369">
        <ele>1855.235</ele>
        <time>2021-01-10T14:33:36Z</time>
      </trkpt>
      <trkpt lat="45.10741" lon="5.88369">
        <ele>1855.438</ele>
        <time>2021-01-10T14:33:38Z</time>
      </trkpt>
      <trkpt lat="45.1074" lon="5.88369">
        <ele>1855.213</ele>
        <time>2021-01-10T14:33:41Z</time>
      </trkpt>
      <trkpt lat="45.1074" lon="5.88369">
        <ele>1855.409</ele>
        <time>2021-01-10T14:33:44Z</time>
      </trkpt>
      <trkpt lat="45.10736" lon="5.88365">
        <ele>1854.976</ele>
        <time>2021-01-10T14:33:47Z</time>
      </trkpt>
      <trkpt lat="45.10732" lon="5.88362">
        <ele>1854.03</ele>
        <time>2021-01-10T14:33:50Z</time>
      </trkpt>
      <trkpt lat="45.10729" lon="5.88365">
        <ele>1852.714</ele>
        <time>2021-01-10T14:33:53Z</time>
      </trkpt>
      <trkpt lat="45.10725" lon="5.88366">
        <ele>1849.053</ele>
        <time>2021-01-10T14:33:56Z</time>
      </trkpt>
      <trkpt lat="45.10723" lon="5.88365">
        <ele>1847.057</ele>
        <time>2021-01-10T14:33:58Z</time>
      </trkpt>
      <trkpt lat="45.10723" lon="5.88361">
        <ele>1845.389</ele>
        <time>2021-01-10T14:34:01Z</time>
      </trkpt>
      <trkpt lat="45.10721" lon="5.88356">
        <ele>1844.616</ele>
        <time>2021-01-10T14:34:03Z</time>
      </trkpt>
      <trkpt lat="45.10718" lon="5.88354">
        <ele>1843.323</ele>
        <time>2021-01-10T14:34:05Z</time>
      </trkpt>
      <trkpt lat="45.10715" lon="5.88352">
        <ele>1841.255</ele>
        <time>2021-01-10T14:34:07Z</time>
      </trkpt>
      <trkpt lat="45.10711" lon="5.88346">
        <ele>1842.143</ele>
        <time>2021-01-10T14:34:10Z</time>
      </trkpt>
      <trkpt lat="45.10706" lon="5.88341">
        <ele>1841.969</ele>
        <time>2021-01-10T14:34:13Z</time>
      </trkpt>
      <trkpt lat="45.10704" lon="5.88339">
        <ele>1841.699</ele>
        <time>2021-01-10T14:34:15Z</time>
      </trkpt>
      <trkpt lat="45.10701" lon="5.88339">
        <ele>1840.771</ele>
        <time>2021-01-10T14:34:18Z</time>
      </trkpt>
      <trkpt lat="45.10698" lon="5.88337">
        <ele>1841.754</ele>
        <time>2021-01-10T14:34:21Z</time>
      </trkpt>
      <trkpt lat="45.10696" lon="5.88335">
        <ele>1841.879</ele>
        <time>2021-01-10T14:34:23Z</time>
      </trkpt>
      <trkpt lat="45.10691" lon="5.88331">
        <ele>1843.632</ele>
        <time>2021-01-10T14:34:26Z</time>
      </trkpt>
      <trkpt lat="45.10686" lon="5.88329">
        <ele>1843.388</ele>
        <time>2021-01-10T14:34:29Z</time>
      </trkpt>
      <trkpt lat="45.10684" lon="5.8833">
        <ele>1843.001</ele>
        <time>2021-01-10T14:34:32Z</time>
      </trkpt>
      <trkpt lat="45.10683" lon="5.88332">
        <ele>1842.065</ele>
        <time>2021-01-10T14:34:35Z</time>
      </trkpt>
      <trkpt lat="45.10681" lon="5.88334">
        <ele>1840.472</ele>
        <time>2021-01-10T14:34:38Z</time>
      </trkpt>
      <trkpt lat="45.1068" lon="5.88336">
        <ele>1838.978</ele>
        <time>2021-01-10T14:34:40Z</time>
      </trkpt>
      <trkpt lat="45.10678" lon="5.88335">
        <ele>1839.668</ele>
        <time>2021-01-10T14:34:43Z</time>
      </trkpt>
      <trkpt lat="45.10676" lon="5.88336">
        <ele>1841.112</ele>
        <time>2021-01-10T14:34:45Z</time>
      </trkpt>
      <trkpt lat="45.10673" lon="5.88337">
        <ele>1839.332</ele>
        <time>2021-01-10T14:34:48Z</time>
      </trkpt>
      <trkpt lat="45.1067" lon="5.88338">
        <ele>1838.189</ele>
        <time>2021-01-10T14:34:51Z</time>
      </trkpt>
      <trkpt lat="45.10667" lon="5.88338">
        <ele>1839.181</ele>
        <time>2021-01-10T14:34:53Z</time>
      </trkpt>
      <trkpt lat="45.10666" lon="5.88341">
        <ele>1836.715</ele>
        <time>2021-01-10T14:34:56Z</time>
      </trkpt>
      <trkpt lat="45.10664" lon="5.88344">
        <ele>1837.666</ele>
        <time>2021-01-10T14:34:59Z</time>
      </trkpt>
      <trkpt lat="45.10663" lon="5.88347">
        <ele>1836.464</ele>
        <time>2021-01-10T14:35:01Z</time>
      </trkpt>
      <trkpt lat="45.1066" lon="5.88348">
        <ele>1836.304</ele>
        <time>2021-01-10T14:35:04Z</time>
      </trkpt>
      <trkpt lat="45.10658" lon="5.88348">
        <ele>1837.054</ele>
        <time>2021-01-10T14:35:06Z</time>
      </trkpt>
      <trkpt lat="45.10655" lon="5.88351">
        <ele>1838.642</ele>
        <time>2021-01-10T14:35:09Z</time>
      </trkpt>
      <trkpt lat="45.10654" lon="5.88352">
        <ele>1838.074</ele>
        <time>2021-01-10T14:35:11Z</time>
      </trkpt>
      <trkpt lat="45.10653" lon="5.88354">
        <ele>1838.531</ele>
        <time>2021-01-10T14:35:13Z</time>
      </trkpt>
      <trkpt lat="45.10652" lon="5.88358">
        <ele>1839.513</ele>
        <time>2021-01-10T14:35:16Z</time>
      </trkpt>
      <trkpt lat="45.10651" lon="5.8836">
        <ele>1838.95</ele>
        <time>2021-01-10T14:35:18Z</time>
      </trkpt>
      <trkpt lat="45.10649" lon="5.88364">
        <ele>1837.86</ele>
        <time>2021-01-10T14:35:20Z</time>
      </trkpt>
      <trkpt lat="45.10648" lon="5.88367">
        <ele>1837.923</ele>
        <time>2021-01-10T14:35:22Z</time>
      </trkpt>
      <trkpt lat="45.10648" lon="5.88369">
        <ele>1835.658</ele>
        <time>2021-01-10T14:35:24Z</time>
      </trkpt>
      <trkpt lat="45.10646" lon="5.8837">
        <ele>1836.851</ele>
        <time>2021-01-10T14:35:27Z</time>
      </trkpt>
      <trkpt lat="45.10644" lon="5.8837">
        <ele>1836.884</ele>
        <time>2021-01-10T14:35:29Z</time>
      </trkpt>
      <trkpt lat="45.10643" lon="5.88369">
        <ele>1837.336</ele>
        <time>2021-01-10T14:35:31Z</time>
      </trkpt>
      <trkpt lat="45.10641" lon="5.88365">
        <ele>1836.26</ele>
        <time>2021-01-10T14:35:34Z</time>
      </trkpt>
      <trkpt lat="45.10639" lon="5.88365">
        <ele>1835.428</ele>
        <time>2021-01-10T14:35:36Z</time>
      </trkpt>
      <trkpt lat="45.10635" lon="5.88363">
        <ele>1837.345</ele>
        <time>2021-01-10T14:35:39Z</time>
      </trkpt>
      <trkpt lat="45.10633" lon="5.88363">
        <ele>1837.808</ele>
        <time>2021-01-10T14:35:41Z</time>
      </trkpt>
      <trkpt lat="45.1063" lon="5.88361">
        <ele>1836.865</ele>
        <time>2021-01-10T14:35:44Z</time>
      </trkpt>
      <trkpt lat="45.10627" lon="5.88359">
        <ele>1835.977</ele>
        <time>2021-01-10T14:35:47Z</time>
      </trkpt>
      <trkpt lat="45.10625" lon="5.88358">
        <ele>1835.74</ele>
        <time>2021-01-10T14:35:49Z</time>
      </trkpt>
      <trkpt lat="45.10622" lon="5.88355">
        <ele>1837.638</ele>
        <time>2021-01-10T14:35:52Z</time>
      </trkpt>
      <trkpt lat="45.10619" lon="5.88352">
        <ele>1837.958</ele>
        <time>2021-01-10T14:35:55Z</time>
      </trkpt>
      <trkpt lat="45.10617" lon="5.88352">
        <ele>1835.647</ele>
        <time>2021-01-10T14:35:57Z</time>
      </trkpt>
      <trkpt lat="45.10616" lon="5.88354">
        <ele>1835.496</ele>
        <time>2021-01-10T14:36:00Z</time>
      </trkpt>
      <trkpt lat="45.10614" lon="5.88356">
        <ele>1833.759</ele>
        <time>2021-01-10T14:36:02Z</time>
      </trkpt>
      <trkpt lat="45.10612" lon="5.88357">
        <ele>1832.357</ele>
        <time>2021-01-10T14:36:05Z</time>
      </trkpt>
      <trkpt lat="45.1061" lon="5.88357">
        <ele>1830.015</ele>
        <time>2021-01-10T14:36:08Z</time>
      </trkpt>
      <trkpt lat="45.1061" lon="5.88358">
        <ele>1827.885</ele>
        <time>2021-01-10T14:36:11Z</time>
      </trkpt>
      <trkpt lat="45.1061" lon="5.88358">
        <ele>1827.068</ele>
        <time>2021-01-10T14:36:14Z</time>
      </trkpt>
      <trkpt lat="45.10608" lon="5.88356">
        <ele>1827.436</ele>
        <time>2021-01-10T14:36:16Z</time>
      </trkpt>
      <trkpt lat="45.10608" lon="5.88357">
        <ele>1826.142</ele>
        <time>2021-01-10T14:36:18Z</time>
      </trkpt>
      <trkpt lat="45.10607" lon="5.88355">
        <ele>1827.577</ele>
        <time>2021-01-10T14:36:21Z</time>
      </trkpt>
      <trkpt lat="45.10606" lon="5.88353">
        <ele>1827.224</ele>
        <time>2021-01-10T14:36:23Z</time>
      </trkpt>
      <trkpt lat="45.10604" lon="5.88349">
        <ele>1826.099</ele>
        <time>2021-01-10T14:36:26Z</time>
      </trkpt>
      <trkpt lat="45.10604" lon="5.88347">
        <ele>1827.766</ele>
        <time>2021-01-10T14:36:28Z</time>
      </trkpt>
      <trkpt lat="45.10603" lon="5.88345">
        <ele>1827.169</ele>
        <time>2021-01-10T14:36:30Z</time>
      </trkpt>
      <trkpt lat="45.10602" lon="5.88343">
        <ele>1825.898</ele>
        <time>2021-01-10T14:36:33Z</time>
      </trkpt>
      <trkpt lat="45.10602" lon="5.88342">
        <ele>1824.883</ele>
        <time>2021-01-10T14:36:35Z</time>
      </trkpt>
      <trkpt lat="45.106" lon="5.8834">
        <ele>1823.34</ele>
        <time>2021-01-10T14:36:38Z</time>
      </trkpt>
      <trkpt lat="45.10599" lon="5.88338">
        <ele>1824.516</ele>
        <time>2021-01-10T14:36:40Z</time>
      </trkpt>
      <trkpt lat="45.10598" lon="5.88334">
        <ele>1821.895</ele>
        <time>2021-01-10T14:36:43Z</time>
      </trkpt>
      <trkpt lat="45.10596" lon="5.88331">
        <ele>1821.28</ele>
        <time>2021-01-10T14:36:45Z</time>
      </trkpt>
      <trkpt lat="45.10596" lon="5.8833">
        <ele>1818.625</ele>
        <time>2021-01-10T14:36:48Z</time>
      </trkpt>
      <trkpt lat="45.10593" lon="5.88331">
        <ele>1819.769</ele>
        <time>2021-01-10T14:36:51Z</time>
      </trkpt>
      <trkpt lat="45.10593" lon="5.8833">
        <ele>1816.645</ele>
        <time>2021-01-10T14:36:53Z</time>
      </trkpt>
      <trkpt lat="45.10591" lon="5.88329">
        <ele>1816.163</ele>
        <time>2021-01-10T14:36:56Z</time>
      </trkpt>
      <trkpt lat="45.10587" lon="5.88328">
        <ele>1816.742</ele>
        <time>2021-01-10T14:36:59Z</time>
      </trkpt>
      <trkpt lat="45.10585" lon="5.88326">
        <ele>1814.556</ele>
        <time>2021-01-10T14:37:02Z</time>
      </trkpt>
      <trkpt lat="45.10583" lon="5.88324">
        <ele>1813.828</ele>
        <time>2021-01-10T14:37:04Z</time>
      </trkpt>
      <trkpt lat="45.10582" lon="5.88322">
        <ele>1814.123</ele>
        <time>2021-01-10T14:37:06Z</time>
      </trkpt>
      <trkpt lat="45.10581" lon="5.8832">
        <ele>1815.603</ele>
        <time>2021-01-10T14:37:08Z</time>
      </trkpt>
      <trkpt lat="45.10579" lon="5.88318">
        <ele>1818.173</ele>
        <time>2021-01-10T14:37:11Z</time>
      </trkpt>
      <trkpt lat="45.10577" lon="5.88318">
        <ele>1818.128</ele>
        <time>2021-01-10T14:37:13Z</time>
      </trkpt>
      <trkpt lat="45.10572" lon="5.88318">
        <ele>1816.278</ele>
        <time>2021-01-10T14:37:16Z</time>
      </trkpt>
      <trkpt lat="45.1057" lon="5.88319">
        <ele>1814.886</ele>
        <time>2021-01-10T14:37:19Z</time>
      </trkpt>
      <trkpt lat="45.10569" lon="5.88318">
        <ele>1812.905</ele>
        <time>2021-01-10T14:37:21Z</time>
      </trkpt>
      <trkpt lat="45.10568" lon="5.88314">
        <ele>1813.696</ele>
        <time>2021-01-10T14:37:24Z</time>
      </trkpt>
      <trkpt lat="45.10567" lon="5.88312">
        <ele>1814.79</ele>
        <time>2021-01-10T14:37:26Z</time>
      </trkpt>
      <trkpt lat="45.10567" lon="5.88311">
        <ele>1813.419</ele>
        <time>2021-01-10T14:37:28Z</time>
      </trkpt>
      <trkpt lat="45.10566" lon="5.88311">
        <ele>1815.323</ele>
        <time>2021-01-10T14:37:31Z</time>
      </trkpt>
      <trkpt lat="45.10566" lon="5.8831">
        <ele>1816.013</ele>
        <time>2021-01-10T14:37:33Z</time>
      </trkpt>
      <trkpt lat="45.10565" lon="5.88309">
        <ele>1816.899</ele>
        <time>2021-01-10T14:37:36Z</time>
      </trkpt>
      <trkpt lat="45.10564" lon="5.88308">
        <ele>1817.518</ele>
        <time>2021-01-10T14:37:39Z</time>
      </trkpt>
      <trkpt lat="45.10564" lon="5.88308">
        <ele>1817.507</ele>
        <time>2021-01-10T14:37:41Z</time>
      </trkpt>
      <trkpt lat="45.10563" lon="5.88307">
        <ele>1817.071</ele>
        <time>2021-01-10T14:37:44Z</time>
      </trkpt>
      <trkpt lat="45.10563" lon="5.88306">
        <ele>1819.891</ele>
        <time>2021-01-10T14:37:46Z</time>
      </trkpt>
      <trkpt lat="45.10561" lon="5.88302">
        <ele>1818.945</ele>
        <time>2021-01-10T14:37:49Z</time>
      </trkpt>
      <trkpt lat="45.10559" lon="5.883">
        <ele>1818.735</ele>
        <time>2021-01-10T14:37:52Z</time>
      </trkpt>
      <trkpt lat="45.10557" lon="5.88299">
        <ele>1819.024</ele>
        <time>2021-01-10T14:37:54Z</time>
      </trkpt>
      <trkpt lat="45.10556" lon="5.88297">
        <ele>1817.289</ele>
        <time>2021-01-10T14:37:56Z</time>
      </trkpt>
      <trkpt lat="45.10556" lon="5.88295">
        <ele>1815.658</ele>
        <time>2021-01-10T14:37:59Z</time>
      </trkpt>
      <trkpt lat="45.10557" lon="5.88293">
        <ele>1815.128</ele>
        <time>2021-01-10T14:38:01Z</time>
      </trkpt>
      <trkpt lat="45.10558" lon="5.8829">
        <ele>1816.74</ele>
        <time>2021-01-10T14:38:04Z</time>
      </trkpt>
      <trkpt lat="45.10558" lon="5.88288">
        <ele>1816.979</ele>
        <time>2021-01-10T14:38:06Z</time>
      </trkpt>
      <trkpt lat="45.10558" lon="5.88285">
        <ele>1818.61</ele>
        <time>2021-01-10T14:38:08Z</time>
      </trkpt>
      <trkpt lat="45.10557" lon="5.88281">
        <ele>1819.896</ele>
        <time>2021-01-10T14:38:11Z</time>
      </trkpt>
      <trkpt lat="45.10556" lon="5.88278">
        <ele>1819.94</ele>
        <time>2021-01-10T14:38:14Z</time>
      </trkpt>
      <trkpt lat="45.10555" lon="5.88276">
        <ele>1820.094</ele>
        <time>2021-01-10T14:38:17Z</time>
      </trkpt>
      <trkpt lat="45.10553" lon="5.88274">
        <ele>1821</ele>
        <time>2021-01-10T14:38:20Z</time>
      </trkpt>
      <trkpt lat="45.10549" lon="5.88272">
        <ele>1820.676</ele>
        <time>2021-01-10T14:38:23Z</time>
      </trkpt>
      <trkpt lat="45.10546" lon="5.88266">
        <ele>1819.865</ele>
        <time>2021-01-10T14:38:26Z</time>
      </trkpt>
      <trkpt lat="45.10545" lon="5.88264">
        <ele>1818.009</ele>
        <time>2021-01-10T14:38:29Z</time>
      </trkpt>
      <trkpt lat="45.10545" lon="5.88259">
        <ele>1816.028</ele>
        <time>2021-01-10T14:38:32Z</time>
      </trkpt>
      <trkpt lat="45.10544" lon="5.88258">
        <ele>1816.577</ele>
        <time>2021-01-10T14:38:34Z</time>
      </trkpt>
      <trkpt lat="45.10542" lon="5.88254">
        <ele>1814.746</ele>
        <time>2021-01-10T14:38:37Z</time>
      </trkpt>
      <trkpt lat="45.10543" lon="5.88252">
        <ele>1815.918</ele>
        <time>2021-01-10T14:38:40Z</time>
      </trkpt>
      <trkpt lat="45.10544" lon="5.88253">
        <ele>1815.826</ele>
        <time>2021-01-10T14:38:43Z</time>
      </trkpt>
      <trkpt lat="45.10546" lon="5.88254">
        <ele>1814.448</ele>
        <time>2021-01-10T14:38:45Z</time>
      </trkpt>
      <trkpt lat="45.10545" lon="5.88254">
        <ele>1814.239</ele>
        <time>2021-01-10T14:38:48Z</time>
      </trkpt>
      <trkpt lat="45.10544" lon="5.88253">
        <ele>1815.341</ele>
        <time>2021-01-10T14:38:50Z</time>
      </trkpt>
      <trkpt lat="45.10542" lon="5.88251">
        <ele>1815.536</ele>
        <time>2021-01-10T14:38:53Z</time>
      </trkpt>
      <trkpt lat="45.1054" lon="5.8825">
        <ele>1813.562</ele>
        <time>2021-01-10T14:38:56Z</time>
      </trkpt>
      <trkpt lat="45.1054" lon="5.8825">
        <ele>1813.309</ele>
        <time>2021-01-10T14:38:58Z</time>
      </trkpt>
      <trkpt lat="45.1054" lon="5.8825">
        <ele>1813.97</ele>
        <time>2021-01-10T14:39:01Z</time>
      </trkpt>
      <trkpt lat="45.1054" lon="5.88251">
        <ele>1814.669</ele>
        <time>2021-01-10T14:39:03Z</time>
      </trkpt>
      <trkpt lat="45.10541" lon="5.88252">
        <ele>1815.352</ele>
        <time>2021-01-10T14:39:06Z</time>
      </trkpt>
      <trkpt lat="45.10541" lon="5.88253">
        <ele>1815.442</ele>
        <time>2021-01-10T14:39:09Z</time>
      </trkpt>
      <trkpt lat="45.10541" lon="5.88253">
        <ele>1815.45</ele>
        <time>2021-01-10T14:39:11Z</time>
      </trkpt>
      <trkpt lat="45.10541" lon="5.88253">
        <ele>1815.461</ele>
        <time>2021-01-10T14:39:13Z</time>
      </trkpt>
      <trkpt lat="45.10541" lon="5.88253">
        <ele>1815.468</ele>
        <time>2021-01-10T14:39:16Z</time>
      </trkpt>
      <trkpt lat="45.10541" lon="5.88253">
        <ele>1815.474</ele>
        <time>2021-01-10T14:39:19Z</time>
      </trkpt>
      <trkpt lat="45.10541" lon="5.88253">
        <ele>1815.478</ele>
        <time>2021-01-10T14:39:21Z</time>
      </trkpt>
      <trkpt lat="45.10541" lon="5.88253">
        <ele>1815.493</ele>
        <time>2021-01-10T14:39:24Z</time>
      </trkpt>
      <trkpt lat="45.10541" lon="5.88253">
        <ele>1815.483</ele>
        <time>2021-01-10T14:39:26Z</time>
      </trkpt>
      <trkpt lat="45.10541" lon="5.88253">
        <ele>1815.482</ele>
        <time>2021-01-10T14:39:29Z</time>
      </trkpt>
      <trkpt lat="45.10541" lon="5.88253">
        <ele>1815.485</ele>
        <time>2021-01-10T14:39:31Z</time>
      </trkpt>
      <trkpt lat="45.10541" lon="5.88253">
        <ele>1815.428</ele>
        <time>2021-01-10T14:39:34Z</time>
      </trkpt>
      <trkpt lat="45.10541" lon="5.88253">
        <ele>1815.431</ele>
        <time>2021-01-10T14:39:37Z</time>
      </trkpt>
      <trkpt lat="45.10541" lon="5.88253">
        <ele>1815.426</ele>
        <time>2021-01-10T14:39:40Z</time>
      </trkpt>
      <trkpt lat="45.10541" lon="5.88253">
        <ele>1815.419</ele>
        <time>2021-01-10T14:39:42Z</time>
      </trkpt>
      <trkpt lat="45.10541" lon="5.88253">
        <ele>1815.516</ele>
        <time>2021-01-10T14:39:44Z</time>
      </trkpt>
      <trkpt lat="45.10538" lon="5.88253">
        <ele>1818.039</ele>
        <time>2021-01-10T14:39:47Z</time>
      </trkpt>
      <trkpt lat="45.10537" lon="5.88254">
        <ele>1818.57</ele>
        <time>2021-01-10T14:39:49Z</time>
      </trkpt>
      <trkpt lat="45.10536" lon="5.88256">
        <ele>1816.798</ele>
        <time>2021-01-10T14:39:51Z</time>
      </trkpt>
      <trkpt lat="45.10533" lon="5.88258">
        <ele>1815.867</ele>
        <time>2021-01-10T14:39:54Z</time>
      </trkpt>
      <trkpt lat="45.10531" lon="5.88259">
        <ele>1814.789</ele>
        <time>2021-01-10T14:39:56Z</time>
      </trkpt>
      <trkpt lat="45.10529" lon="5.8826">
        <ele>1815.076</ele>
        <time>2021-01-10T14:39:58Z</time>
      </trkpt>
      <trkpt lat="45.10527" lon="5.88264">
        <ele>1813.983</ele>
        <time>2021-01-10T14:40:01Z</time>
      </trkpt>
      <trkpt lat="45.10524" lon="5.88265">
        <ele>1815.289</ele>
        <time>2021-01-10T14:40:03Z</time>
      </trkpt>
      <trkpt lat="45.1052" lon="5.88264">
        <ele>1814.623</ele>
        <time>2021-01-10T14:40:06Z</time>
      </trkpt>
      <trkpt lat="45.10517" lon="5.88266">
        <ele>1814.924</ele>
        <time>2021-01-10T14:40:09Z</time>
      </trkpt>
      <trkpt lat="45.10516" lon="5.88268">
        <ele>1815.781</ele>
        <time>2021-01-10T14:40:11Z</time>
      </trkpt>
      <trkpt lat="45.10514" lon="5.88269">
        <ele>1816.663</ele>
        <time>2021-01-10T14:40:14Z</time>
      </trkpt>
      <trkpt lat="45.10512" lon="5.88271">
        <ele>1815.371</ele>
        <time>2021-01-10T14:40:17Z</time>
      </trkpt>
      <trkpt lat="45.10509" lon="5.88271">
        <ele>1815.288</ele>
        <time>2021-01-10T14:40:20Z</time>
      </trkpt>
      <trkpt lat="45.10506" lon="5.88271">
        <ele>1812.813</ele>
        <time>2021-01-10T14:40:23Z</time>
      </trkpt>
      <trkpt lat="45.10505" lon="5.88272">
        <ele>1811.582</ele>
        <time>2021-01-10T14:40:25Z</time>
      </trkpt>
      <trkpt lat="45.10502" lon="5.88275">
        <ele>1810.677</ele>
        <time>2021-01-10T14:40:28Z</time>
      </trkpt>
      <trkpt lat="45.10501" lon="5.88276">
        <ele>1810.389</ele>
        <time>2021-01-10T14:40:30Z</time>
      </trkpt>
      <trkpt lat="45.10499" lon="5.88278">
        <ele>1808.793</ele>
        <time>2021-01-10T14:40:32Z</time>
      </trkpt>
      <trkpt lat="45.10498" lon="5.88279">
        <ele>1806.195</ele>
        <time>2021-01-10T14:40:35Z</time>
      </trkpt>
      <trkpt lat="45.10497" lon="5.88279">
        <ele>1804.146</ele>
        <time>2021-01-10T14:40:37Z</time>
      </trkpt>
      <trkpt lat="45.10495" lon="5.88281">
        <ele>1804.01</ele>
        <time>2021-01-10T14:40:40Z</time>
      </trkpt>
      <trkpt lat="45.10494" lon="5.88283">
        <ele>1803.371</ele>
        <time>2021-01-10T14:40:42Z</time>
      </trkpt>
      <trkpt lat="45.10492" lon="5.88285">
        <ele>1803.392</ele>
        <time>2021-01-10T14:40:45Z</time>
      </trkpt>
      <trkpt lat="45.10489" lon="5.88287">
        <ele>1805.243</ele>
        <time>2021-01-10T14:40:48Z</time>
      </trkpt>
      <trkpt lat="45.10487" lon="5.88288">
        <ele>1801.814</ele>
        <time>2021-01-10T14:40:51Z</time>
      </trkpt>
      <trkpt lat="45.10484" lon="5.88288">
        <ele>1802.197</ele>
        <time>2021-01-10T14:40:53Z</time>
      </trkpt>
      <trkpt lat="45.1048" lon="5.88288">
        <ele>1800.629</ele>
        <time>2021-01-10T14:40:56Z</time>
      </trkpt>
      <trkpt lat="45.10478" lon="5.88289">
        <ele>1800.655</ele>
        <time>2021-01-10T14:40:58Z</time>
      </trkpt>
      <trkpt lat="45.10478" lon="5.88291">
        <ele>1800.501</ele>
        <time>2021-01-10T14:41:01Z</time>
      </trkpt>
      <trkpt lat="45.10476" lon="5.88295">
        <ele>1798.353</ele>
        <time>2021-01-10T14:41:04Z</time>
      </trkpt>
      <trkpt lat="45.10474" lon="5.88296">
        <ele>1796.181</ele>
        <time>2021-01-10T14:41:06Z</time>
      </trkpt>
      <trkpt lat="45.1047" lon="5.88298">
        <ele>1798.308</ele>
        <time>2021-01-10T14:41:09Z</time>
      </trkpt>
      <trkpt lat="45.10466" lon="5.88299">
        <ele>1799.949</ele>
        <time>2021-01-10T14:41:11Z</time>
      </trkpt>
      <trkpt lat="45.10459" lon="5.88299">
        <ele>1797.24</ele>
        <time>2021-01-10T14:41:14Z</time>
      </trkpt>
      <trkpt lat="45.10455" lon="5.88299">
        <ele>1794.34</ele>
        <time>2021-01-10T14:41:16Z</time>
      </trkpt>
      <trkpt lat="45.10455" lon="5.88303">
        <ele>1792.547</ele>
        <time>2021-01-10T14:41:19Z</time>
      </trkpt>
      <trkpt lat="45.10456" lon="5.88305">
        <ele>1790.91</ele>
        <time>2021-01-10T14:41:21Z</time>
      </trkpt>
      <trkpt lat="45.10456" lon="5.88307">
        <ele>1788.94</ele>
        <time>2021-01-10T14:41:23Z</time>
      </trkpt>
      <trkpt lat="45.10457" lon="5.88308">
        <ele>1789.845</ele>
        <time>2021-01-10T14:41:25Z</time>
      </trkpt>
      <trkpt lat="45.10455" lon="5.8831">
        <ele>1788.059</ele>
        <time>2021-01-10T14:41:28Z</time>
      </trkpt>
      <trkpt lat="45.10451" lon="5.88312">
        <ele>1789.375</ele>
        <time>2021-01-10T14:41:31Z</time>
      </trkpt>
      <trkpt lat="45.10448" lon="5.88312">
        <ele>1789.038</ele>
        <time>2021-01-10T14:41:33Z</time>
      </trkpt>
      <trkpt lat="45.10445" lon="5.88312">
        <ele>1789.649</ele>
        <time>2021-01-10T14:41:35Z</time>
      </trkpt>
      <trkpt lat="45.10443" lon="5.88314">
        <ele>1788.888</ele>
        <time>2021-01-10T14:41:38Z</time>
      </trkpt>
      <trkpt lat="45.10442" lon="5.88316">
        <ele>1788.631</ele>
        <time>2021-01-10T14:41:40Z</time>
      </trkpt>
      <trkpt lat="45.10444" lon="5.88316">
        <ele>1789.55</ele>
        <time>2021-01-10T14:41:43Z</time>
      </trkpt>
      <trkpt lat="45.10445" lon="5.88316">
        <ele>1789.424</ele>
        <time>2021-01-10T14:41:46Z</time>
      </trkpt>
      <trkpt lat="45.10445" lon="5.88316">
        <ele>1789.734</ele>
        <time>2021-01-10T14:41:49Z</time>
      </trkpt>
      <trkpt lat="45.10445" lon="5.88316">
        <ele>1789.514</ele>
        <time>2021-01-10T14:41:52Z</time>
      </trkpt>
      <trkpt lat="45.10444" lon="5.88317">
        <ele>1789.333</ele>
        <time>2021-01-10T14:41:55Z</time>
      </trkpt>
      <trkpt lat="45.10444" lon="5.88317">
        <ele>1789.633</ele>
        <time>2021-01-10T14:41:58Z</time>
      </trkpt>
      <trkpt lat="45.10443" lon="5.88318">
        <ele>1789.973</ele>
        <time>2021-01-10T14:42:01Z</time>
      </trkpt>
      <trkpt lat="45.10438" lon="5.88322">
        <ele>1789.427</ele>
        <time>2021-01-10T14:42:04Z</time>
      </trkpt>
      <trkpt lat="45.10435" lon="5.88326">
        <ele>1789.556</ele>
        <time>2021-01-10T14:42:07Z</time>
      </trkpt>
      <trkpt lat="45.10432" lon="5.88331">
        <ele>1784.893</ele>
        <time>2021-01-10T14:42:10Z</time>
      </trkpt>
      <trkpt lat="45.10426" lon="5.88337">
        <ele>1785.824</ele>
        <time>2021-01-10T14:42:13Z</time>
      </trkpt>
      <trkpt lat="45.10424" lon="5.8834">
        <ele>1783.049</ele>
        <time>2021-01-10T14:42:15Z</time>
      </trkpt>
      <trkpt lat="45.1042" lon="5.88343">
        <ele>1781.213</ele>
        <time>2021-01-10T14:42:18Z</time>
      </trkpt>
      <trkpt lat="45.10418" lon="5.88345">
        <ele>1776.34</ele>
        <time>2021-01-10T14:42:20Z</time>
      </trkpt>
      <trkpt lat="45.10417" lon="5.88347">
        <ele>1775.127</ele>
        <time>2021-01-10T14:42:22Z</time>
      </trkpt>
      <trkpt lat="45.10415" lon="5.8835">
        <ele>1773.437</ele>
        <time>2021-01-10T14:42:24Z</time>
      </trkpt>
      <trkpt lat="45.10413" lon="5.88358">
        <ele>1771.373</ele>
        <time>2021-01-10T14:42:27Z</time>
      </trkpt>
      <trkpt lat="45.10412" lon="5.88361">
        <ele>1773.474</ele>
        <time>2021-01-10T14:42:30Z</time>
      </trkpt>
      <trkpt lat="45.1041" lon="5.88364">
        <ele>1769.546</ele>
        <time>2021-01-10T14:42:33Z</time>
      </trkpt>
      <trkpt lat="45.10408" lon="5.8837">
        <ele>1772.598</ele>
        <time>2021-01-10T14:42:36Z</time>
      </trkpt>
      <trkpt lat="45.10406" lon="5.88373">
        <ele>1775.713</ele>
        <time>2021-01-10T14:42:38Z</time>
      </trkpt>
      <trkpt lat="45.10403" lon="5.88375">
        <ele>1775.705</ele>
        <time>2021-01-10T14:42:40Z</time>
      </trkpt>
      <trkpt lat="45.10402" lon="5.88378">
        <ele>1776.144</ele>
        <time>2021-01-10T14:42:43Z</time>
      </trkpt>
      <trkpt lat="45.10404" lon="5.88382">
        <ele>1776.809</ele>
        <time>2021-01-10T14:42:46Z</time>
      </trkpt>
      <trkpt lat="45.10406" lon="5.88386">
        <ele>1778.05</ele>
        <time>2021-01-10T14:42:49Z</time>
      </trkpt>
      <trkpt lat="45.10407" lon="5.88389">
        <ele>1778.303</ele>
        <time>2021-01-10T14:42:52Z</time>
      </trkpt>
      <trkpt lat="45.10407" lon="5.8839">
        <ele>1775.854</ele>
        <time>2021-01-10T14:42:55Z</time>
      </trkpt>
      <trkpt lat="45.10408" lon="5.8839">
        <ele>1776.478</ele>
        <time>2021-01-10T14:42:58Z</time>
      </trkpt>
      <trkpt lat="45.10406" lon="5.88391">
        <ele>1776.244</ele>
        <time>2021-01-10T14:43:01Z</time>
      </trkpt>
      <trkpt lat="45.10406" lon="5.88391">
        <ele>1776.633</ele>
        <time>2021-01-10T14:43:03Z</time>
      </trkpt>
      <trkpt lat="45.10406" lon="5.88391">
        <ele>1776.658</ele>
        <time>2021-01-10T14:43:06Z</time>
      </trkpt>
      <trkpt lat="45.10406" lon="5.88391">
        <ele>1776.63</ele>
        <time>2021-01-10T14:43:08Z</time>
      </trkpt>
      <trkpt lat="45.10406" lon="5.88391">
        <ele>1776.862</ele>
        <time>2021-01-10T14:43:11Z</time>
      </trkpt>
      <trkpt lat="45.10406" lon="5.88391">
        <ele>1776.818</ele>
        <time>2021-01-10T14:43:14Z</time>
      </trkpt>
      <trkpt lat="45.10406" lon="5.88391">
        <ele>1776.675</ele>
        <time>2021-01-10T14:43:16Z</time>
      </trkpt>
      <trkpt lat="45.10406" lon="5.88391">
        <ele>1776.658</ele>
        <time>2021-01-10T14:43:19Z</time>
      </trkpt>
      <trkpt lat="45.10406" lon="5.88391">
        <ele>1776.653</ele>
        <time>2021-01-10T14:43:21Z</time>
      </trkpt>
      <trkpt lat="45.10406" lon="5.88391">
        <ele>1776.648</ele>
        <time>2021-01-10T14:43:23Z</time>
      </trkpt>
      <trkpt lat="45.10406" lon="5.88391">
        <ele>1776.642</ele>
        <time>2021-01-10T14:43:26Z</time>
      </trkpt>
      <trkpt lat="45.10406" lon="5.88391">
        <ele>1776.644</ele>
        <time>2021-01-10T14:43:28Z</time>
      </trkpt>
      <trkpt lat="45.10406" lon="5.88391">
        <ele>1776.245</ele>
        <time>2021-01-10T14:43:31Z</time>
      </trkpt>
      <trkpt lat="45.10406" lon="5.88391">
        <ele>1776.126</ele>
        <time>2021-01-10T14:43:33Z</time>
      </trkpt>
      <trkpt lat="45.10406" lon="5.88391">
        <ele>1776.12</ele>
        <time>2021-01-10T14:43:36Z</time>
      </trkpt>
      <trkpt lat="45.10406" lon="5.88391">
        <ele>1776.107</ele>
        <time>2021-01-10T14:43:38Z</time>
      </trkpt>
      <trkpt lat="45.10406" lon="5.88391">
        <ele>1776.103</ele>
        <time>2021-01-10T14:43:41Z</time>
      </trkpt>
      <trkpt lat="45.10406" lon="5.88391">
        <ele>1776.116</ele>
        <time>2021-01-10T14:43:43Z</time>
      </trkpt>
      <trkpt lat="45.10406" lon="5.88391">
        <ele>1776.107</ele>
        <time>2021-01-10T14:43:45Z</time>
      </trkpt>
      <trkpt lat="45.10406" lon="5.88391">
        <ele>1776.069</ele>
        <time>2021-01-10T14:43:48Z</time>
      </trkpt>
      <trkpt lat="45.10406" lon="5.88391">
        <ele>1776.08</ele>
        <time>2021-01-10T14:43:50Z</time>
      </trkpt>
      <trkpt lat="45.10406" lon="5.88391">
        <ele>1776.077</ele>
        <time>2021-01-10T14:43:53Z</time>
      </trkpt>
      <trkpt lat="45.10406" lon="5.88391">
        <ele>1776.041</ele>
        <time>2021-01-10T14:43:55Z</time>
      </trkpt>
      <trkpt lat="45.10406" lon="5.88391">
        <ele>1776.029</ele>
        <time>2021-01-10T14:43:58Z</time>
      </trkpt>
      <trkpt lat="45.10406" lon="5.88391">
        <ele>1776.024</ele>
        <time>2021-01-10T14:44:00Z</time>
      </trkpt>
      <trkpt lat="45.10406" lon="5.88391">
        <ele>1776.018</ele>
        <time>2021-01-10T14:44:02Z</time>
      </trkpt>
      <trkpt lat="45.10406" lon="5.88391">
        <ele>1776.008</ele>
        <time>2021-01-10T14:44:05Z</time>
      </trkpt>
      <trkpt lat="45.10406" lon="5.88391">
        <ele>1776.011</ele>
        <time>2021-01-10T14:44:08Z</time>
      </trkpt>
      <trkpt lat="45.10406" lon="5.88391">
        <ele>1776.015</ele>
        <time>2021-01-10T14:44:11Z</time>
      </trkpt>
      <trkpt lat="45.10406" lon="5.88391">
        <ele>1776.021</ele>
        <time>2021-01-10T14:44:13Z</time>
      </trkpt>
      <trkpt lat="45.10406" lon="5.88391">
        <ele>1776.017</ele>
        <time>2021-01-10T14:44:16Z</time>
      </trkpt>
      <trkpt lat="45.10406" lon="5.88391">
        <ele>1775.903</ele>
        <time>2021-01-10T14:44:19Z</time>
      </trkpt>
      <trkpt lat="45.10406" lon="5.88391">
        <ele>1775.898</ele>
        <time>2021-01-10T14:44:21Z</time>
      </trkpt>
      <trkpt lat="45.10407" lon="5.88391">
        <ele>1776.01</ele>
        <time>2021-01-10T14:44:24Z</time>
      </trkpt>
      <trkpt lat="45.10408" lon="5.88393">
        <ele>1776.583</ele>
        <time>2021-01-10T14:44:26Z</time>
      </trkpt>
      <trkpt lat="45.10409" lon="5.88395">
        <ele>1779.155</ele>
        <time>2021-01-10T14:44:29Z</time>
      </trkpt>
      <trkpt lat="45.10411" lon="5.88397">
        <ele>1775.649</ele>
        <time>2021-01-10T14:44:32Z</time>
      </trkpt>
      <trkpt lat="45.10414" lon="5.88398">
        <ele>1774.242</ele>
        <time>2021-01-10T14:44:35Z</time>
      </trkpt>
      <trkpt lat="45.10415" lon="5.88399">
        <ele>1771.999</ele>
        <time>2021-01-10T14:44:37Z</time>
      </trkpt>
      <trkpt lat="45.10416" lon="5.88402">
        <ele>1768.493</ele>
        <time>2021-01-10T14:44:40Z</time>
      </trkpt>
      <trkpt lat="45.10416" lon="5.88409">
        <ele>1769.285</ele>
        <time>2021-01-10T14:44:43Z</time>
      </trkpt>
      <trkpt lat="45.10416" lon="5.8841">
        <ele>1768.06</ele>
        <time>2021-01-10T14:44:46Z</time>
      </trkpt>
      <trkpt lat="45.10417" lon="5.88411">
        <ele>1766.906</ele>
        <time>2021-01-10T14:44:49Z</time>
      </trkpt>
      <trkpt lat="45.10417" lon="5.88413">
        <ele>1766.067</ele>
        <time>2021-01-10T14:44:51Z</time>
      </trkpt>
      <trkpt lat="45.10417" lon="5.88413">
        <ele>1769.577</ele>
        <time>2021-01-10T14:44:54Z</time>
      </trkpt>
      <trkpt lat="45.10416" lon="5.88414">
        <ele>1769.997</ele>
        <time>2021-01-10T14:44:57Z</time>
      </trkpt>
      <trkpt lat="45.10416" lon="5.88414">
        <ele>1769.61</ele>
        <time>2021-01-10T14:45:00Z</time>
      </trkpt>
      <trkpt lat="45.10416" lon="5.88414">
        <ele>1769.527</ele>
        <time>2021-01-10T14:45:03Z</time>
      </trkpt>
      <trkpt lat="45.10416" lon="5.88414">
        <ele>1770.014</ele>
        <time>2021-01-10T14:45:05Z</time>
      </trkpt>
      <trkpt lat="45.10417" lon="5.88415">
        <ele>1769.554</ele>
        <time>2021-01-10T14:45:08Z</time>
      </trkpt>
      <trkpt lat="45.10417" lon="5.88415">
        <ele>1769.44</ele>
        <time>2021-01-10T14:45:11Z</time>
      </trkpt>
      <trkpt lat="45.10417" lon="5.88415">
        <ele>1769.465</ele>
        <time>2021-01-10T14:45:14Z</time>
      </trkpt>
      <trkpt lat="45.1042" lon="5.88417">
        <ele>1767.393</ele>
        <time>2021-01-10T14:45:17Z</time>
      </trkpt>
      <trkpt lat="45.10424" lon="5.88417">
        <ele>1763.643</ele>
        <time>2021-01-10T14:45:19Z</time>
      </trkpt>
      <trkpt lat="45.10428" lon="5.88417">
        <ele>1762.311</ele>
        <time>2021-01-10T14:45:22Z</time>
      </trkpt>
      <trkpt lat="45.10431" lon="5.88421">
        <ele>1763.82</ele>
        <time>2021-01-10T14:45:25Z</time>
      </trkpt>
      <trkpt lat="45.10433" lon="5.88424">
        <ele>1764.459</ele>
        <time>2021-01-10T14:45:27Z</time>
      </trkpt>
      <trkpt lat="45.10436" lon="5.88429">
        <ele>1766.998</ele>
        <time>2021-01-10T14:45:30Z</time>
      </trkpt>
      <trkpt lat="45.10438" lon="5.88431">
        <ele>1766.109</ele>
        <time>2021-01-10T14:45:32Z</time>
      </trkpt>
      <trkpt lat="45.1044" lon="5.88432">
        <ele>1768.856</ele>
        <time>2021-01-10T14:45:34Z</time>
      </trkpt>
      <trkpt lat="45.10444" lon="5.88432">
        <ele>1764.727</ele>
        <time>2021-01-10T14:45:37Z</time>
      </trkpt>
      <trkpt lat="45.10446" lon="5.88432">
        <ele>1763.751</ele>
        <time>2021-01-10T14:45:39Z</time>
      </trkpt>
      <trkpt lat="45.1045" lon="5.88432">
        <ele>1762.99</ele>
        <time>2021-01-10T14:45:42Z</time>
      </trkpt>
      <trkpt lat="45.10453" lon="5.88434">
        <ele>1763.002</ele>
        <time>2021-01-10T14:45:45Z</time>
      </trkpt>
      <trkpt lat="45.10455" lon="5.88435">
        <ele>1764.857</ele>
        <time>2021-01-10T14:45:47Z</time>
      </trkpt>
      <trkpt lat="45.10457" lon="5.88436">
        <ele>1762.476</ele>
        <time>2021-01-10T14:45:50Z</time>
      </trkpt>
      <trkpt lat="45.10458" lon="5.8844">
        <ele>1763.807</ele>
        <time>2021-01-10T14:45:53Z</time>
      </trkpt>
      <trkpt lat="45.10458" lon="5.88445">
        <ele>1762.35</ele>
        <time>2021-01-10T14:45:55Z</time>
      </trkpt>
      <trkpt lat="45.10458" lon="5.88451">
        <ele>1761.686</ele>
        <time>2021-01-10T14:45:58Z</time>
      </trkpt>
      <trkpt lat="45.10459" lon="5.88454">
        <ele>1760.374</ele>
        <time>2021-01-10T14:46:01Z</time>
      </trkpt>
      <trkpt lat="45.10461" lon="5.88456">
        <ele>1761.812</ele>
        <time>2021-01-10T14:46:03Z</time>
      </trkpt>
      <trkpt lat="45.10464" lon="5.8846">
        <ele>1760.922</ele>
        <time>2021-01-10T14:46:06Z</time>
      </trkpt>
      <trkpt lat="45.10466" lon="5.88461">
        <ele>1763.468</ele>
        <time>2021-01-10T14:46:08Z</time>
      </trkpt>
      <trkpt lat="45.10468" lon="5.88464">
        <ele>1765.219</ele>
        <time>2021-01-10T14:46:11Z</time>
      </trkpt>
      <trkpt lat="45.10469" lon="5.88468">
        <ele>1767.899</ele>
        <time>2021-01-10T14:46:13Z</time>
      </trkpt>
      <trkpt lat="45.1047" lon="5.88471">
        <ele>1765.552</ele>
        <time>2021-01-10T14:46:15Z</time>
      </trkpt>
      <trkpt lat="45.10471" lon="5.88476">
        <ele>1768.647</ele>
        <time>2021-01-10T14:46:18Z</time>
      </trkpt>
      <trkpt lat="45.10472" lon="5.88479">
        <ele>1769.367</ele>
        <time>2021-01-10T14:46:20Z</time>
      </trkpt>
      <trkpt lat="45.10474" lon="5.88482">
        <ele>1768.95</ele>
        <time>2021-01-10T14:46:22Z</time>
      </trkpt>
      <trkpt lat="45.10475" lon="5.88486">
        <ele>1771.79</ele>
        <time>2021-01-10T14:46:25Z</time>
      </trkpt>
      <trkpt lat="45.10477" lon="5.88489">
        <ele>1771.051</ele>
        <time>2021-01-10T14:46:27Z</time>
      </trkpt>
      <trkpt lat="45.1048" lon="5.88493">
        <ele>1770.323</ele>
        <time>2021-01-10T14:46:30Z</time>
      </trkpt>
      <trkpt lat="45.10482" lon="5.88496">
        <ele>1768.777</ele>
        <time>2021-01-10T14:46:32Z</time>
      </trkpt>
      <trkpt lat="45.10484" lon="5.88498">
        <ele>1770.108</ele>
        <time>2021-01-10T14:46:34Z</time>
      </trkpt>
      <trkpt lat="45.10486" lon="5.885">
        <ele>1766.582</ele>
        <time>2021-01-10T14:46:37Z</time>
      </trkpt>
      <trkpt lat="45.10487" lon="5.88503">
        <ele>1764.238</ele>
        <time>2021-01-10T14:46:39Z</time>
      </trkpt>
      <trkpt lat="45.10488" lon="5.88507">
        <ele>1764.658</ele>
        <time>2021-01-10T14:46:42Z</time>
      </trkpt>
      <trkpt lat="45.1049" lon="5.88512">
        <ele>1764.885</ele>
        <time>2021-01-10T14:46:45Z</time>
      </trkpt>
      <trkpt lat="45.10491" lon="5.88514">
        <ele>1763.696</ele>
        <time>2021-01-10T14:46:47Z</time>
      </trkpt>
      <trkpt lat="45.10493" lon="5.88516">
        <ele>1763.642</ele>
        <time>2021-01-10T14:46:49Z</time>
      </trkpt>
      <trkpt lat="45.10497" lon="5.88519">
        <ele>1763.894</ele>
        <time>2021-01-10T14:46:52Z</time>
      </trkpt>
      <trkpt lat="45.10499" lon="5.8852">
        <ele>1765.015</ele>
        <time>2021-01-10T14:46:54Z</time>
      </trkpt>
      <trkpt lat="45.10501" lon="5.88521">
        <ele>1765.373</ele>
        <time>2021-01-10T14:46:57Z</time>
      </trkpt>
      <trkpt lat="45.10503" lon="5.88524">
        <ele>1763.243</ele>
        <time>2021-01-10T14:47:00Z</time>
      </trkpt>
      <trkpt lat="45.10505" lon="5.88525">
        <ele>1762.365</ele>
        <time>2021-01-10T14:47:02Z</time>
      </trkpt>
      <trkpt lat="45.10508" lon="5.88527">
        <ele>1761.077</ele>
        <time>2021-01-10T14:47:05Z</time>
      </trkpt>
      <trkpt lat="45.1051" lon="5.88531">
        <ele>1761.794</ele>
        <time>2021-01-10T14:47:08Z</time>
      </trkpt>
      <trkpt lat="45.10512" lon="5.88534">
        <ele>1760.812</ele>
        <time>2021-01-10T14:47:11Z</time>
      </trkpt>
      <trkpt lat="45.10514" lon="5.88537">
        <ele>1761.148</ele>
        <time>2021-01-10T14:47:13Z</time>
      </trkpt>
      <trkpt lat="45.10518" lon="5.88541">
        <ele>1761.209</ele>
        <time>2021-01-10T14:47:16Z</time>
      </trkpt>
      <trkpt lat="45.10519" lon="5.88547">
        <ele>1763.465</ele>
        <time>2021-01-10T14:47:19Z</time>
      </trkpt>
      <trkpt lat="45.1052" lon="5.88552">
        <ele>1763.191</ele>
        <time>2021-01-10T14:47:21Z</time>
      </trkpt>
      <trkpt lat="45.10523" lon="5.88554">
        <ele>1765.616</ele>
        <time>2021-01-10T14:47:23Z</time>
      </trkpt>
      <trkpt lat="45.10526" lon="5.88556">
        <ele>1768.233</ele>
        <time>2021-01-10T14:47:26Z</time>
      </trkpt>
      <trkpt lat="45.10529" lon="5.88558">
        <ele>1767.478</ele>
        <time>2021-01-10T14:47:28Z</time>
      </trkpt>
      <trkpt lat="45.10531" lon="5.8856">
        <ele>1765.33</ele>
        <time>2021-01-10T14:47:31Z</time>
      </trkpt>
      <trkpt lat="45.10534" lon="5.88565">
        <ele>1765.054</ele>
        <time>2021-01-10T14:47:34Z</time>
      </trkpt>
      <trkpt lat="45.10537" lon="5.88568">
        <ele>1764.573</ele>
        <time>2021-01-10T14:47:37Z</time>
      </trkpt>
      <trkpt lat="45.10538" lon="5.88571">
        <ele>1764.746</ele>
        <time>2021-01-10T14:47:39Z</time>
      </trkpt>
      <trkpt lat="45.10541" lon="5.88574">
        <ele>1763.762</ele>
        <time>2021-01-10T14:47:42Z</time>
      </trkpt>
      <trkpt lat="45.10543" lon="5.88576">
        <ele>1763.523</ele>
        <time>2021-01-10T14:47:45Z</time>
      </trkpt>
      <trkpt lat="45.10545" lon="5.88579">
        <ele>1764.179</ele>
        <time>2021-01-10T14:47:48Z</time>
      </trkpt>
      <trkpt lat="45.10546" lon="5.88581">
        <ele>1763.794</ele>
        <time>2021-01-10T14:47:50Z</time>
      </trkpt>
      <trkpt lat="45.10548" lon="5.88582">
        <ele>1765.014</ele>
        <time>2021-01-10T14:47:52Z</time>
      </trkpt>
      <trkpt lat="45.1055" lon="5.88584">
        <ele>1766.614</ele>
        <time>2021-01-10T14:47:54Z</time>
      </trkpt>
      <trkpt lat="45.10551" lon="5.88586">
        <ele>1765.78</ele>
        <time>2021-01-10T14:47:57Z</time>
      </trkpt>
      <trkpt lat="45.10553" lon="5.88588">
        <ele>1765.69</ele>
        <time>2021-01-10T14:48:00Z</time>
      </trkpt>
      <trkpt lat="45.10556" lon="5.88591">
        <ele>1766.637</ele>
        <time>2021-01-10T14:48:03Z</time>
      </trkpt>
      <trkpt lat="45.10559" lon="5.88594">
        <ele>1764.601</ele>
        <time>2021-01-10T14:48:05Z</time>
      </trkpt>
      <trkpt lat="45.10561" lon="5.88597">
        <ele>1766.738</ele>
        <time>2021-01-10T14:48:08Z</time>
      </trkpt>
      <trkpt lat="45.10563" lon="5.886">
        <ele>1766.435</ele>
        <time>2021-01-10T14:48:11Z</time>
      </trkpt>
      <trkpt lat="45.10566" lon="5.88601">
        <ele>1766.46</ele>
        <time>2021-01-10T14:48:13Z</time>
      </trkpt>
      <trkpt lat="45.10568" lon="5.88604">
        <ele>1766.466</ele>
        <time>2021-01-10T14:48:16Z</time>
      </trkpt>
      <trkpt lat="45.1057" lon="5.8861">
        <ele>1768.289</ele>
        <time>2021-01-10T14:48:19Z</time>
      </trkpt>
      <trkpt lat="45.1057" lon="5.88616">
        <ele>1767.181</ele>
        <time>2021-01-10T14:48:22Z</time>
      </trkpt>
      <trkpt lat="45.1057" lon="5.88623">
        <ele>1767.98</ele>
        <time>2021-01-10T14:48:25Z</time>
      </trkpt>
      <trkpt lat="45.10572" lon="5.88629">
        <ele>1767.332</ele>
        <time>2021-01-10T14:48:28Z</time>
      </trkpt>
      <trkpt lat="45.10573" lon="5.88636">
        <ele>1767.431</ele>
        <time>2021-01-10T14:48:31Z</time>
      </trkpt>
      <trkpt lat="45.10574" lon="5.88639">
        <ele>1766.973</ele>
        <time>2021-01-10T14:48:34Z</time>
      </trkpt>
      <trkpt lat="45.10572" lon="5.88641">
        <ele>1766.066</ele>
        <time>2021-01-10T14:48:37Z</time>
      </trkpt>
      <trkpt lat="45.10571" lon="5.88644">
        <ele>1766.954</ele>
        <time>2021-01-10T14:48:39Z</time>
      </trkpt>
      <trkpt lat="45.10572" lon="5.88647">
        <ele>1770.491</ele>
        <time>2021-01-10T14:48:42Z</time>
      </trkpt>
      <trkpt lat="45.10576" lon="5.88648">
        <ele>1770.903</ele>
        <time>2021-01-10T14:48:45Z</time>
      </trkpt>
      <trkpt lat="45.10578" lon="5.88649">
        <ele>1770.027</ele>
        <time>2021-01-10T14:48:48Z</time>
      </trkpt>
      <trkpt lat="45.10579" lon="5.8865">
        <ele>1769.57</ele>
        <time>2021-01-10T14:48:50Z</time>
      </trkpt>
      <trkpt lat="45.10582" lon="5.88656">
        <ele>1769.23</ele>
        <time>2021-01-10T14:48:53Z</time>
      </trkpt>
      <trkpt lat="45.10584" lon="5.88661">
        <ele>1768.837</ele>
        <time>2021-01-10T14:48:56Z</time>
      </trkpt>
      <trkpt lat="45.10586" lon="5.88664">
        <ele>1769.679</ele>
        <time>2021-01-10T14:48:58Z</time>
      </trkpt>
      <trkpt lat="45.10588" lon="5.88666">
        <ele>1770.161</ele>
        <time>2021-01-10T14:49:01Z</time>
      </trkpt>
      <trkpt lat="45.1059" lon="5.88668">
        <ele>1767.9</ele>
        <time>2021-01-10T14:49:03Z</time>
      </trkpt>
      <trkpt lat="45.10592" lon="5.88672">
        <ele>1765.99</ele>
        <time>2021-01-10T14:49:06Z</time>
      </trkpt>
      <trkpt lat="45.10595" lon="5.88678">
        <ele>1766.052</ele>
        <time>2021-01-10T14:49:09Z</time>
      </trkpt>
      <trkpt lat="45.10596" lon="5.88681">
        <ele>1767.595</ele>
        <time>2021-01-10T14:49:11Z</time>
      </trkpt>
      <trkpt lat="45.10597" lon="5.88685">
        <ele>1769.89</ele>
        <time>2021-01-10T14:49:14Z</time>
      </trkpt>
      <trkpt lat="45.106" lon="5.88687">
        <ele>1767.65</ele>
        <time>2021-01-10T14:49:17Z</time>
      </trkpt>
      <trkpt lat="45.10602" lon="5.88687">
        <ele>1769.12</ele>
        <time>2021-01-10T14:49:19Z</time>
      </trkpt>
      <trkpt lat="45.10605" lon="5.88691">
        <ele>1769.378</ele>
        <time>2021-01-10T14:49:22Z</time>
      </trkpt>
      <trkpt lat="45.10606" lon="5.88694">
        <ele>1768.833</ele>
        <time>2021-01-10T14:49:24Z</time>
      </trkpt>
      <trkpt lat="45.10608" lon="5.88694">
        <ele>1767.231</ele>
        <time>2021-01-10T14:49:27Z</time>
      </trkpt>
      <trkpt lat="45.1061" lon="5.88694">
        <ele>1765.392</ele>
        <time>2021-01-10T14:49:29Z</time>
      </trkpt>
      <trkpt lat="45.10613" lon="5.88695">
        <ele>1767.037</ele>
        <time>2021-01-10T14:49:31Z</time>
      </trkpt>
      <trkpt lat="45.10616" lon="5.88698">
        <ele>1768.765</ele>
        <time>2021-01-10T14:49:34Z</time>
      </trkpt>
      <trkpt lat="45.10619" lon="5.88701">
        <ele>1768.659</ele>
        <time>2021-01-10T14:49:37Z</time>
      </trkpt>
      <trkpt lat="45.10623" lon="5.88705">
        <ele>1772.573</ele>
        <time>2021-01-10T14:49:40Z</time>
      </trkpt>
      <trkpt lat="45.10625" lon="5.88709">
        <ele>1770.779</ele>
        <time>2021-01-10T14:49:43Z</time>
      </trkpt>
      <trkpt lat="45.10627" lon="5.8871">
        <ele>1769.837</ele>
        <time>2021-01-10T14:49:45Z</time>
      </trkpt>
      <trkpt lat="45.10631" lon="5.8871">
        <ele>1767.59</ele>
        <time>2021-01-10T14:49:48Z</time>
      </trkpt>
      <trkpt lat="45.10634" lon="5.88711">
        <ele>1767.526</ele>
        <time>2021-01-10T14:49:50Z</time>
      </trkpt>
      <trkpt lat="45.10637" lon="5.88713">
        <ele>1766.449</ele>
        <time>2021-01-10T14:49:53Z</time>
      </trkpt>
      <trkpt lat="45.10638" lon="5.88716">
        <ele>1764.883</ele>
        <time>2021-01-10T14:49:56Z</time>
      </trkpt>
      <trkpt lat="45.1064" lon="5.8872">
        <ele>1764.873</ele>
        <time>2021-01-10T14:49:59Z</time>
      </trkpt>
      <trkpt lat="45.1064" lon="5.88724">
        <ele>1764.169</ele>
        <time>2021-01-10T14:50:02Z</time>
      </trkpt>
      <trkpt lat="45.1064" lon="5.88731">
        <ele>1764.351</ele>
        <time>2021-01-10T14:50:05Z</time>
      </trkpt>
      <trkpt lat="45.10641" lon="5.88737">
        <ele>1765.956</ele>
        <time>2021-01-10T14:50:07Z</time>
      </trkpt>
      <trkpt lat="45.10643" lon="5.88741">
        <ele>1764.976</ele>
        <time>2021-01-10T14:50:10Z</time>
      </trkpt>
      <trkpt lat="45.10644" lon="5.88743">
        <ele>1764.667</ele>
        <time>2021-01-10T14:50:12Z</time>
      </trkpt>
      <trkpt lat="45.10644" lon="5.88747">
        <ele>1765.925</ele>
        <time>2021-01-10T14:50:15Z</time>
      </trkpt>
      <trkpt lat="45.10643" lon="5.88752">
        <ele>1766.537</ele>
        <time>2021-01-10T14:50:18Z</time>
      </trkpt>
      <trkpt lat="45.10639" lon="5.88756">
        <ele>1764.077</ele>
        <time>2021-01-10T14:50:21Z</time>
      </trkpt>
      <trkpt lat="45.10635" lon="5.88755">
        <ele>1767.53</ele>
        <time>2021-01-10T14:50:23Z</time>
      </trkpt>
      <trkpt lat="45.1063" lon="5.88756">
        <ele>1768.454</ele>
        <time>2021-01-10T14:50:26Z</time>
      </trkpt>
      <trkpt lat="45.10627" lon="5.88754">
        <ele>1770.55</ele>
        <time>2021-01-10T14:50:28Z</time>
      </trkpt>
      <trkpt lat="45.10625" lon="5.8875">
        <ele>1771.342</ele>
        <time>2021-01-10T14:50:31Z</time>
      </trkpt>
      <trkpt lat="45.10624" lon="5.88751">
        <ele>1771.342</ele>
        <time>2021-01-10T14:50:34Z</time>
      </trkpt>
      <trkpt lat="45.10624" lon="5.88755">
        <ele>1772.531</ele>
        <time>2021-01-10T14:50:39Z</time>
      </trkpt>
      <trkpt lat="45.10622" lon="5.88757">
        <ele>1773.441</ele>
        <time>2021-01-10T14:50:42Z</time>
      </trkpt>
      <trkpt lat="45.10621" lon="5.8876">
        <ele>1772.363</ele>
        <time>2021-01-10T14:50:45Z</time>
      </trkpt>
      <trkpt lat="45.10623" lon="5.88758">
        <ele>1768.031</ele>
        <time>2021-01-10T14:50:48Z</time>
      </trkpt>
      <trkpt lat="45.1062" lon="5.88757">
        <ele>1765.166</ele>
        <time>2021-01-10T14:50:51Z</time>
      </trkpt>
      <trkpt lat="45.10618" lon="5.88754">
        <ele>1761.448</ele>
        <time>2021-01-10T14:50:54Z</time>
      </trkpt>
      <trkpt lat="45.10617" lon="5.88753">
        <ele>1760.915</ele>
        <time>2021-01-10T14:50:56Z</time>
      </trkpt>
      <trkpt lat="45.10615" lon="5.88755">
        <ele>1762.183</ele>
        <time>2021-01-10T14:50:59Z</time>
      </trkpt>
      <trkpt lat="45.10613" lon="5.88758">
        <ele>1759.674</ele>
        <time>2021-01-10T14:51:02Z</time>
      </trkpt>
      <trkpt lat="45.10613" lon="5.88762">
        <ele>1759.474</ele>
        <time>2021-01-10T14:51:05Z</time>
      </trkpt>
      <trkpt lat="45.10614" lon="5.88767">
        <ele>1762.901</ele>
        <time>2021-01-10T14:51:08Z</time>
      </trkpt>
      <trkpt lat="45.10614" lon="5.88774">
        <ele>1766.934</ele>
        <time>2021-01-10T14:51:11Z</time>
      </trkpt>
      <trkpt lat="45.10614" lon="5.88776">
        <ele>1765.446</ele>
        <time>2021-01-10T14:51:13Z</time>
      </trkpt>
      <trkpt lat="45.10613" lon="5.8878">
        <ele>1763.448</ele>
        <time>2021-01-10T14:51:16Z</time>
      </trkpt>
      <trkpt lat="45.10613" lon="5.88781">
        <ele>1764.585</ele>
        <time>2021-01-10T14:51:18Z</time>
      </trkpt>
      <trkpt lat="45.10612" lon="5.88784">
        <ele>1763.632</ele>
        <time>2021-01-10T14:51:21Z</time>
      </trkpt>
      <trkpt lat="45.1061" lon="5.88787">
        <ele>1764.428</ele>
        <time>2021-01-10T14:51:24Z</time>
      </trkpt>
      <trkpt lat="45.10609" lon="5.88789">
        <ele>1765.35</ele>
        <time>2021-01-10T14:51:26Z</time>
      </trkpt>
      <trkpt lat="45.10607" lon="5.88794">
        <ele>1765.358</ele>
        <time>2021-01-10T14:51:29Z</time>
      </trkpt>
      <trkpt lat="45.10604" lon="5.88799">
        <ele>1766.252</ele>
        <time>2021-01-10T14:51:32Z</time>
      </trkpt>
      <trkpt lat="45.10603" lon="5.88803">
        <ele>1767.007</ele>
        <time>2021-01-10T14:51:34Z</time>
      </trkpt>
      <trkpt lat="45.10601" lon="5.88809">
        <ele>1765.655</ele>
        <time>2021-01-10T14:51:37Z</time>
      </trkpt>
      <trkpt lat="45.10599" lon="5.88812">
        <ele>1763.777</ele>
        <time>2021-01-10T14:51:40Z</time>
      </trkpt>
      <trkpt lat="45.10598" lon="5.88816">
        <ele>1763.473</ele>
        <time>2021-01-10T14:51:43Z</time>
      </trkpt>
      <trkpt lat="45.10595" lon="5.88821">
        <ele>1763.376</ele>
        <time>2021-01-10T14:51:46Z</time>
      </trkpt>
      <trkpt lat="45.10596" lon="5.88825">
        <ele>1763.377</ele>
        <time>2021-01-10T14:51:49Z</time>
      </trkpt>
      <trkpt lat="45.10597" lon="5.88829">
        <ele>1763.177</ele>
        <time>2021-01-10T14:51:51Z</time>
      </trkpt>
      <trkpt lat="45.10599" lon="5.88834">
        <ele>1759.967</ele>
        <time>2021-01-10T14:51:54Z</time>
      </trkpt>
      <trkpt lat="45.10601" lon="5.88837">
        <ele>1759.843</ele>
        <time>2021-01-10T14:51:57Z</time>
      </trkpt>
      <trkpt lat="45.10603" lon="5.88841">
        <ele>1760.209</ele>
        <time>2021-01-10T14:52:00Z</time>
      </trkpt>
      <trkpt lat="45.10604" lon="5.88843">
        <ele>1760.218</ele>
        <time>2021-01-10T14:52:02Z</time>
      </trkpt>
      <trkpt lat="45.10606" lon="5.88845">
        <ele>1761.474</ele>
        <time>2021-01-10T14:52:04Z</time>
      </trkpt>
      <trkpt lat="45.10607" lon="5.88847">
        <ele>1763.104</ele>
        <time>2021-01-10T14:52:07Z</time>
      </trkpt>
      <trkpt lat="45.10608" lon="5.88851">
        <ele>1761.553</ele>
        <time>2021-01-10T14:52:10Z</time>
      </trkpt>
      <trkpt lat="45.10611" lon="5.88852">
        <ele>1758.592</ele>
        <time>2021-01-10T14:52:13Z</time>
      </trkpt>
      <trkpt lat="45.10614" lon="5.88851">
        <ele>1755.661</ele>
        <time>2021-01-10T14:52:16Z</time>
      </trkpt>
      <trkpt lat="45.10616" lon="5.88851">
        <ele>1754.817</ele>
        <time>2021-01-10T14:52:19Z</time>
      </trkpt>
      <trkpt lat="45.10618" lon="5.88855">
        <ele>1754.375</ele>
        <time>2021-01-10T14:52:22Z</time>
      </trkpt>
      <trkpt lat="45.10618" lon="5.88858">
        <ele>1755.275</ele>
        <time>2021-01-10T14:52:25Z</time>
      </trkpt>
      <trkpt lat="45.1062" lon="5.88862">
        <ele>1756.043</ele>
        <time>2021-01-10T14:52:28Z</time>
      </trkpt>
      <trkpt lat="45.10622" lon="5.88865">
        <ele>1756.846</ele>
        <time>2021-01-10T14:52:30Z</time>
      </trkpt>
      <trkpt lat="45.10623" lon="5.88871">
        <ele>1756.556</ele>
        <time>2021-01-10T14:52:33Z</time>
      </trkpt>
      <trkpt lat="45.10625" lon="5.88876">
        <ele>1758.028</ele>
        <time>2021-01-10T14:52:36Z</time>
      </trkpt>
      <trkpt lat="45.10627" lon="5.88878">
        <ele>1760.052</ele>
        <time>2021-01-10T14:52:38Z</time>
      </trkpt>
      <trkpt lat="45.10628" lon="5.88881">
        <ele>1761.784</ele>
        <time>2021-01-10T14:52:40Z</time>
      </trkpt>
      <trkpt lat="45.1063" lon="5.88886">
        <ele>1764.126</ele>
        <time>2021-01-10T14:52:43Z</time>
      </trkpt>
      <trkpt lat="45.10631" lon="5.88891">
        <ele>1764.452</ele>
        <time>2021-01-10T14:52:45Z</time>
      </trkpt>
      <trkpt lat="45.10631" lon="5.88895">
        <ele>1763.565</ele>
        <time>2021-01-10T14:52:47Z</time>
      </trkpt>
      <trkpt lat="45.10632" lon="5.88897">
        <ele>1763.804</ele>
        <time>2021-01-10T14:52:50Z</time>
      </trkpt>
      <trkpt lat="45.10633" lon="5.88896">
        <ele>1762.981</ele>
        <time>2021-01-10T14:52:52Z</time>
      </trkpt>
      <trkpt lat="45.10633" lon="5.88898">
        <ele>1760.122</ele>
        <time>2021-01-10T14:52:55Z</time>
      </trkpt>
      <trkpt lat="45.10632" lon="5.88898">
        <ele>1761.259</ele>
        <time>2021-01-10T14:52:57Z</time>
      </trkpt>
      <trkpt lat="45.10631" lon="5.88898">
        <ele>1761.365</ele>
        <time>2021-01-10T14:53:00Z</time>
      </trkpt>
      <trkpt lat="45.10631" lon="5.88897">
        <ele>1762.177</ele>
        <time>2021-01-10T14:53:03Z</time>
      </trkpt>
      <trkpt lat="45.10631" lon="5.88896">
        <ele>1762.21</ele>
        <time>2021-01-10T14:53:06Z</time>
      </trkpt>
      <trkpt lat="45.10631" lon="5.88896">
        <ele>1762.441</ele>
        <time>2021-01-10T14:53:08Z</time>
      </trkpt>
      <trkpt lat="45.10631" lon="5.88896">
        <ele>1762.577</ele>
        <time>2021-01-10T14:53:10Z</time>
      </trkpt>
      <trkpt lat="45.10631" lon="5.88896">
        <ele>1762.313</ele>
        <time>2021-01-10T14:53:12Z</time>
      </trkpt>
      <trkpt lat="45.10631" lon="5.88896">
        <ele>1762.571</ele>
        <time>2021-01-10T14:53:14Z</time>
      </trkpt>
      <trkpt lat="45.10631" lon="5.88896">
        <ele>1762.772</ele>
        <time>2021-01-10T14:53:17Z</time>
      </trkpt>
      <trkpt lat="45.10631" lon="5.88896">
        <ele>1762.6</ele>
        <time>2021-01-10T14:53:19Z</time>
      </trkpt>
      <trkpt lat="45.10631" lon="5.88896">
        <ele>1762.715</ele>
        <time>2021-01-10T14:53:22Z</time>
      </trkpt>
      <trkpt lat="45.10631" lon="5.88896">
        <ele>1762.721</ele>
        <time>2021-01-10T14:53:25Z</time>
      </trkpt>
      <trkpt lat="45.10631" lon="5.88896">
        <ele>1762.712</ele>
        <time>2021-01-10T14:53:27Z</time>
      </trkpt>
      <trkpt lat="45.10631" lon="5.88896">
        <ele>1762.65</ele>
        <time>2021-01-10T14:53:30Z</time>
      </trkpt>
      <trkpt lat="45.10631" lon="5.88896">
        <ele>1762.653</ele>
        <time>2021-01-10T14:53:32Z</time>
      </trkpt>
      <trkpt lat="45.10631" lon="5.88896">
        <ele>1762.675</ele>
        <time>2021-01-10T14:53:34Z</time>
      </trkpt>
      <trkpt lat="45.10631" lon="5.88896">
        <ele>1762.677</ele>
        <time>2021-01-10T14:53:37Z</time>
      </trkpt>
      <trkpt lat="45.10631" lon="5.88896">
        <ele>1762.674</ele>
        <time>2021-01-10T14:53:39Z</time>
      </trkpt>
      <trkpt lat="45.10631" lon="5.88896">
        <ele>1762.661</ele>
        <time>2021-01-10T14:53:42Z</time>
      </trkpt>
      <trkpt lat="45.10631" lon="5.88896">
        <ele>1762.656</ele>
        <time>2021-01-10T14:53:44Z</time>
      </trkpt>
      <trkpt lat="45.10631" lon="5.88896">
        <ele>1762.661</ele>
        <time>2021-01-10T14:53:46Z</time>
      </trkpt>
      <trkpt lat="45.10631" lon="5.88896">
        <ele>1762.657</ele>
        <time>2021-01-10T14:53:49Z</time>
      </trkpt>
      <trkpt lat="45.10631" lon="5.88896">
        <ele>1762.667</ele>
        <time>2021-01-10T14:53:51Z</time>
      </trkpt>
      <trkpt lat="45.10631" lon="5.88896">
        <ele>1762.672</ele>
        <time>2021-01-10T14:53:53Z</time>
      </trkpt>
      <trkpt lat="45.10631" lon="5.88896">
        <ele>1762.68</ele>
        <time>2021-01-10T14:53:56Z</time>
      </trkpt>
      <trkpt lat="45.10631" lon="5.88896">
        <ele>1762.673</ele>
        <time>2021-01-10T14:53:59Z</time>
      </trkpt>
      <trkpt lat="45.10631" lon="5.88896">
        <ele>1762.678</ele>
        <time>2021-01-10T14:54:02Z</time>
      </trkpt>
      <trkpt lat="45.10631" lon="5.88896">
        <ele>1762.676</ele>
        <time>2021-01-10T14:54:04Z</time>
      </trkpt>
      <trkpt lat="45.10631" lon="5.88896">
        <ele>1762.686</ele>
        <time>2021-01-10T14:54:07Z</time>
      </trkpt>
      <trkpt lat="45.10631" lon="5.88896">
        <ele>1762.685</ele>
        <time>2021-01-10T14:54:10Z</time>
      </trkpt>
      <trkpt lat="45.10631" lon="5.88896">
        <ele>1762.687</ele>
        <time>2021-01-10T14:54:12Z</time>
      </trkpt>
      <trkpt lat="45.10631" lon="5.88896">
        <ele>1762.702</ele>
        <time>2021-01-10T14:54:15Z</time>
      </trkpt>
      <trkpt lat="45.10631" lon="5.88896">
        <ele>1762.704</ele>
        <time>2021-01-10T14:54:17Z</time>
      </trkpt>
      <trkpt lat="45.10631" lon="5.88896">
        <ele>1762.706</ele>
        <time>2021-01-10T14:54:19Z</time>
      </trkpt>
      <trkpt lat="45.10631" lon="5.88896">
        <ele>1762.701</ele>
        <time>2021-01-10T14:54:22Z</time>
      </trkpt>
      <trkpt lat="45.10631" lon="5.88896">
        <ele>1762.705</ele>
        <time>2021-01-10T14:54:25Z</time>
      </trkpt>
      <trkpt lat="45.10631" lon="5.88896">
        <ele>1762.77</ele>
        <time>2021-01-10T14:54:27Z</time>
      </trkpt>
      <trkpt lat="45.10631" lon="5.88896">
        <ele>1762.808</ele>
        <time>2021-01-10T14:54:29Z</time>
      </trkpt>
      <trkpt lat="45.10631" lon="5.88896">
        <ele>1762.724</ele>
        <time>2021-01-10T14:54:32Z</time>
      </trkpt>
      <trkpt lat="45.10631" lon="5.88896">
        <ele>1762.809</ele>
        <time>2021-01-10T14:54:34Z</time>
      </trkpt>
      <trkpt lat="45.10631" lon="5.88896">
        <ele>1762.828</ele>
        <time>2021-01-10T14:54:36Z</time>
      </trkpt>
      <trkpt lat="45.10631" lon="5.88896">
        <ele>1762.77</ele>
        <time>2021-01-10T14:54:39Z</time>
      </trkpt>
      <trkpt lat="45.10631" lon="5.88896">
        <ele>1762.773</ele>
        <time>2021-01-10T14:54:41Z</time>
      </trkpt>
      <trkpt lat="45.10631" lon="5.88896">
        <ele>1762.775</ele>
        <time>2021-01-10T14:54:44Z</time>
      </trkpt>
      <trkpt lat="45.10631" lon="5.88896">
        <ele>1762.778</ele>
        <time>2021-01-10T14:54:46Z</time>
      </trkpt>
      <trkpt lat="45.10631" lon="5.88896">
        <ele>1762.773</ele>
        <time>2021-01-10T14:54:49Z</time>
      </trkpt>
      <trkpt lat="45.10631" lon="5.88896">
        <ele>1762.767</ele>
        <time>2021-01-10T14:54:51Z</time>
      </trkpt>
      <trkpt lat="45.10631" lon="5.88896">
        <ele>1762.772</ele>
        <time>2021-01-10T14:54:54Z</time>
      </trkpt>
      <trkpt lat="45.10631" lon="5.88896">
        <ele>1762.737</ele>
        <time>2021-01-10T14:54:57Z</time>
      </trkpt>
      <trkpt lat="45.10631" lon="5.88896">
        <ele>1762.731</ele>
        <time>2021-01-10T14:55:00Z</time>
      </trkpt>
      <trkpt lat="45.10631" lon="5.88896">
        <ele>1762.73</ele>
        <time>2021-01-10T14:55:02Z</time>
      </trkpt>
      <trkpt lat="45.10631" lon="5.88897">
        <ele>1762.769</ele>
        <time>2021-01-10T14:55:05Z</time>
      </trkpt>
      <trkpt lat="45.10631" lon="5.88897">
        <ele>1762.714</ele>
        <time>2021-01-10T14:55:07Z</time>
      </trkpt>
      <trkpt lat="45.10631" lon="5.88897">
        <ele>1762.732</ele>
        <time>2021-01-10T14:55:10Z</time>
      </trkpt>
      <trkpt lat="45.10631" lon="5.88896">
        <ele>1762.609</ele>
        <time>2021-01-10T14:55:13Z</time>
      </trkpt>
      <trkpt lat="45.10631" lon="5.88896">
        <ele>1762.611</ele>
        <time>2021-01-10T14:55:15Z</time>
      </trkpt>
      <trkpt lat="45.10631" lon="5.88896">
        <ele>1762.607</ele>
        <time>2021-01-10T14:55:18Z</time>
      </trkpt>
      <trkpt lat="45.10631" lon="5.88896">
        <ele>1762.614</ele>
        <time>2021-01-10T14:55:21Z</time>
      </trkpt>
      <trkpt lat="45.10631" lon="5.88896">
        <ele>1762.621</ele>
        <time>2021-01-10T14:55:23Z</time>
      </trkpt>
      <trkpt lat="45.10631" lon="5.88896">
        <ele>1762.622</ele>
        <time>2021-01-10T14:55:26Z</time>
      </trkpt>
      <trkpt lat="45.10631" lon="5.88897">
        <ele>1762.614</ele>
        <time>2021-01-10T14:55:29Z</time>
      </trkpt>
      <trkpt lat="45.10631" lon="5.88897">
        <ele>1762.602</ele>
        <time>2021-01-10T14:55:31Z</time>
      </trkpt>
      <trkpt lat="45.10631" lon="5.88897">
        <ele>1762.602</ele>
        <time>2021-01-10T14:55:34Z</time>
      </trkpt>
      <trkpt lat="45.10633" lon="5.88899">
        <ele>1762.52</ele>
        <time>2021-01-10T14:55:36Z</time>
      </trkpt>
      <trkpt lat="45.10634" lon="5.88902">
        <ele>1761.994</ele>
        <time>2021-01-10T14:55:38Z</time>
      </trkpt>
      <trkpt lat="45.10636" lon="5.88904">
        <ele>1761.897</ele>
        <time>2021-01-10T14:55:41Z</time>
      </trkpt>
      <trkpt lat="45.10639" lon="5.88905">
        <ele>1760.668</ele>
        <time>2021-01-10T14:55:43Z</time>
      </trkpt>
      <trkpt lat="45.10643" lon="5.88907">
        <ele>1760.016</ele>
        <time>2021-01-10T14:55:46Z</time>
      </trkpt>
      <trkpt lat="45.10643" lon="5.88909">
        <ele>1760.602</ele>
        <time>2021-01-10T14:55:49Z</time>
      </trkpt>
      <trkpt lat="45.10645" lon="5.88911">
        <ele>1761.224</ele>
        <time>2021-01-10T14:55:51Z</time>
      </trkpt>
      <trkpt lat="45.10647" lon="5.88912">
        <ele>1758.977</ele>
        <time>2021-01-10T14:55:54Z</time>
      </trkpt>
      <trkpt lat="45.1065" lon="5.88913">
        <ele>1759.127</ele>
        <time>2021-01-10T14:55:57Z</time>
      </trkpt>
      <trkpt lat="45.10653" lon="5.88916">
        <ele>1759.876</ele>
        <time>2021-01-10T14:56:00Z</time>
      </trkpt>
      <trkpt lat="45.10656" lon="5.88917">
        <ele>1757.385</ele>
        <time>2021-01-10T14:56:02Z</time>
      </trkpt>
      <trkpt lat="45.10657" lon="5.88921">
        <ele>1758.375</ele>
        <time>2021-01-10T14:56:05Z</time>
      </trkpt>
      <trkpt lat="45.10656" lon="5.88924">
        <ele>1757.226</ele>
        <time>2021-01-10T14:56:07Z</time>
      </trkpt>
      <trkpt lat="45.10655" lon="5.88928">
        <ele>1760.069</ele>
        <time>2021-01-10T14:56:10Z</time>
      </trkpt>
      <trkpt lat="45.10654" lon="5.88932">
        <ele>1758.741</ele>
        <time>2021-01-10T14:56:13Z</time>
      </trkpt>
      <trkpt lat="45.10655" lon="5.88937">
        <ele>1758.142</ele>
        <time>2021-01-10T14:56:15Z</time>
      </trkpt>
      <trkpt lat="45.10655" lon="5.88941">
        <ele>1758.667</ele>
        <time>2021-01-10T14:56:18Z</time>
      </trkpt>
      <trkpt lat="45.10653" lon="5.88944">
        <ele>1754.152</ele>
        <time>2021-01-10T14:56:21Z</time>
      </trkpt>
      <trkpt lat="45.10653" lon="5.88947">
        <ele>1753.432</ele>
        <time>2021-01-10T14:56:23Z</time>
      </trkpt>
      <trkpt lat="45.10651" lon="5.8895">
        <ele>1751.902</ele>
        <time>2021-01-10T14:56:26Z</time>
      </trkpt>
      <trkpt lat="45.1065" lon="5.88952">
        <ele>1755.069</ele>
        <time>2021-01-10T14:56:29Z</time>
      </trkpt>
      <trkpt lat="45.10651" lon="5.88957">
        <ele>1753.958</ele>
        <time>2021-01-10T14:56:32Z</time>
      </trkpt>
      <trkpt lat="45.10651" lon="5.88958">
        <ele>1754.145</ele>
        <time>2021-01-10T14:56:34Z</time>
      </trkpt>
      <trkpt lat="45.10648" lon="5.88957">
        <ele>1756.638</ele>
        <time>2021-01-10T14:56:37Z</time>
      </trkpt>
      <trkpt lat="45.10649" lon="5.8896">
        <ele>1754.668</ele>
        <time>2021-01-10T14:56:39Z</time>
      </trkpt>
      <trkpt lat="45.10649" lon="5.88964">
        <ele>1755.523</ele>
        <time>2021-01-10T14:56:41Z</time>
      </trkpt>
      <trkpt lat="45.10648" lon="5.88968">
        <ele>1753.421</ele>
        <time>2021-01-10T14:56:44Z</time>
      </trkpt>
      <trkpt lat="45.10648" lon="5.88972">
        <ele>1754.119</ele>
        <time>2021-01-10T14:56:47Z</time>
      </trkpt>
      <trkpt lat="45.10644" lon="5.88976">
        <ele>1757.845</ele>
        <time>2021-01-10T14:56:50Z</time>
      </trkpt>
      <trkpt lat="45.10646" lon="5.88976">
        <ele>1758.34</ele>
        <time>2021-01-10T14:56:52Z</time>
      </trkpt>
      <trkpt lat="45.10647" lon="5.88977">
        <ele>1761.063</ele>
        <time>2021-01-10T14:56:55Z</time>
      </trkpt>
      <trkpt lat="45.10647" lon="5.88977">
        <ele>1761.949</ele>
        <time>2021-01-10T14:56:57Z</time>
      </trkpt>
      <trkpt lat="45.10647" lon="5.88979">
        <ele>1759.755</ele>
        <time>2021-01-10T14:57:00Z</time>
      </trkpt>
      <trkpt lat="45.10647" lon="5.88982">
        <ele>1760.752</ele>
        <time>2021-01-10T14:57:02Z</time>
      </trkpt>
      <trkpt lat="45.10646" lon="5.88986">
        <ele>1760.948</ele>
        <time>2021-01-10T14:57:05Z</time>
      </trkpt>
      <trkpt lat="45.10644" lon="5.88988">
        <ele>1759.645</ele>
        <time>2021-01-10T14:57:08Z</time>
      </trkpt>
      <trkpt lat="45.10643" lon="5.88992">
        <ele>1759.721</ele>
        <time>2021-01-10T14:57:11Z</time>
      </trkpt>
      <trkpt lat="45.10641" lon="5.88996">
        <ele>1757.11</ele>
        <time>2021-01-10T14:57:14Z</time>
      </trkpt>
      <trkpt lat="45.1064" lon="5.88999">
        <ele>1759.264</ele>
        <time>2021-01-10T14:57:17Z</time>
      </trkpt>
      <trkpt lat="45.10639" lon="5.89">
        <ele>1758.987</ele>
        <time>2021-01-10T14:57:19Z</time>
      </trkpt>
      <trkpt lat="45.10642" lon="5.89">
        <ele>1759.539</ele>
        <time>2021-01-10T14:57:22Z</time>
      </trkpt>
      <trkpt lat="45.10644" lon="5.89001">
        <ele>1760.523</ele>
        <time>2021-01-10T14:57:25Z</time>
      </trkpt>
      <trkpt lat="45.10646" lon="5.89008">
        <ele>1760.573</ele>
        <time>2021-01-10T14:57:28Z</time>
      </trkpt>
      <trkpt lat="45.10647" lon="5.8901">
        <ele>1760.131</ele>
        <time>2021-01-10T14:57:30Z</time>
      </trkpt>
      <trkpt lat="45.10649" lon="5.89017">
        <ele>1759.096</ele>
        <time>2021-01-10T14:57:33Z</time>
      </trkpt>
      <trkpt lat="45.10651" lon="5.89022">
        <ele>1763.14</ele>
        <time>2021-01-10T14:57:35Z</time>
      </trkpt>
      <trkpt lat="45.10655" lon="5.89026">
        <ele>1761.943</ele>
        <time>2021-01-10T14:57:38Z</time>
      </trkpt>
      <trkpt lat="45.10656" lon="5.89028">
        <ele>1757.612</ele>
        <time>2021-01-10T14:57:40Z</time>
      </trkpt>
      <trkpt lat="45.10657" lon="5.8903">
        <ele>1758.22</ele>
        <time>2021-01-10T14:57:42Z</time>
      </trkpt>
      <trkpt lat="45.1066" lon="5.89033">
        <ele>1758.771</ele>
        <time>2021-01-10T14:57:45Z</time>
      </trkpt>
      <trkpt lat="45.1066" lon="5.89038">
        <ele>1756.968</ele>
        <time>2021-01-10T14:57:48Z</time>
      </trkpt>
      <trkpt lat="45.1066" lon="5.89043">
        <ele>1757.999</ele>
        <time>2021-01-10T14:57:51Z</time>
      </trkpt>
      <trkpt lat="45.1066" lon="5.89048">
        <ele>1757.801</ele>
        <time>2021-01-10T14:57:54Z</time>
      </trkpt>
      <trkpt lat="45.1066" lon="5.89052">
        <ele>1758.511</ele>
        <time>2021-01-10T14:57:56Z</time>
      </trkpt>
      <trkpt lat="45.1066" lon="5.89054">
        <ele>1758.478</ele>
        <time>2021-01-10T14:57:58Z</time>
      </trkpt>
      <trkpt lat="45.1066" lon="5.89059">
        <ele>1765.148</ele>
        <time>2021-01-10T14:58:01Z</time>
      </trkpt>
      <trkpt lat="45.1066" lon="5.89065">
        <ele>1764.548</ele>
        <time>2021-01-10T14:58:04Z</time>
      </trkpt>
      <trkpt lat="45.10658" lon="5.89069">
        <ele>1766.737</ele>
        <time>2021-01-10T14:58:07Z</time>
      </trkpt>
      <trkpt lat="45.10657" lon="5.89073">
        <ele>1767.302</ele>
        <time>2021-01-10T14:58:09Z</time>
      </trkpt>
      <trkpt lat="45.10657" lon="5.89079">
        <ele>1770.545</ele>
        <time>2021-01-10T14:58:12Z</time>
      </trkpt>
      <trkpt lat="45.10657" lon="5.89083">
        <ele>1771.83</ele>
        <time>2021-01-10T14:58:15Z</time>
      </trkpt>
      <trkpt lat="45.10654" lon="5.8909">
        <ele>1772.215</ele>
        <time>2021-01-10T14:58:18Z</time>
      </trkpt>
      <trkpt lat="45.10651" lon="5.89097">
        <ele>1770.036</ele>
        <time>2021-01-10T14:58:21Z</time>
      </trkpt>
      <trkpt lat="45.1065" lon="5.89101">
        <ele>1769.442</ele>
        <time>2021-01-10T14:58:24Z</time>
      </trkpt>
      <trkpt lat="45.10651" lon="5.89104">
        <ele>1767.22</ele>
        <time>2021-01-10T14:58:27Z</time>
      </trkpt>
      <trkpt lat="45.10652" lon="5.89109">
        <ele>1767.226</ele>
        <time>2021-01-10T14:58:30Z</time>
      </trkpt>
      <trkpt lat="45.10654" lon="5.89114">
        <ele>1766.131</ele>
        <time>2021-01-10T14:58:33Z</time>
      </trkpt>
      <trkpt lat="45.10656" lon="5.8912">
        <ele>1765.739</ele>
        <time>2021-01-10T14:58:36Z</time>
      </trkpt>
      <trkpt lat="45.10659" lon="5.89122">
        <ele>1763.978</ele>
        <time>2021-01-10T14:58:39Z</time>
      </trkpt>
      <trkpt lat="45.10663" lon="5.89123">
        <ele>1765.024</ele>
        <time>2021-01-10T14:58:41Z</time>
      </trkpt>
      <trkpt lat="45.10667" lon="5.89123">
        <ele>1763.239</ele>
        <time>2021-01-10T14:58:45Z</time>
      </trkpt>
      <trkpt lat="45.1067" lon="5.89127">
        <ele>1764.351</ele>
        <time>2021-01-10T14:58:48Z</time>
      </trkpt>
      <trkpt lat="45.10671" lon="5.8913">
        <ele>1766.018</ele>
        <time>2021-01-10T14:58:50Z</time>
      </trkpt>
      <trkpt lat="45.10672" lon="5.89134">
        <ele>1763.9</ele>
        <time>2021-01-10T14:58:52Z</time>
      </trkpt>
      <trkpt lat="45.10672" lon="5.89141">
        <ele>1761.426</ele>
        <time>2021-01-10T14:58:55Z</time>
      </trkpt>
      <trkpt lat="45.10673" lon="5.89146">
        <ele>1760.853</ele>
        <time>2021-01-10T14:58:58Z</time>
      </trkpt>
      <trkpt lat="45.10674" lon="5.8915">
        <ele>1762.624</ele>
        <time>2021-01-10T14:59:01Z</time>
      </trkpt>
      <trkpt lat="45.10669" lon="5.89157">
        <ele>1760.616</ele>
        <time>2021-01-10T14:59:04Z</time>
      </trkpt>
      <trkpt lat="45.10665" lon="5.89164">
        <ele>1760.575</ele>
        <time>2021-01-10T14:59:07Z</time>
      </trkpt>
      <trkpt lat="45.10662" lon="5.89167">
        <ele>1761.666</ele>
        <time>2021-01-10T14:59:09Z</time>
      </trkpt>
      <trkpt lat="45.10658" lon="5.8917">
        <ele>1763.025</ele>
        <time>2021-01-10T14:59:11Z</time>
      </trkpt>
      <trkpt lat="45.10654" lon="5.89174">
        <ele>1763.908</ele>
        <time>2021-01-10T14:59:14Z</time>
      </trkpt>
      <trkpt lat="45.10652" lon="5.89175">
        <ele>1766.41</ele>
        <time>2021-01-10T14:59:16Z</time>
      </trkpt>
      <trkpt lat="45.10652" lon="5.89176">
        <ele>1767.219</ele>
        <time>2021-01-10T14:59:18Z</time>
      </trkpt>
      <trkpt lat="45.10652" lon="5.89181">
        <ele>1769.052</ele>
        <time>2021-01-10T14:59:21Z</time>
      </trkpt>
      <trkpt lat="45.10652" lon="5.89185">
        <ele>1770.174</ele>
        <time>2021-01-10T14:59:24Z</time>
      </trkpt>
      <trkpt lat="45.10652" lon="5.89189">
        <ele>1768.8</ele>
        <time>2021-01-10T14:59:27Z</time>
      </trkpt>
      <trkpt lat="45.10651" lon="5.89192">
        <ele>1770.248</ele>
        <time>2021-01-10T14:59:29Z</time>
      </trkpt>
      <trkpt lat="45.1065" lon="5.89195">
        <ele>1768.056</ele>
        <time>2021-01-10T14:59:32Z</time>
      </trkpt>
      <trkpt lat="45.10648" lon="5.89198">
        <ele>1768.154</ele>
        <time>2021-01-10T14:59:35Z</time>
      </trkpt>
      <trkpt lat="45.10647" lon="5.89201">
        <ele>1767.473</ele>
        <time>2021-01-10T14:59:38Z</time>
      </trkpt>
      <trkpt lat="45.10646" lon="5.89203">
        <ele>1767.356</ele>
        <time>2021-01-10T14:59:40Z</time>
      </trkpt>
      <trkpt lat="45.10648" lon="5.89205">
        <ele>1768.589</ele>
        <time>2021-01-10T14:59:43Z</time>
      </trkpt>
      <trkpt lat="45.10645" lon="5.89206">
        <ele>1768.738</ele>
        <time>2021-01-10T14:59:46Z</time>
      </trkpt>
      <trkpt lat="45.10645" lon="5.89207">
        <ele>1768.679</ele>
        <time>2021-01-10T14:59:48Z</time>
      </trkpt>
      <trkpt lat="45.10644" lon="5.89206">
        <ele>1768.268</ele>
        <time>2021-01-10T14:59:51Z</time>
      </trkpt>
      <trkpt lat="45.1064" lon="5.8921">
        <ele>1767.231</ele>
        <time>2021-01-10T14:59:54Z</time>
      </trkpt>
      <trkpt lat="45.10636" lon="5.89211">
        <ele>1765.557</ele>
        <time>2021-01-10T14:59:57Z</time>
      </trkpt>
      <trkpt lat="45.10634" lon="5.89212">
        <ele>1766.013</ele>
        <time>2021-01-10T14:59:59Z</time>
      </trkpt>
      <trkpt lat="45.1063" lon="5.89216">
        <ele>1766.919</ele>
        <time>2021-01-10T15:00:02Z</time>
      </trkpt>
      <trkpt lat="45.10626" lon="5.89217">
        <ele>1767.44</ele>
        <time>2021-01-10T15:00:04Z</time>
      </trkpt>
      <trkpt lat="45.10622" lon="5.89216">
        <ele>1767.191</ele>
        <time>2021-01-10T15:00:07Z</time>
      </trkpt>
      <trkpt lat="45.10618" lon="5.89214">
        <ele>1766.105</ele>
        <time>2021-01-10T15:00:09Z</time>
      </trkpt>
      <trkpt lat="45.10614" lon="5.89214">
        <ele>1765.52</ele>
        <time>2021-01-10T15:00:12Z</time>
      </trkpt>
      <trkpt lat="45.1061" lon="5.89215">
        <ele>1767.849</ele>
        <time>2021-01-10T15:00:14Z</time>
      </trkpt>
      <trkpt lat="45.10608" lon="5.89215">
        <ele>1767.397</ele>
        <time>2021-01-10T15:00:16Z</time>
      </trkpt>
      <trkpt lat="45.10606" lon="5.89216">
        <ele>1766.772</ele>
        <time>2021-01-10T15:00:18Z</time>
      </trkpt>
      <trkpt lat="45.10601" lon="5.89218">
        <ele>1767.236</ele>
        <time>2021-01-10T15:00:21Z</time>
      </trkpt>
      <trkpt lat="45.106" lon="5.8922">
        <ele>1766.513</ele>
        <time>2021-01-10T15:00:23Z</time>
      </trkpt>
      <trkpt lat="45.10598" lon="5.8922">
        <ele>1765.933</ele>
        <time>2021-01-10T15:00:26Z</time>
      </trkpt>
      <trkpt lat="45.10597" lon="5.89221">
        <ele>1765.191</ele>
        <time>2021-01-10T15:00:28Z</time>
      </trkpt>
      <trkpt lat="45.10595" lon="5.89225">
        <ele>1767.901</ele>
        <time>2021-01-10T15:00:31Z</time>
      </trkpt>
      <trkpt lat="45.10593" lon="5.89229">
        <ele>1767.204</ele>
        <time>2021-01-10T15:00:34Z</time>
      </trkpt>
      <trkpt lat="45.10592" lon="5.89232">
        <ele>1766.871</ele>
        <time>2021-01-10T15:00:37Z</time>
      </trkpt>
      <trkpt lat="45.10591" lon="5.89234">
        <ele>1765.568</ele>
        <time>2021-01-10T15:00:39Z</time>
      </trkpt>
      <trkpt lat="45.10591" lon="5.89238">
        <ele>1764.562</ele>
        <time>2021-01-10T15:00:42Z</time>
      </trkpt>
      <trkpt lat="45.10591" lon="5.89242">
        <ele>1765.315</ele>
        <time>2021-01-10T15:00:45Z</time>
      </trkpt>
      <trkpt lat="45.10592" lon="5.89246">
        <ele>1766.086</ele>
        <time>2021-01-10T15:00:48Z</time>
      </trkpt>
      <trkpt lat="45.10591" lon="5.8925">
        <ele>1768.351</ele>
        <time>2021-01-10T15:00:51Z</time>
      </trkpt>
      <trkpt lat="45.10591" lon="5.89253">
        <ele>1768.119</ele>
        <time>2021-01-10T15:00:53Z</time>
      </trkpt>
      <trkpt lat="45.10588" lon="5.89256">
        <ele>1770.011</ele>
        <time>2021-01-10T15:00:56Z</time>
      </trkpt>
      <trkpt lat="45.10587" lon="5.89256">
        <ele>1769.329</ele>
        <time>2021-01-10T15:00:58Z</time>
      </trkpt>
      <trkpt lat="45.10585" lon="5.89255">
        <ele>1769.417</ele>
        <time>2021-01-10T15:01:00Z</time>
      </trkpt>
      <trkpt lat="45.10584" lon="5.89255">
        <ele>1769.948</ele>
        <time>2021-01-10T15:01:02Z</time>
      </trkpt>
      <trkpt lat="45.10585" lon="5.89258">
        <ele>1769.104</ele>
        <time>2021-01-10T15:01:05Z</time>
      </trkpt>
      <trkpt lat="45.10587" lon="5.89262">
        <ele>1769.171</ele>
        <time>2021-01-10T15:01:08Z</time>
      </trkpt>
      <trkpt lat="45.10586" lon="5.89269">
        <ele>1766.636</ele>
        <time>2021-01-10T15:01:11Z</time>
      </trkpt>
      <trkpt lat="45.10584" lon="5.89276">
        <ele>1769.307</ele>
        <time>2021-01-10T15:01:14Z</time>
      </trkpt>
      <trkpt lat="45.10581" lon="5.89282">
        <ele>1771.724</ele>
        <time>2021-01-10T15:01:17Z</time>
      </trkpt>
      <trkpt lat="45.1058" lon="5.89285">
        <ele>1772.674</ele>
        <time>2021-01-10T15:01:19Z</time>
      </trkpt>
      <trkpt lat="45.10577" lon="5.89287">
        <ele>1772.836</ele>
        <time>2021-01-10T15:01:22Z</time>
      </trkpt>
      <trkpt lat="45.10573" lon="5.89292">
        <ele>1774.161</ele>
        <time>2021-01-10T15:01:25Z</time>
      </trkpt>
      <trkpt lat="45.10572" lon="5.89299">
        <ele>1773.463</ele>
        <time>2021-01-10T15:01:28Z</time>
      </trkpt>
      <trkpt lat="45.10572" lon="5.89303">
        <ele>1773.225</ele>
        <time>2021-01-10T15:01:31Z</time>
      </trkpt>
      <trkpt lat="45.10568" lon="5.89307">
        <ele>1773.909</ele>
        <time>2021-01-10T15:01:34Z</time>
      </trkpt>
      <trkpt lat="45.10561" lon="5.89313">
        <ele>1771.665</ele>
        <time>2021-01-10T15:01:37Z</time>
      </trkpt>
      <trkpt lat="45.1056" lon="5.89314">
        <ele>1773.861</ele>
        <time>2021-01-10T15:01:40Z</time>
      </trkpt>
      <trkpt lat="45.10557" lon="5.89318">
        <ele>1771.827</ele>
        <time>2021-01-10T15:01:43Z</time>
      </trkpt>
      <trkpt lat="45.10551" lon="5.89326">
        <ele>1773.323</ele>
        <time>2021-01-10T15:01:46Z</time>
      </trkpt>
      <trkpt lat="45.10548" lon="5.8933">
        <ele>1772.18</ele>
        <time>2021-01-10T15:01:49Z</time>
      </trkpt>
      <trkpt lat="45.10548" lon="5.89333">
        <ele>1772.63</ele>
        <time>2021-01-10T15:01:52Z</time>
      </trkpt>
      <trkpt lat="45.10549" lon="5.89337">
        <ele>1777.953</ele>
        <time>2021-01-10T15:01:55Z</time>
      </trkpt>
      <trkpt lat="45.1055" lon="5.89337">
        <ele>1775.39</ele>
        <time>2021-01-10T15:01:57Z</time>
      </trkpt>
      <trkpt lat="45.10551" lon="5.89336">
        <ele>1768.79</ele>
        <time>2021-01-10T15:02:00Z</time>
      </trkpt>
      <trkpt lat="45.1055" lon="5.89336">
        <ele>1767.748</ele>
        <time>2021-01-10T15:02:03Z</time>
      </trkpt>
      <trkpt lat="45.10548" lon="5.89336">
        <ele>1769.976</ele>
        <time>2021-01-10T15:02:05Z</time>
      </trkpt>
      <trkpt lat="45.10547" lon="5.89336">
        <ele>1769.723</ele>
        <time>2021-01-10T15:02:09Z</time>
      </trkpt>
      <trkpt lat="45.10544" lon="5.89342">
        <ele>1767.493</ele>
        <time>2021-01-10T15:02:12Z</time>
      </trkpt>
      <trkpt lat="45.10541" lon="5.89346">
        <ele>1767.597</ele>
        <time>2021-01-10T15:02:15Z</time>
      </trkpt>
      <trkpt lat="45.10534" lon="5.89342">
        <ele>1770.335</ele>
        <time>2021-01-10T15:02:18Z</time>
      </trkpt>
      <trkpt lat="45.10527" lon="5.89336">
        <ele>1771.64</ele>
        <time>2021-01-10T15:02:20Z</time>
      </trkpt>
      <trkpt lat="45.10525" lon="5.89336">
        <ele>1770.937</ele>
        <time>2021-01-10T15:02:23Z</time>
      </trkpt>
      <trkpt lat="45.10524" lon="5.89338">
        <ele>1765.956</ele>
        <time>2021-01-10T15:02:26Z</time>
      </trkpt>
      <trkpt lat="45.10524" lon="5.8934">
        <ele>1766.464</ele>
        <time>2021-01-10T15:02:28Z</time>
      </trkpt>
      <trkpt lat="45.10525" lon="5.89345">
        <ele>1766.148</ele>
        <time>2021-01-10T15:02:31Z</time>
      </trkpt>
      <trkpt lat="45.10523" lon="5.89347">
        <ele>1764.216</ele>
        <time>2021-01-10T15:02:34Z</time>
      </trkpt>
      <trkpt lat="45.10522" lon="5.89349">
        <ele>1765.597</ele>
        <time>2021-01-10T15:02:37Z</time>
      </trkpt>
      <trkpt lat="45.10522" lon="5.89352">
        <ele>1765.357</ele>
        <time>2021-01-10T15:02:39Z</time>
      </trkpt>
      <trkpt lat="45.10521" lon="5.89354">
        <ele>1766.936</ele>
        <time>2021-01-10T15:02:41Z</time>
      </trkpt>
      <trkpt lat="45.10521" lon="5.89355">
        <ele>1766.198</ele>
        <time>2021-01-10T15:02:43Z</time>
      </trkpt>
      <trkpt lat="45.10524" lon="5.89358">
        <ele>1766.854</ele>
        <time>2021-01-10T15:02:46Z</time>
      </trkpt>
      <trkpt lat="45.10527" lon="5.8936">
        <ele>1766.876</ele>
        <time>2021-01-10T15:02:48Z</time>
      </trkpt>
      <trkpt lat="45.10528" lon="5.89363">
        <ele>1770.485</ele>
        <time>2021-01-10T15:02:50Z</time>
      </trkpt>
      <trkpt lat="45.10527" lon="5.89365">
        <ele>1772.017</ele>
        <time>2021-01-10T15:02:53Z</time>
      </trkpt>
      <trkpt lat="45.10527" lon="5.89366">
        <ele>1772.427</ele>
        <time>2021-01-10T15:02:58Z</time>
      </trkpt>
      <trkpt lat="45.10527" lon="5.89369">
        <ele>1772.349</ele>
        <time>2021-01-10T15:03:00Z</time>
      </trkpt>
      <trkpt lat="45.10527" lon="5.89368">
        <ele>1773.048</ele>
        <time>2021-01-10T15:03:02Z</time>
      </trkpt>
      <trkpt lat="45.10529" lon="5.89368">
        <ele>1774.276</ele>
        <time>2021-01-10T15:03:05Z</time>
      </trkpt>
      <trkpt lat="45.10533" lon="5.89369">
        <ele>1772.675</ele>
        <time>2021-01-10T15:03:08Z</time>
      </trkpt>
      <trkpt lat="45.10534" lon="5.89369">
        <ele>1772.613</ele>
        <time>2021-01-10T15:03:10Z</time>
      </trkpt>
      <trkpt lat="45.10537" lon="5.89369">
        <ele>1773.214</ele>
        <time>2021-01-10T15:03:13Z</time>
      </trkpt>
      <trkpt lat="45.10538" lon="5.89371">
        <ele>1773.174</ele>
        <time>2021-01-10T15:03:15Z</time>
      </trkpt>
      <trkpt lat="45.1054" lon="5.89374">
        <ele>1772.535</ele>
        <time>2021-01-10T15:03:18Z</time>
      </trkpt>
      <trkpt lat="45.10541" lon="5.89375">
        <ele>1772.855</ele>
        <time>2021-01-10T15:03:20Z</time>
      </trkpt>
      <trkpt lat="45.10543" lon="5.89374">
        <ele>1772.304</ele>
        <time>2021-01-10T15:03:22Z</time>
      </trkpt>
      <trkpt lat="45.10545" lon="5.89373">
        <ele>1771.147</ele>
        <time>2021-01-10T15:03:24Z</time>
      </trkpt>
      <trkpt lat="45.10546" lon="5.89375">
        <ele>1771.073</ele>
        <time>2021-01-10T15:03:26Z</time>
      </trkpt>
      <trkpt lat="45.10546" lon="5.8938">
        <ele>1772.597</ele>
        <time>2021-01-10T15:03:29Z</time>
      </trkpt>
      <trkpt lat="45.10546" lon="5.89383">
        <ele>1770.918</ele>
        <time>2021-01-10T15:03:32Z</time>
      </trkpt>
      <trkpt lat="45.10547" lon="5.89383">
        <ele>1770.992</ele>
        <time>2021-01-10T15:03:34Z</time>
      </trkpt>
      <trkpt lat="45.10547" lon="5.89386">
        <ele>1771.741</ele>
        <time>2021-01-10T15:03:36Z</time>
      </trkpt>
      <trkpt lat="45.10549" lon="5.89387">
        <ele>1772.962</ele>
        <time>2021-01-10T15:03:39Z</time>
      </trkpt>
      <trkpt lat="45.1055" lon="5.89389">
        <ele>1773.909</ele>
        <time>2021-01-10T15:03:41Z</time>
      </trkpt>
      <trkpt lat="45.10552" lon="5.89392">
        <ele>1775.136</ele>
        <time>2021-01-10T15:03:44Z</time>
      </trkpt>
      <trkpt lat="45.10553" lon="5.89394">
        <ele>1773.413</ele>
        <time>2021-01-10T15:03:46Z</time>
      </trkpt>
      <trkpt lat="45.10554" lon="5.89394">
        <ele>1774.354</ele>
        <time>2021-01-10T15:03:48Z</time>
      </trkpt>
      <trkpt lat="45.10555" lon="5.89394">
        <ele>1778.921</ele>
        <time>2021-01-10T15:03:51Z</time>
      </trkpt>
      <trkpt lat="45.10556" lon="5.89393">
        <ele>1782.495</ele>
        <time>2021-01-10T15:03:53Z</time>
      </trkpt>
      <trkpt lat="45.10557" lon="5.89394">
        <ele>1784.42</ele>
        <time>2021-01-10T15:03:56Z</time>
      </trkpt>
      <trkpt lat="45.10559" lon="5.89395">
        <ele>1786.246</ele>
        <time>2021-01-10T15:03:59Z</time>
      </trkpt>
      <trkpt lat="45.1056" lon="5.89394">
        <ele>1785.06</ele>
        <time>2021-01-10T15:04:01Z</time>
      </trkpt>
      <trkpt lat="45.1056" lon="5.89394">
        <ele>1787.066</ele>
        <time>2021-01-10T15:04:03Z</time>
      </trkpt>
      <trkpt lat="45.1056" lon="5.89398">
        <ele>1786.656</ele>
        <time>2021-01-10T15:04:06Z</time>
      </trkpt>
      <trkpt lat="45.1056" lon="5.89399">
        <ele>1786.592</ele>
        <time>2021-01-10T15:04:09Z</time>
      </trkpt>
      <trkpt lat="45.10561" lon="5.89399">
        <ele>1786.791</ele>
        <time>2021-01-10T15:04:11Z</time>
      </trkpt>
      <trkpt lat="45.10561" lon="5.89399">
        <ele>1786.59</ele>
        <time>2021-01-10T15:04:14Z</time>
      </trkpt>
      <trkpt lat="45.10561" lon="5.89399">
        <ele>1786.199</ele>
        <time>2021-01-10T15:04:16Z</time>
      </trkpt>
      <trkpt lat="45.10561" lon="5.89399">
        <ele>1786.399</ele>
        <time>2021-01-10T15:04:19Z</time>
      </trkpt>
      <trkpt lat="45.10561" lon="5.89399">
        <ele>1786.193</ele>
        <time>2021-01-10T15:04:21Z</time>
      </trkpt>
      <trkpt lat="45.1056" lon="5.89399">
        <ele>1786.165</ele>
        <time>2021-01-10T15:04:24Z</time>
      </trkpt>
      <trkpt lat="45.1056" lon="5.89399">
        <ele>1786.167</ele>
        <time>2021-01-10T15:04:26Z</time>
      </trkpt>
      <trkpt lat="45.1056" lon="5.89399">
        <ele>1786.173</ele>
        <time>2021-01-10T15:04:29Z</time>
      </trkpt>
      <trkpt lat="45.1056" lon="5.89399">
        <ele>1786.161</ele>
        <time>2021-01-10T15:04:32Z</time>
      </trkpt>
      <trkpt lat="45.1056" lon="5.89399">
        <ele>1786.16</ele>
        <time>2021-01-10T15:04:34Z</time>
      </trkpt>
      <trkpt lat="45.1056" lon="5.89399">
        <ele>1786.144</ele>
        <time>2021-01-10T15:04:37Z</time>
      </trkpt>
      <trkpt lat="45.1056" lon="5.89399">
        <ele>1786.141</ele>
        <time>2021-01-10T15:04:39Z</time>
      </trkpt>
      <trkpt lat="45.1056" lon="5.89399">
        <ele>1786.179</ele>
        <time>2021-01-10T15:04:42Z</time>
      </trkpt>
      <trkpt lat="45.1056" lon="5.89399">
        <ele>1786.637</ele>
        <time>2021-01-10T15:04:44Z</time>
      </trkpt>
      <trkpt lat="45.1056" lon="5.89399">
        <ele>1786.742</ele>
        <time>2021-01-10T15:04:47Z</time>
      </trkpt>
      <trkpt lat="45.1056" lon="5.89399">
        <ele>1786.742</ele>
        <time>2021-01-10T15:04:49Z</time>
      </trkpt>
      <trkpt lat="45.1056" lon="5.89399">
        <ele>1786.675</ele>
        <time>2021-01-10T15:04:52Z</time>
      </trkpt>
      <trkpt lat="45.1056" lon="5.89399">
        <ele>1786.706</ele>
        <time>2021-01-10T15:04:54Z</time>
      </trkpt>
      <trkpt lat="45.1056" lon="5.89399">
        <ele>1786.719</ele>
        <time>2021-01-10T15:04:56Z</time>
      </trkpt>
      <trkpt lat="45.1056" lon="5.89399">
        <ele>1786.724</ele>
        <time>2021-01-10T15:04:59Z</time>
      </trkpt>
      <trkpt lat="45.1056" lon="5.89399">
        <ele>1786.733</ele>
        <time>2021-01-10T15:05:01Z</time>
      </trkpt>
      <trkpt lat="45.1056" lon="5.89399">
        <ele>1786.742</ele>
        <time>2021-01-10T15:05:03Z</time>
      </trkpt>
      <trkpt lat="45.1056" lon="5.89398">
        <ele>1786.861</ele>
        <time>2021-01-10T15:05:06Z</time>
      </trkpt>
      <trkpt lat="45.1056" lon="5.89398">
        <ele>1786.95</ele>
        <time>2021-01-10T15:05:08Z</time>
      </trkpt>
      <trkpt lat="45.1056" lon="5.89398">
        <ele>1786.963</ele>
        <time>2021-01-10T15:05:11Z</time>
      </trkpt>
      <trkpt lat="45.1056" lon="5.89398">
        <ele>1786.992</ele>
        <time>2021-01-10T15:05:14Z</time>
      </trkpt>
      <trkpt lat="45.1056" lon="5.89398">
        <ele>1786.992</ele>
        <time>2021-01-10T15:05:16Z</time>
      </trkpt>
      <trkpt lat="45.1056" lon="5.89398">
        <ele>1786.988</ele>
        <time>2021-01-10T15:05:19Z</time>
      </trkpt>
      <trkpt lat="45.1056" lon="5.89398">
        <ele>1786.987</ele>
        <time>2021-01-10T15:05:22Z</time>
      </trkpt>
      <trkpt lat="45.1056" lon="5.89398">
        <ele>1786.986</ele>
        <time>2021-01-10T15:05:25Z</time>
      </trkpt>
      <trkpt lat="45.1056" lon="5.89398">
        <ele>1787.002</ele>
        <time>2021-01-10T15:05:28Z</time>
      </trkpt>
      <trkpt lat="45.1056" lon="5.89398">
        <ele>1788.401</ele>
        <time>2021-01-10T15:05:31Z</time>
      </trkpt>
      <trkpt lat="45.1056" lon="5.89398">
        <ele>1787.363</ele>
        <time>2021-01-10T15:05:34Z</time>
      </trkpt>
      <trkpt lat="45.1056" lon="5.89399">
        <ele>1787.043</ele>
        <time>2021-01-10T15:05:37Z</time>
      </trkpt>
      <trkpt lat="45.10559" lon="5.894">
        <ele>1786.491</ele>
        <time>2021-01-10T15:05:40Z</time>
      </trkpt>
      <trkpt lat="45.10559" lon="5.89401">
        <ele>1786.58</ele>
        <time>2021-01-10T15:05:43Z</time>
      </trkpt>
      <trkpt lat="45.10559" lon="5.894">
        <ele>1788.609</ele>
        <time>2021-01-10T15:05:45Z</time>
      </trkpt>
      <trkpt lat="45.10558" lon="5.894">
        <ele>1788.676</ele>
        <time>2021-01-10T15:05:48Z</time>
      </trkpt>
      <trkpt lat="45.10558" lon="5.894">
        <ele>1788.726</ele>
        <time>2021-01-10T15:05:50Z</time>
      </trkpt>
      <trkpt lat="45.10558" lon="5.894">
        <ele>1788.394</ele>
        <time>2021-01-10T15:05:52Z</time>
      </trkpt>
      <trkpt lat="45.10558" lon="5.894">
        <ele>1788.464</ele>
        <time>2021-01-10T15:05:55Z</time>
      </trkpt>
      <trkpt lat="45.10559" lon="5.894">
        <ele>1788.043</ele>
        <time>2021-01-10T15:05:58Z</time>
      </trkpt>
      <trkpt lat="45.10559" lon="5.894">
        <ele>1787.975</ele>
        <time>2021-01-10T15:06:00Z</time>
      </trkpt>
      <trkpt lat="45.10559" lon="5.894">
        <ele>1787.959</ele>
        <time>2021-01-10T15:06:02Z</time>
      </trkpt>
      <trkpt lat="45.10559" lon="5.89401">
        <ele>1787.941</ele>
        <time>2021-01-10T15:06:05Z</time>
      </trkpt>
      <trkpt lat="45.10559" lon="5.89401">
        <ele>1787.941</ele>
        <time>2021-01-10T15:06:08Z</time>
      </trkpt>
      <trkpt lat="45.10559" lon="5.89401">
        <ele>1787.942</ele>
        <time>2021-01-10T15:06:10Z</time>
      </trkpt>
      <trkpt lat="45.10559" lon="5.89401">
        <ele>1787.929</ele>
        <time>2021-01-10T15:06:13Z</time>
      </trkpt>
      <trkpt lat="45.10559" lon="5.89401">
        <ele>1787.912</ele>
        <time>2021-01-10T15:06:16Z</time>
      </trkpt>
      <trkpt lat="45.10559" lon="5.89401">
        <ele>1787.875</ele>
        <time>2021-01-10T15:06:19Z</time>
      </trkpt>
      <trkpt lat="45.10559" lon="5.89401">
        <ele>1787.87</ele>
        <time>2021-01-10T15:06:21Z</time>
      </trkpt>
      <trkpt lat="45.10559" lon="5.89401">
        <ele>1787.87</ele>
        <time>2021-01-10T15:06:24Z</time>
      </trkpt>
      <trkpt lat="45.10559" lon="5.89401">
        <ele>1787.876</ele>
        <time>2021-01-10T15:06:27Z</time>
      </trkpt>
      <trkpt lat="45.10559" lon="5.894">
        <ele>1787.909</ele>
        <time>2021-01-10T15:06:30Z</time>
      </trkpt>
      <trkpt lat="45.10559" lon="5.894">
        <ele>1787.917</ele>
        <time>2021-01-10T15:06:33Z</time>
      </trkpt>
      <trkpt lat="45.10559" lon="5.894">
        <ele>1788.019</ele>
        <time>2021-01-10T15:06:36Z</time>
      </trkpt>
      <trkpt lat="45.10559" lon="5.894">
        <ele>1788.092</ele>
        <time>2021-01-10T15:06:39Z</time>
      </trkpt>
      <trkpt lat="45.10559" lon="5.894">
        <ele>1788.046</ele>
        <time>2021-01-10T15:06:42Z</time>
      </trkpt>
      <trkpt lat="45.10559" lon="5.894">
        <ele>1787.98</ele>
        <time>2021-01-10T15:06:44Z</time>
      </trkpt>
      <trkpt lat="45.10559" lon="5.894">
        <ele>1787.882</ele>
        <time>2021-01-10T15:06:47Z</time>
      </trkpt>
      <trkpt lat="45.10559" lon="5.89401">
        <ele>1787.794</ele>
        <time>2021-01-10T15:06:49Z</time>
      </trkpt>
      <trkpt lat="45.10559" lon="5.89401">
        <ele>1787.537</ele>
        <time>2021-01-10T15:06:52Z</time>
      </trkpt>
      <trkpt lat="45.10563" lon="5.89406">
        <ele>1786.158</ele>
        <time>2021-01-10T15:06:55Z</time>
      </trkpt>
      <trkpt lat="45.10566" lon="5.89413">
        <ele>1787.281</ele>
        <time>2021-01-10T15:06:58Z</time>
      </trkpt>
      <trkpt lat="45.10567" lon="5.89419">
        <ele>1786.431</ele>
        <time>2021-01-10T15:07:00Z</time>
      </trkpt>
      <trkpt lat="45.10568" lon="5.89424">
        <ele>1786.319</ele>
        <time>2021-01-10T15:07:02Z</time>
      </trkpt>
      <trkpt lat="45.10571" lon="5.89429">
        <ele>1785.547</ele>
        <time>2021-01-10T15:07:05Z</time>
      </trkpt>
      <trkpt lat="45.10573" lon="5.89434">
        <ele>1785.271</ele>
        <time>2021-01-10T15:07:08Z</time>
      </trkpt>
      <trkpt lat="45.10575" lon="5.89438">
        <ele>1783.071</ele>
        <time>2021-01-10T15:07:11Z</time>
      </trkpt>
      <trkpt lat="45.10577" lon="5.89441">
        <ele>1784.955</ele>
        <time>2021-01-10T15:07:13Z</time>
      </trkpt>
      <trkpt lat="45.10579" lon="5.89441">
        <ele>1782.875</ele>
        <time>2021-01-10T15:07:16Z</time>
      </trkpt>
      <trkpt lat="45.10582" lon="5.8944">
        <ele>1782.151</ele>
        <time>2021-01-10T15:07:18Z</time>
      </trkpt>
      <trkpt lat="45.10585" lon="5.89439">
        <ele>1783.865</ele>
        <time>2021-01-10T15:07:20Z</time>
      </trkpt>
      <trkpt lat="45.10588" lon="5.8944">
        <ele>1782.741</ele>
        <time>2021-01-10T15:07:23Z</time>
      </trkpt>
      <trkpt lat="45.10589" lon="5.8944">
        <ele>1781.917</ele>
        <time>2021-01-10T15:07:25Z</time>
      </trkpt>
      <trkpt lat="45.10591" lon="5.8944">
        <ele>1781.955</ele>
        <time>2021-01-10T15:07:28Z</time>
      </trkpt>
      <trkpt lat="45.10591" lon="5.89443">
        <ele>1783.842</ele>
        <time>2021-01-10T15:07:30Z</time>
      </trkpt>
      <trkpt lat="45.1059" lon="5.89447">
        <ele>1784.262</ele>
        <time>2021-01-10T15:07:32Z</time>
      </trkpt>
      <trkpt lat="45.1059" lon="5.89454">
        <ele>1785.311</ele>
        <time>2021-01-10T15:07:35Z</time>
      </trkpt>
      <trkpt lat="45.1059" lon="5.89457">
        <ele>1788.218</ele>
        <time>2021-01-10T15:07:37Z</time>
      </trkpt>
      <trkpt lat="45.10591" lon="5.8946">
        <ele>1791.446</ele>
        <time>2021-01-10T15:07:40Z</time>
      </trkpt>
      <trkpt lat="45.1059" lon="5.89463">
        <ele>1792.334</ele>
        <time>2021-01-10T15:07:43Z</time>
      </trkpt>
      <trkpt lat="45.1059" lon="5.89469">
        <ele>1791.145</ele>
        <time>2021-01-10T15:07:46Z</time>
      </trkpt>
      <trkpt lat="45.10592" lon="5.89471">
        <ele>1790.445</ele>
        <time>2021-01-10T15:07:49Z</time>
      </trkpt>
      <trkpt lat="45.10595" lon="5.89472">
        <ele>1791.384</ele>
        <time>2021-01-10T15:07:52Z</time>
      </trkpt>
      <trkpt lat="45.10598" lon="5.89472">
        <ele>1794.4</ele>
        <time>2021-01-10T15:07:55Z</time>
      </trkpt>
      <trkpt lat="45.10599" lon="5.89473">
        <ele>1794.796</ele>
        <time>2021-01-10T15:07:57Z</time>
      </trkpt>
      <trkpt lat="45.10601" lon="5.89474">
        <ele>1793.401</ele>
        <time>2021-01-10T15:08:00Z</time>
      </trkpt>
      <trkpt lat="45.10603" lon="5.89474">
        <ele>1789.709</ele>
        <time>2021-01-10T15:08:03Z</time>
      </trkpt>
      <trkpt lat="45.10604" lon="5.89474">
        <ele>1793.267</ele>
        <time>2021-01-10T15:08:06Z</time>
      </trkpt>
      <trkpt lat="45.10604" lon="5.89473">
        <ele>1793.366</ele>
        <time>2021-01-10T15:08:08Z</time>
      </trkpt>
      <trkpt lat="45.10603" lon="5.89474">
        <ele>1794.167</ele>
        <time>2021-01-10T15:08:11Z</time>
      </trkpt>
      <trkpt lat="45.10603" lon="5.89478">
        <ele>1797.019</ele>
        <time>2021-01-10T15:08:14Z</time>
      </trkpt>
      <trkpt lat="45.10603" lon="5.89481">
        <ele>1796.525</ele>
        <time>2021-01-10T15:08:16Z</time>
      </trkpt>
      <trkpt lat="45.10603" lon="5.89483">
        <ele>1796.218</ele>
        <time>2021-01-10T15:08:19Z</time>
      </trkpt>
      <trkpt lat="45.10606" lon="5.89486">
        <ele>1799.382</ele>
        <time>2021-01-10T15:08:22Z</time>
      </trkpt>
      <trkpt lat="45.10605" lon="5.89487">
        <ele>1799.863</ele>
        <time>2021-01-10T15:08:24Z</time>
      </trkpt>
      <trkpt lat="45.10605" lon="5.89489">
        <ele>1799.357</ele>
        <time>2021-01-10T15:08:26Z</time>
      </trkpt>
      <trkpt lat="45.10606" lon="5.89492">
        <ele>1800.612</ele>
        <time>2021-01-10T15:08:28Z</time>
      </trkpt>
      <trkpt lat="45.10607" lon="5.89493">
        <ele>1799.006</ele>
        <time>2021-01-10T15:08:31Z</time>
      </trkpt>
      <trkpt lat="45.10608" lon="5.89493">
        <ele>1798.292</ele>
        <time>2021-01-10T15:08:33Z</time>
      </trkpt>
      <trkpt lat="45.10608" lon="5.89493">
        <ele>1800.26</ele>
        <time>2021-01-10T15:08:36Z</time>
      </trkpt>
      <trkpt lat="45.10609" lon="5.89494">
        <ele>1797.763</ele>
        <time>2021-01-10T15:08:39Z</time>
      </trkpt>
      <trkpt lat="45.10609" lon="5.89496">
        <ele>1797.611</ele>
        <time>2021-01-10T15:08:41Z</time>
      </trkpt>
      <trkpt lat="45.1061" lon="5.89499">
        <ele>1796.961</ele>
        <time>2021-01-10T15:08:44Z</time>
      </trkpt>
      <trkpt lat="45.1061" lon="5.895">
        <ele>1799.153</ele>
        <time>2021-01-10T15:08:46Z</time>
      </trkpt>
      <trkpt lat="45.10607" lon="5.89502">
        <ele>1799.535</ele>
        <time>2021-01-10T15:08:49Z</time>
      </trkpt>
      <trkpt lat="45.10608" lon="5.89504">
        <ele>1801.065</ele>
        <time>2021-01-10T15:08:52Z</time>
      </trkpt>
      <trkpt lat="45.10608" lon="5.89503">
        <ele>1802.562</ele>
        <time>2021-01-10T15:08:54Z</time>
      </trkpt>
      <trkpt lat="45.10609" lon="5.89504">
        <ele>1801.468</ele>
        <time>2021-01-10T15:08:56Z</time>
      </trkpt>
      <trkpt lat="45.10609" lon="5.89502">
        <ele>1802.67</ele>
        <time>2021-01-10T15:08:59Z</time>
      </trkpt>
      <trkpt lat="45.10609" lon="5.89503">
        <ele>1800.617</ele>
        <time>2021-01-10T15:09:01Z</time>
      </trkpt>
      <trkpt lat="45.10609" lon="5.89503">
        <ele>1803.51</ele>
        <time>2021-01-10T15:09:04Z</time>
      </trkpt>
      <trkpt lat="45.10609" lon="5.89503">
        <ele>1806.312</ele>
        <time>2021-01-10T15:09:07Z</time>
      </trkpt>
      <trkpt lat="45.10611" lon="5.89505">
        <ele>1804.006</ele>
        <time>2021-01-10T15:09:10Z</time>
      </trkpt>
      <trkpt lat="45.10612" lon="5.89506">
        <ele>1805.931</ele>
        <time>2021-01-10T15:09:12Z</time>
      </trkpt>
      <trkpt lat="45.10613" lon="5.89508">
        <ele>1804.723</ele>
        <time>2021-01-10T15:09:15Z</time>
      </trkpt>
      <trkpt lat="45.10612" lon="5.8951">
        <ele>1806.456</ele>
        <time>2021-01-10T15:09:18Z</time>
      </trkpt>
      <trkpt lat="45.10612" lon="5.8951">
        <ele>1807.368</ele>
        <time>2021-01-10T15:09:21Z</time>
      </trkpt>
      <trkpt lat="45.10612" lon="5.89511">
        <ele>1807.289</ele>
        <time>2021-01-10T15:09:23Z</time>
      </trkpt>
      <trkpt lat="45.10613" lon="5.89511">
        <ele>1807.401</ele>
        <time>2021-01-10T15:09:26Z</time>
      </trkpt>
      <trkpt lat="45.10613" lon="5.89511">
        <ele>1807.842</ele>
        <time>2021-01-10T15:09:29Z</time>
      </trkpt>
      <trkpt lat="45.10613" lon="5.89511">
        <ele>1808.147</ele>
        <time>2021-01-10T15:09:32Z</time>
      </trkpt>
      <trkpt lat="45.10613" lon="5.89511">
        <ele>1808.155</ele>
        <time>2021-01-10T15:09:35Z</time>
      </trkpt>
      <trkpt lat="45.10613" lon="5.89511">
        <ele>1807.985</ele>
        <time>2021-01-10T15:09:37Z</time>
      </trkpt>
      <trkpt lat="45.10614" lon="5.89511">
        <ele>1806.825</ele>
        <time>2021-01-10T15:09:40Z</time>
      </trkpt>
      <trkpt lat="45.10614" lon="5.89511">
        <ele>1806.77</ele>
        <time>2021-01-10T15:09:42Z</time>
      </trkpt>
      <trkpt lat="45.10615" lon="5.89511">
        <ele>1806.985</ele>
        <time>2021-01-10T15:09:45Z</time>
      </trkpt>
      <trkpt lat="45.10618" lon="5.89511">
        <ele>1808.849</ele>
        <time>2021-01-10T15:09:48Z</time>
      </trkpt>
      <trkpt lat="45.10622" lon="5.8951">
        <ele>1809.43</ele>
        <time>2021-01-10T15:09:51Z</time>
      </trkpt>
      <trkpt lat="45.10626" lon="5.89509">
        <ele>1810.211</ele>
        <time>2021-01-10T15:09:54Z</time>
      </trkpt>
      <trkpt lat="45.10628" lon="5.89507">
        <ele>1811.417</ele>
        <time>2021-01-10T15:09:56Z</time>
      </trkpt>
      <trkpt lat="45.10631" lon="5.89506">
        <ele>1812.939</ele>
        <time>2021-01-10T15:09:59Z</time>
      </trkpt>
      <trkpt lat="45.10635" lon="5.89505">
        <ele>1810.947</ele>
        <time>2021-01-10T15:10:02Z</time>
      </trkpt>
      <trkpt lat="45.10637" lon="5.89505">
        <ele>1815.171</ele>
        <time>2021-01-10T15:10:05Z</time>
      </trkpt>
      <trkpt lat="45.1064" lon="5.89505">
        <ele>1817.505</ele>
        <time>2021-01-10T15:10:08Z</time>
      </trkpt>
      <trkpt lat="45.10641" lon="5.89507">
        <ele>1817.702</ele>
        <time>2021-01-10T15:10:11Z</time>
      </trkpt>
      <trkpt lat="45.10642" lon="5.89507">
        <ele>1817.864</ele>
        <time>2021-01-10T15:10:13Z</time>
      </trkpt>
      <trkpt lat="45.10642" lon="5.89508">
        <ele>1817.608</ele>
        <time>2021-01-10T15:10:15Z</time>
      </trkpt>
      <trkpt lat="45.10642" lon="5.89508">
        <ele>1816.068</ele>
        <time>2021-01-10T15:10:18Z</time>
      </trkpt>
      <trkpt lat="45.10642" lon="5.89509">
        <ele>1815.251</ele>
        <time>2021-01-10T15:10:21Z</time>
      </trkpt>
      <trkpt lat="45.10642" lon="5.89509">
        <ele>1815.214</ele>
        <time>2021-01-10T15:10:24Z</time>
      </trkpt>
      <trkpt lat="45.10642" lon="5.89509">
        <ele>1815.669</ele>
        <time>2021-01-10T15:10:26Z</time>
      </trkpt>
      <trkpt lat="45.10643" lon="5.89509">
        <ele>1815.402</ele>
        <time>2021-01-10T15:10:29Z</time>
      </trkpt>
      <trkpt lat="45.10643" lon="5.89509">
        <ele>1815.43</ele>
        <time>2021-01-10T15:10:31Z</time>
      </trkpt>
      <trkpt lat="45.10643" lon="5.89509">
        <ele>1815.469</ele>
        <time>2021-01-10T15:10:33Z</time>
      </trkpt>
      <trkpt lat="45.10643" lon="5.89509">
        <ele>1815.43</ele>
        <time>2021-01-10T15:10:36Z</time>
      </trkpt>
      <trkpt lat="45.10643" lon="5.89509">
        <ele>1815.174</ele>
        <time>2021-01-10T15:10:38Z</time>
      </trkpt>
      <trkpt lat="45.10643" lon="5.89509">
        <ele>1815.132</ele>
        <time>2021-01-10T15:10:41Z</time>
      </trkpt>
      <trkpt lat="45.10643" lon="5.89509">
        <ele>1815.125</ele>
        <time>2021-01-10T15:10:43Z</time>
      </trkpt>
      <trkpt lat="45.10643" lon="5.89511">
        <ele>1814.295</ele>
        <time>2021-01-10T15:10:46Z</time>
      </trkpt>
      <trkpt lat="45.10646" lon="5.89516">
        <ele>1816.518</ele>
        <time>2021-01-10T15:10:49Z</time>
      </trkpt>
      <trkpt lat="45.10647" lon="5.89519">
        <ele>1816.25</ele>
        <time>2021-01-10T15:10:51Z</time>
      </trkpt>
      <trkpt lat="45.10649" lon="5.89522">
        <ele>1817.688</ele>
        <time>2021-01-10T15:10:53Z</time>
      </trkpt>
      <trkpt lat="45.10651" lon="5.89525">
        <ele>1816.425</ele>
        <time>2021-01-10T15:10:56Z</time>
      </trkpt>
      <trkpt lat="45.10653" lon="5.89529">
        <ele>1815.708</ele>
        <time>2021-01-10T15:10:59Z</time>
      </trkpt>
      <trkpt lat="45.10654" lon="5.89531">
        <ele>1818.69</ele>
        <time>2021-01-10T15:11:01Z</time>
      </trkpt>
      <trkpt lat="45.10654" lon="5.89533">
        <ele>1819.828</ele>
        <time>2021-01-10T15:11:03Z</time>
      </trkpt>
      <trkpt lat="45.10654" lon="5.89535">
        <ele>1822.464</ele>
        <time>2021-01-10T15:11:06Z</time>
      </trkpt>
      <trkpt lat="45.10654" lon="5.89537">
        <ele>1821.779</ele>
        <time>2021-01-10T15:11:09Z</time>
      </trkpt>
      <trkpt lat="45.10655" lon="5.89538">
        <ele>1823.32</ele>
        <time>2021-01-10T15:11:11Z</time>
      </trkpt>
      <trkpt lat="45.10655" lon="5.89537">
        <ele>1823.632</ele>
        <time>2021-01-10T15:11:14Z</time>
      </trkpt>
      <trkpt lat="45.10655" lon="5.89537">
        <ele>1824.342</ele>
        <time>2021-01-10T15:11:16Z</time>
      </trkpt>
      <trkpt lat="45.10655" lon="5.89538">
        <ele>1823.904</ele>
        <time>2021-01-10T15:11:18Z</time>
      </trkpt>
      <trkpt lat="45.10655" lon="5.8954">
        <ele>1824.843</ele>
        <time>2021-01-10T15:11:21Z</time>
      </trkpt>
      <trkpt lat="45.10656" lon="5.89542">
        <ele>1823.839</ele>
        <time>2021-01-10T15:11:23Z</time>
      </trkpt>
      <trkpt lat="45.10656" lon="5.89542">
        <ele>1824.366</ele>
        <time>2021-01-10T15:11:26Z</time>
      </trkpt>
      <trkpt lat="45.10656" lon="5.89542">
        <ele>1824.701</ele>
        <time>2021-01-10T15:11:28Z</time>
      </trkpt>
      <trkpt lat="45.10656" lon="5.89543">
        <ele>1824.476</ele>
        <time>2021-01-10T15:11:31Z</time>
      </trkpt>
      <trkpt lat="45.10656" lon="5.89543">
        <ele>1824.19</ele>
        <time>2021-01-10T15:11:34Z</time>
      </trkpt>
      <trkpt lat="45.10656" lon="5.89543">
        <ele>1824.227</ele>
        <time>2021-01-10T15:11:37Z</time>
      </trkpt>
      <trkpt lat="45.10656" lon="5.89543">
        <ele>1824.235</ele>
        <time>2021-01-10T15:11:39Z</time>
      </trkpt>
      <trkpt lat="45.10656" lon="5.89543">
        <ele>1824.243</ele>
        <time>2021-01-10T15:11:42Z</time>
      </trkpt>
      <trkpt lat="45.10656" lon="5.89544">
        <ele>1824.24</ele>
        <time>2021-01-10T15:11:44Z</time>
      </trkpt>
      <trkpt lat="45.10656" lon="5.89544">
        <ele>1824.241</ele>
        <time>2021-01-10T15:11:47Z</time>
      </trkpt>
      <trkpt lat="45.10656" lon="5.89544">
        <ele>1824.252</ele>
        <time>2021-01-10T15:11:50Z</time>
      </trkpt>
      <trkpt lat="45.10657" lon="5.89543">
        <ele>1824.796</ele>
        <time>2021-01-10T15:11:53Z</time>
      </trkpt>
      <trkpt lat="45.1066" lon="5.89544">
        <ele>1824.375</ele>
        <time>2021-01-10T15:11:56Z</time>
      </trkpt>
      <trkpt lat="45.10664" lon="5.89549">
        <ele>1828.598</ele>
        <time>2021-01-10T15:11:59Z</time>
      </trkpt>
      <trkpt lat="45.10669" lon="5.89556">
        <ele>1833.531</ele>
        <time>2021-01-10T15:12:01Z</time>
      </trkpt>
      <trkpt lat="45.10671" lon="5.89558">
        <ele>1834.507</ele>
        <time>2021-01-10T15:12:03Z</time>
      </trkpt>
      <trkpt lat="45.10672" lon="5.89557">
        <ele>1834.792</ele>
        <time>2021-01-10T15:12:06Z</time>
      </trkpt>
      <trkpt lat="45.10674" lon="5.89558">
        <ele>1833.912</ele>
        <time>2021-01-10T15:12:08Z</time>
      </trkpt>
      <trkpt lat="45.10676" lon="5.89558">
        <ele>1835.29</ele>
        <time>2021-01-10T15:12:11Z</time>
      </trkpt>
      <trkpt lat="45.10677" lon="5.89558">
        <ele>1835.546</ele>
        <time>2021-01-10T15:12:13Z</time>
      </trkpt>
      <trkpt lat="45.10677" lon="5.89558">
        <ele>1833.503</ele>
        <time>2021-01-10T15:12:15Z</time>
      </trkpt>
      <trkpt lat="45.10678" lon="5.89558">
        <ele>1833.367</ele>
        <time>2021-01-10T15:12:18Z</time>
      </trkpt>
      <trkpt lat="45.10679" lon="5.89558">
        <ele>1833.659</ele>
        <time>2021-01-10T15:12:20Z</time>
      </trkpt>
      <trkpt lat="45.10678" lon="5.89557">
        <ele>1833.553</ele>
        <time>2021-01-10T15:12:23Z</time>
      </trkpt>
      <trkpt lat="45.10678" lon="5.89558">
        <ele>1833.822</ele>
        <time>2021-01-10T15:12:25Z</time>
      </trkpt>
      <trkpt lat="45.10678" lon="5.89558">
        <ele>1833.591</ele>
        <time>2021-01-10T15:12:27Z</time>
      </trkpt>
      <trkpt lat="45.10678" lon="5.89557">
        <ele>1833.872</ele>
        <time>2021-01-10T15:12:30Z</time>
      </trkpt>
      <trkpt lat="45.10678" lon="5.89557">
        <ele>1833.447</ele>
        <time>2021-01-10T15:12:32Z</time>
      </trkpt>
      <trkpt lat="45.10677" lon="5.89557">
        <ele>1834.043</ele>
        <time>2021-01-10T15:12:35Z</time>
      </trkpt>
      <trkpt lat="45.10677" lon="5.89557">
        <ele>1834.019</ele>
        <time>2021-01-10T15:12:38Z</time>
      </trkpt>
      <trkpt lat="45.10677" lon="5.89557">
        <ele>1833.985</ele>
        <time>2021-01-10T15:12:40Z</time>
      </trkpt>
      <trkpt lat="45.10677" lon="5.89557">
        <ele>1833.923</ele>
        <time>2021-01-10T15:12:42Z</time>
      </trkpt>
      <trkpt lat="45.10677" lon="5.89557">
        <ele>1833.729</ele>
        <time>2021-01-10T15:12:45Z</time>
      </trkpt>
      <trkpt lat="45.10677" lon="5.89557">
        <ele>1833.724</ele>
        <time>2021-01-10T15:12:47Z</time>
      </trkpt>
      <trkpt lat="45.10678" lon="5.89557">
        <ele>1833.486</ele>
        <time>2021-01-10T15:12:49Z</time>
      </trkpt>
      <trkpt lat="45.10679" lon="5.89559">
        <ele>1830.876</ele>
        <time>2021-01-10T15:12:52Z</time>
      </trkpt>
      <trkpt lat="45.10682" lon="5.89562">
        <ele>1831.077</ele>
        <time>2021-01-10T15:12:55Z</time>
      </trkpt>
      <trkpt lat="45.10682" lon="5.89563">
        <ele>1830.942</ele>
        <time>2021-01-10T15:12:58Z</time>
      </trkpt>
      <trkpt lat="45.10682" lon="5.89562">
        <ele>1831.385</ele>
        <time>2021-01-10T15:13:01Z</time>
      </trkpt>
      <trkpt lat="45.10682" lon="5.89562">
        <ele>1831.819</ele>
        <time>2021-01-10T15:13:03Z</time>
      </trkpt>
      <trkpt lat="45.10682" lon="5.89562">
        <ele>1832.341</ele>
        <time>2021-01-10T15:13:06Z</time>
      </trkpt>
      <trkpt lat="45.10682" lon="5.89562">
        <ele>1832.225</ele>
        <time>2021-01-10T15:13:09Z</time>
      </trkpt>
      <trkpt lat="45.10682" lon="5.89562">
        <ele>1832.318</ele>
        <time>2021-01-10T15:13:12Z</time>
      </trkpt>
      <trkpt lat="45.10682" lon="5.89562">
        <ele>1832.193</ele>
        <time>2021-01-10T15:13:15Z</time>
      </trkpt>
      <trkpt lat="45.10682" lon="5.89562">
        <ele>1832.235</ele>
        <time>2021-01-10T15:13:18Z</time>
      </trkpt>
      <trkpt lat="45.10682" lon="5.89562">
        <ele>1832.267</ele>
        <time>2021-01-10T15:13:20Z</time>
      </trkpt>
      <trkpt lat="45.10682" lon="5.89562">
        <ele>1832.262</ele>
        <time>2021-01-10T15:13:22Z</time>
      </trkpt>
      <trkpt lat="45.10682" lon="5.89562">
        <ele>1832.232</ele>
        <time>2021-01-10T15:13:25Z</time>
      </trkpt>
      <trkpt lat="45.10682" lon="5.89562">
        <ele>1832.224</ele>
        <time>2021-01-10T15:13:28Z</time>
      </trkpt>
      <trkpt lat="45.10682" lon="5.89562">
        <ele>1832.236</ele>
        <time>2021-01-10T15:13:30Z</time>
      </trkpt>
      <trkpt lat="45.10682" lon="5.89562">
        <ele>1832.232</ele>
        <time>2021-01-10T15:13:33Z</time>
      </trkpt>
      <trkpt lat="45.10682" lon="5.89563">
        <ele>1832.245</ele>
        <time>2021-01-10T15:13:36Z</time>
      </trkpt>
      <trkpt lat="45.10685" lon="5.89564">
        <ele>1832.651</ele>
        <time>2021-01-10T15:13:38Z</time>
      </trkpt>
      <trkpt lat="45.10689" lon="5.89564">
        <ele>1833.958</ele>
        <time>2021-01-10T15:13:40Z</time>
      </trkpt>
      <trkpt lat="45.10692" lon="5.89563">
        <ele>1835.423</ele>
        <time>2021-01-10T15:13:42Z</time>
      </trkpt>
      <trkpt lat="45.10697" lon="5.89565">
        <ele>1838.402</ele>
        <time>2021-01-10T15:13:45Z</time>
      </trkpt>
      <trkpt lat="45.10698" lon="5.89566">
        <ele>1839.076</ele>
        <time>2021-01-10T15:13:47Z</time>
      </trkpt>
      <trkpt lat="45.10699" lon="5.89564">
        <ele>1841.641</ele>
        <time>2021-01-10T15:13:50Z</time>
      </trkpt>
      <trkpt lat="45.107" lon="5.89565">
        <ele>1840.837</ele>
        <time>2021-01-10T15:13:53Z</time>
      </trkpt>
      <trkpt lat="45.10703" lon="5.89563">
        <ele>1843.629</ele>
        <time>2021-01-10T15:13:56Z</time>
      </trkpt>
      <trkpt lat="45.10706" lon="5.89566">
        <ele>1841.658</ele>
        <time>2021-01-10T15:13:59Z</time>
      </trkpt>
      <trkpt lat="45.10706" lon="5.89568">
        <ele>1842.447</ele>
        <time>2021-01-10T15:14:01Z</time>
      </trkpt>
      <trkpt lat="45.10708" lon="5.8957">
        <ele>1842.676</ele>
        <time>2021-01-10T15:14:04Z</time>
      </trkpt>
      <trkpt lat="45.10709" lon="5.89571">
        <ele>1845.174</ele>
        <time>2021-01-10T15:14:07Z</time>
      </trkpt>
      <trkpt lat="45.10709" lon="5.89571">
        <ele>1847.013</ele>
        <time>2021-01-10T15:14:10Z</time>
      </trkpt>
      <trkpt lat="45.10708" lon="5.89572">
        <ele>1848.599</ele>
        <time>2021-01-10T15:14:12Z</time>
      </trkpt>
      <trkpt lat="45.10709" lon="5.89572">
        <ele>1849.264</ele>
        <time>2021-01-10T15:14:15Z</time>
      </trkpt>
      <trkpt lat="45.10709" lon="5.89573">
        <ele>1849.773</ele>
        <time>2021-01-10T15:14:18Z</time>
      </trkpt>
      <trkpt lat="45.10708" lon="5.89573">
        <ele>1850.318</ele>
        <time>2021-01-10T15:14:21Z</time>
      </trkpt>
      <trkpt lat="45.10708" lon="5.89573">
        <ele>1850.414</ele>
        <time>2021-01-10T15:14:23Z</time>
      </trkpt>
      <trkpt lat="45.10708" lon="5.89573">
        <ele>1850.746</ele>
        <time>2021-01-10T15:14:25Z</time>
      </trkpt>
      <trkpt lat="45.10709" lon="5.89575">
        <ele>1851.91</ele>
        <time>2021-01-10T15:14:28Z</time>
      </trkpt>
      <trkpt lat="45.10709" lon="5.8958">
        <ele>1850.042</ele>
        <time>2021-01-10T15:14:30Z</time>
      </trkpt>
      <trkpt lat="45.1071" lon="5.89584">
        <ele>1851.574</ele>
        <time>2021-01-10T15:14:33Z</time>
      </trkpt>
      <trkpt lat="45.10714" lon="5.89586">
        <ele>1850.611</ele>
        <time>2021-01-10T15:14:36Z</time>
      </trkpt>
      <trkpt lat="45.10716" lon="5.89587">
        <ele>1849.701</ele>
        <time>2021-01-10T15:14:38Z</time>
      </trkpt>
      <trkpt lat="45.10718" lon="5.89587">
        <ele>1848.713</ele>
        <time>2021-01-10T15:14:40Z</time>
      </trkpt>
      <trkpt lat="45.10719" lon="5.89588">
        <ele>1846.126</ele>
        <time>2021-01-10T15:14:42Z</time>
      </trkpt>
      <trkpt lat="45.10721" lon="5.89592">
        <ele>1844.83</ele>
        <time>2021-01-10T15:14:45Z</time>
      </trkpt>
      <trkpt lat="45.10722" lon="5.89594">
        <ele>1844.713</ele>
        <time>2021-01-10T15:14:47Z</time>
      </trkpt>
      <trkpt lat="45.10722" lon="5.89594">
        <ele>1845.27</ele>
        <time>2021-01-10T15:14:49Z</time>
      </trkpt>
      <trkpt lat="45.10723" lon="5.89593">
        <ele>1846.185</ele>
        <time>2021-01-10T15:14:52Z</time>
      </trkpt>
      <trkpt lat="45.10723" lon="5.89593">
        <ele>1845.542</ele>
        <time>2021-01-10T15:14:54Z</time>
      </trkpt>
      <trkpt lat="45.10724" lon="5.89594">
        <ele>1845.655</ele>
        <time>2021-01-10T15:14:57Z</time>
      </trkpt>
      <trkpt lat="45.10724" lon="5.89594">
        <ele>1845.424</ele>
        <time>2021-01-10T15:15:00Z</time>
      </trkpt>
      <trkpt lat="45.10724" lon="5.89594">
        <ele>1845.474</ele>
        <time>2021-01-10T15:15:03Z</time>
      </trkpt>
      <trkpt lat="45.10724" lon="5.89594">
        <ele>1845.56</ele>
        <time>2021-01-10T15:15:06Z</time>
      </trkpt>
      <trkpt lat="45.10724" lon="5.89594">
        <ele>1845.558</ele>
        <time>2021-01-10T15:15:09Z</time>
      </trkpt>
      <trkpt lat="45.10724" lon="5.89594">
        <ele>1845.556</ele>
        <time>2021-01-10T15:15:12Z</time>
      </trkpt>
      <trkpt lat="45.10724" lon="5.89594">
        <ele>1845.553</ele>
        <time>2021-01-10T15:15:14Z</time>
      </trkpt>
      <trkpt lat="45.10724" lon="5.89595">
        <ele>1845.552</ele>
        <time>2021-01-10T15:15:17Z</time>
      </trkpt>
      <trkpt lat="45.10724" lon="5.89595">
        <ele>1845.576</ele>
        <time>2021-01-10T15:15:20Z</time>
      </trkpt>
      <trkpt lat="45.10724" lon="5.89595">
        <ele>1845.607</ele>
        <time>2021-01-10T15:15:23Z</time>
      </trkpt>
      <trkpt lat="45.10728" lon="5.89593">
        <ele>1847.634</ele>
        <time>2021-01-10T15:15:26Z</time>
      </trkpt>
      <trkpt lat="45.10732" lon="5.89597">
        <ele>1849.911</ele>
        <time>2021-01-10T15:15:28Z</time>
      </trkpt>
      <trkpt lat="45.10739" lon="5.89598">
        <ele>1854.657</ele>
        <time>2021-01-10T15:15:31Z</time>
      </trkpt>
      <trkpt lat="45.10743" lon="5.89597">
        <ele>1856.719</ele>
        <time>2021-01-10T15:15:33Z</time>
      </trkpt>
      <trkpt lat="45.10747" lon="5.89601">
        <ele>1859.733</ele>
        <time>2021-01-10T15:15:36Z</time>
      </trkpt>
      <trkpt lat="45.10748" lon="5.89605">
        <ele>1861.877</ele>
        <time>2021-01-10T15:15:38Z</time>
      </trkpt>
      <trkpt lat="45.10753" lon="5.89605">
        <ele>1859.571</ele>
        <time>2021-01-10T15:15:41Z</time>
      </trkpt>
      <trkpt lat="45.10761" lon="5.89598">
        <ele>1856.133</ele>
        <time>2021-01-10T15:15:44Z</time>
      </trkpt>
      <trkpt lat="45.10764" lon="5.89599">
        <ele>1854.538</ele>
        <time>2021-01-10T15:15:46Z</time>
      </trkpt>
      <trkpt lat="45.10768" lon="5.89602">
        <ele>1854.372</ele>
        <time>2021-01-10T15:15:49Z</time>
      </trkpt>
      <trkpt lat="45.1077" lon="5.89603">
        <ele>1854.79</ele>
        <time>2021-01-10T15:15:51Z</time>
      </trkpt>
      <trkpt lat="45.10771" lon="5.89604">
        <ele>1854.438</ele>
        <time>2021-01-10T15:15:54Z</time>
      </trkpt>
      <trkpt lat="45.10772" lon="5.89605">
        <ele>1855.916</ele>
        <time>2021-01-10T15:15:57Z</time>
      </trkpt>
      <trkpt lat="45.10773" lon="5.89607">
        <ele>1856.234</ele>
        <time>2021-01-10T15:15:59Z</time>
      </trkpt>
      <trkpt lat="45.10775" lon="5.89608">
        <ele>1856.287</ele>
        <time>2021-01-10T15:16:02Z</time>
      </trkpt>
      <trkpt lat="45.10778" lon="5.89609">
        <ele>1854.44</ele>
        <time>2021-01-10T15:16:04Z</time>
      </trkpt>
      <trkpt lat="45.1078" lon="5.89611">
        <ele>1852.685</ele>
        <time>2021-01-10T15:16:06Z</time>
      </trkpt>
      <trkpt lat="45.10783" lon="5.89614">
        <ele>1853.53</ele>
        <time>2021-01-10T15:16:09Z</time>
      </trkpt>
      <trkpt lat="45.10785" lon="5.89616">
        <ele>1855.058</ele>
        <time>2021-01-10T15:16:11Z</time>
      </trkpt>
      <trkpt lat="45.10787" lon="5.89622">
        <ele>1850.292</ele>
        <time>2021-01-10T15:16:14Z</time>
      </trkpt>
      <trkpt lat="45.1079" lon="5.89629">
        <ele>1850.798</ele>
        <time>2021-01-10T15:16:17Z</time>
      </trkpt>
      <trkpt lat="45.10791" lon="5.89632">
        <ele>1848.553</ele>
        <time>2021-01-10T15:16:19Z</time>
      </trkpt>
      <trkpt lat="45.10793" lon="5.89633">
        <ele>1845.448</ele>
        <time>2021-01-10T15:16:22Z</time>
      </trkpt>
      <trkpt lat="45.10794" lon="5.89636">
        <ele>1847.259</ele>
        <time>2021-01-10T15:16:25Z</time>
      </trkpt>
      <trkpt lat="45.10794" lon="5.89638">
        <ele>1848.745</ele>
        <time>2021-01-10T15:16:27Z</time>
      </trkpt>
      <trkpt lat="45.10794" lon="5.89642">
        <ele>1849.118</ele>
        <time>2021-01-10T15:16:30Z</time>
      </trkpt>
      <trkpt lat="45.10792" lon="5.89645">
        <ele>1851.928</ele>
        <time>2021-01-10T15:16:33Z</time>
      </trkpt>
      <trkpt lat="45.10793" lon="5.89649">
        <ele>1851.633</ele>
        <time>2021-01-10T15:16:36Z</time>
      </trkpt>
      <trkpt lat="45.10793" lon="5.89651">
        <ele>1853.006</ele>
        <time>2021-01-10T15:16:38Z</time>
      </trkpt>
      <trkpt lat="45.10793" lon="5.89654">
        <ele>1854.856</ele>
        <time>2021-01-10T15:16:40Z</time>
      </trkpt>
      <trkpt lat="45.10794" lon="5.89654">
        <ele>1855.724</ele>
        <time>2021-01-10T15:16:43Z</time>
      </trkpt>
      <trkpt lat="45.10795" lon="5.89655">
        <ele>1855.058</ele>
        <time>2021-01-10T15:16:45Z</time>
      </trkpt>
      <trkpt lat="45.10796" lon="5.89656">
        <ele>1854.888</ele>
        <time>2021-01-10T15:16:47Z</time>
      </trkpt>
      <trkpt lat="45.10802" lon="5.89654">
        <ele>1853.272</ele>
        <time>2021-01-10T15:16:50Z</time>
      </trkpt>
      <trkpt lat="45.10801" lon="5.89652">
        <ele>1854.571</ele>
        <time>2021-01-10T15:16:53Z</time>
      </trkpt>
      <trkpt lat="45.10801" lon="5.89653">
        <ele>1850.673</ele>
        <time>2021-01-10T15:16:56Z</time>
      </trkpt>
      <trkpt lat="45.10801" lon="5.89653">
        <ele>1851.309</ele>
        <time>2021-01-10T15:16:58Z</time>
      </trkpt>
      <trkpt lat="45.10801" lon="5.89653">
        <ele>1850.883</ele>
        <time>2021-01-10T15:17:00Z</time>
      </trkpt>
      <trkpt lat="45.10801" lon="5.89653">
        <ele>1850.301</ele>
        <time>2021-01-10T15:17:02Z</time>
      </trkpt>
      <trkpt lat="45.10801" lon="5.89652">
        <ele>1850.402</ele>
        <time>2021-01-10T15:17:05Z</time>
      </trkpt>
      <trkpt lat="45.10801" lon="5.89651">
        <ele>1850.357</ele>
        <time>2021-01-10T15:17:08Z</time>
      </trkpt>
      <trkpt lat="45.10801" lon="5.89652">
        <ele>1850.297</ele>
        <time>2021-01-10T15:17:11Z</time>
      </trkpt>
      <trkpt lat="45.10801" lon="5.89651">
        <ele>1850.687</ele>
        <time>2021-01-10T15:17:13Z</time>
      </trkpt>
      <trkpt lat="45.10801" lon="5.89651">
        <ele>1850.675</ele>
        <time>2021-01-10T15:17:15Z</time>
      </trkpt>
      <trkpt lat="45.10801" lon="5.89651">
        <ele>1850.698</ele>
        <time>2021-01-10T15:17:18Z</time>
      </trkpt>
      <trkpt lat="45.10801" lon="5.89652">
        <ele>1850.711</ele>
        <time>2021-01-10T15:17:20Z</time>
      </trkpt>
      <trkpt lat="45.10801" lon="5.89652">
        <ele>1850.716</ele>
        <time>2021-01-10T15:17:23Z</time>
      </trkpt>
      <trkpt lat="45.10801" lon="5.89652">
        <ele>1850.722</ele>
        <time>2021-01-10T15:17:25Z</time>
      </trkpt>
      <trkpt lat="45.10801" lon="5.89652">
        <ele>1850.734</ele>
        <time>2021-01-10T15:17:27Z</time>
      </trkpt>
      <trkpt lat="45.10801" lon="5.89652">
        <ele>1850.74</ele>
        <time>2021-01-10T15:17:30Z</time>
      </trkpt>
      <trkpt lat="45.10801" lon="5.89652">
        <ele>1850.743</ele>
        <time>2021-01-10T15:17:33Z</time>
      </trkpt>
      <trkpt lat="45.10806" lon="5.89651">
        <ele>1850.316</ele>
        <time>2021-01-10T15:17:36Z</time>
      </trkpt>
      <trkpt lat="45.10807" lon="5.89651">
        <ele>1853.615</ele>
        <time>2021-01-10T15:17:39Z</time>
      </trkpt>
      <trkpt lat="45.10808" lon="5.8965">
        <ele>1853.932</ele>
        <time>2021-01-10T15:17:41Z</time>
      </trkpt>
      <trkpt lat="45.1081" lon="5.89649">
        <ele>1856.939</ele>
        <time>2021-01-10T15:17:44Z</time>
      </trkpt>
      <trkpt lat="45.10812" lon="5.8965">
        <ele>1859.692</ele>
        <time>2021-01-10T15:17:47Z</time>
      </trkpt>
      <trkpt lat="45.10815" lon="5.8965">
        <ele>1862.33</ele>
        <time>2021-01-10T15:17:50Z</time>
      </trkpt>
      <trkpt lat="45.10816" lon="5.89651">
        <ele>1861.115</ele>
        <time>2021-01-10T15:17:53Z</time>
      </trkpt>
      <trkpt lat="45.10817" lon="5.89651">
        <ele>1861.584</ele>
        <time>2021-01-10T15:17:55Z</time>
      </trkpt>
      <trkpt lat="45.10817" lon="5.89652">
        <ele>1861.798</ele>
        <time>2021-01-10T15:17:58Z</time>
      </trkpt>
      <trkpt lat="45.10817" lon="5.89652">
        <ele>1863.1</ele>
        <time>2021-01-10T15:18:00Z</time>
      </trkpt>
      <trkpt lat="45.10817" lon="5.89652">
        <ele>1863.376</ele>
        <time>2021-01-10T15:18:02Z</time>
      </trkpt>
      <trkpt lat="45.10817" lon="5.89652">
        <ele>1863.349</ele>
        <time>2021-01-10T15:18:05Z</time>
      </trkpt>
      <trkpt lat="45.10817" lon="5.89653">
        <ele>1863.705</ele>
        <time>2021-01-10T15:18:08Z</time>
      </trkpt>
      <trkpt lat="45.10818" lon="5.89654">
        <ele>1865.924</ele>
        <time>2021-01-10T15:18:11Z</time>
      </trkpt>
      <trkpt lat="45.1082" lon="5.89656">
        <ele>1869.036</ele>
        <time>2021-01-10T15:18:13Z</time>
      </trkpt>
      <trkpt lat="45.10824" lon="5.89658">
        <ele>1872.126</ele>
        <time>2021-01-10T15:18:16Z</time>
      </trkpt>
      <trkpt lat="45.10826" lon="5.89659">
        <ele>1872.106</ele>
        <time>2021-01-10T15:18:19Z</time>
      </trkpt>
      <trkpt lat="45.10829" lon="5.89658">
        <ele>1873.167</ele>
        <time>2021-01-10T15:18:22Z</time>
      </trkpt>
      <trkpt lat="45.10832" lon="5.89658">
        <ele>1872.766</ele>
        <time>2021-01-10T15:18:25Z</time>
      </trkpt>
      <trkpt lat="45.10834" lon="5.89658">
        <ele>1875.746</ele>
        <time>2021-01-10T15:18:28Z</time>
      </trkpt>
      <trkpt lat="45.10835" lon="5.89659">
        <ele>1876.238</ele>
        <time>2021-01-10T15:18:30Z</time>
      </trkpt>
      <trkpt lat="45.10835" lon="5.8966">
        <ele>1877.151</ele>
        <time>2021-01-10T15:18:32Z</time>
      </trkpt>
      <trkpt lat="45.10835" lon="5.8966">
        <ele>1878.139</ele>
        <time>2021-01-10T15:18:35Z</time>
      </trkpt>
      <trkpt lat="45.10835" lon="5.89662">
        <ele>1879.535</ele>
        <time>2021-01-10T15:18:37Z</time>
      </trkpt>
      <trkpt lat="45.10835" lon="5.89665">
        <ele>1880.039</ele>
        <time>2021-01-10T15:18:40Z</time>
      </trkpt>
      <trkpt lat="45.10836" lon="5.89667">
        <ele>1883.305</ele>
        <time>2021-01-10T15:18:43Z</time>
      </trkpt>
      <trkpt lat="45.10838" lon="5.8967">
        <ele>1882.857</ele>
        <time>2021-01-10T15:18:46Z</time>
      </trkpt>
      <trkpt lat="45.10843" lon="5.89673">
        <ele>1884.768</ele>
        <time>2021-01-10T15:18:49Z</time>
      </trkpt>
      <trkpt lat="45.10843" lon="5.89676">
        <ele>1887.124</ele>
        <time>2021-01-10T15:18:52Z</time>
      </trkpt>
      <trkpt lat="45.10844" lon="5.89679">
        <ele>1888.016</ele>
        <time>2021-01-10T15:18:55Z</time>
      </trkpt>
      <trkpt lat="45.10842" lon="5.89687">
        <ele>1890.623</ele>
        <time>2021-01-10T15:18:58Z</time>
      </trkpt>
      <trkpt lat="45.10845" lon="5.89683">
        <ele>1893.948</ele>
        <time>2021-01-10T15:19:01Z</time>
      </trkpt>
      <trkpt lat="45.10844" lon="5.89685">
        <ele>1893.417</ele>
        <time>2021-01-10T15:19:04Z</time>
      </trkpt>
      <trkpt lat="45.10844" lon="5.89687">
        <ele>1895.103</ele>
        <time>2021-01-10T15:19:06Z</time>
      </trkpt>
      <trkpt lat="45.10844" lon="5.89689">
        <ele>1896.671</ele>
        <time>2021-01-10T15:19:08Z</time>
      </trkpt>
      <trkpt lat="45.10845" lon="5.8969">
        <ele>1897.837</ele>
        <time>2021-01-10T15:19:11Z</time>
      </trkpt>
      <trkpt lat="45.10847" lon="5.8969">
        <ele>1899.364</ele>
        <time>2021-01-10T15:19:13Z</time>
      </trkpt>
      <trkpt lat="45.10847" lon="5.89693">
        <ele>1899.183</ele>
        <time>2021-01-10T15:19:16Z</time>
      </trkpt>
      <trkpt lat="45.10846" lon="5.89695">
        <ele>1898.313</ele>
        <time>2021-01-10T15:19:19Z</time>
      </trkpt>
      <trkpt lat="45.10847" lon="5.89697">
        <ele>1897.722</ele>
        <time>2021-01-10T15:19:22Z</time>
      </trkpt>
      <trkpt lat="45.10848" lon="5.89698">
        <ele>1895.706</ele>
        <time>2021-01-10T15:19:24Z</time>
      </trkpt>
      <trkpt lat="45.10849" lon="5.89699">
        <ele>1896.476</ele>
        <time>2021-01-10T15:19:26Z</time>
      </trkpt>
      <trkpt lat="45.10849" lon="5.89701">
        <ele>1896.179</ele>
        <time>2021-01-10T15:19:28Z</time>
      </trkpt>
      <trkpt lat="45.10848" lon="5.89703">
        <ele>1896.704</ele>
        <time>2021-01-10T15:19:31Z</time>
      </trkpt>
      <trkpt lat="45.10847" lon="5.89706">
        <ele>1898.402</ele>
        <time>2021-01-10T15:19:34Z</time>
      </trkpt>
      <trkpt lat="45.10847" lon="5.89706">
        <ele>1899.149</ele>
        <time>2021-01-10T15:19:36Z</time>
      </trkpt>
      <trkpt lat="45.10848" lon="5.89707">
        <ele>1900.792</ele>
        <time>2021-01-10T15:19:38Z</time>
      </trkpt>
      <trkpt lat="45.10849" lon="5.8971">
        <ele>1900.024</ele>
        <time>2021-01-10T15:19:41Z</time>
      </trkpt>
      <trkpt lat="45.10853" lon="5.89711">
        <ele>1899.068</ele>
        <time>2021-01-10T15:19:44Z</time>
      </trkpt>
      <trkpt lat="45.10859" lon="5.8971">
        <ele>1898.747</ele>
        <time>2021-01-10T15:19:47Z</time>
      </trkpt>
      <trkpt lat="45.10858" lon="5.89709">
        <ele>1898.977</ele>
        <time>2021-01-10T15:19:50Z</time>
      </trkpt>
      <trkpt lat="45.10857" lon="5.89709">
        <ele>1899.399</ele>
        <time>2021-01-10T15:19:52Z</time>
      </trkpt>
      <trkpt lat="45.10856" lon="5.89709">
        <ele>1899.857</ele>
        <time>2021-01-10T15:19:55Z</time>
      </trkpt>
      <trkpt lat="45.10857" lon="5.89709">
        <ele>1900.287</ele>
        <time>2021-01-10T15:19:58Z</time>
      </trkpt>
      <trkpt lat="45.10857" lon="5.89709">
        <ele>1900.379</ele>
        <time>2021-01-10T15:20:01Z</time>
      </trkpt>
      <trkpt lat="45.10856" lon="5.89709">
        <ele>1900.554</ele>
        <time>2021-01-10T15:20:04Z</time>
      </trkpt>
      <trkpt lat="45.10856" lon="5.89709">
        <ele>1900.668</ele>
        <time>2021-01-10T15:20:06Z</time>
      </trkpt>
      <trkpt lat="45.10857" lon="5.89709">
        <ele>1900.772</ele>
        <time>2021-01-10T15:20:09Z</time>
      </trkpt>
      <trkpt lat="45.10856" lon="5.89709">
        <ele>1900.505</ele>
        <time>2021-01-10T15:20:12Z</time>
      </trkpt>
      <trkpt lat="45.10856" lon="5.89709">
        <ele>1900.554</ele>
        <time>2021-01-10T15:20:14Z</time>
      </trkpt>
      <trkpt lat="45.10856" lon="5.89709">
        <ele>1900.552</ele>
        <time>2021-01-10T15:20:17Z</time>
      </trkpt>
      <trkpt lat="45.10856" lon="5.89709">
        <ele>1900.46</ele>
        <time>2021-01-10T15:20:19Z</time>
      </trkpt>
      <trkpt lat="45.10856" lon="5.89709">
        <ele>1900.459</ele>
        <time>2021-01-10T15:20:22Z</time>
      </trkpt>
      <trkpt lat="45.10856" lon="5.89709">
        <ele>1900.512</ele>
        <time>2021-01-10T15:20:24Z</time>
      </trkpt>
      <trkpt lat="45.10856" lon="5.89709">
        <ele>1900.544</ele>
        <time>2021-01-10T15:20:27Z</time>
      </trkpt>
      <trkpt lat="45.10856" lon="5.89709">
        <ele>1900.54</ele>
        <time>2021-01-10T15:20:29Z</time>
      </trkpt>
      <trkpt lat="45.10856" lon="5.89709">
        <ele>1900.529</ele>
        <time>2021-01-10T15:20:32Z</time>
      </trkpt>
      <trkpt lat="45.10856" lon="5.89709">
        <ele>1900.536</ele>
        <time>2021-01-10T15:20:39Z</time>
      </trkpt>
      <trkpt lat="45.10856" lon="5.89709">
        <ele>1900.503</ele>
        <time>2021-01-10T15:20:42Z</time>
      </trkpt>
      <trkpt lat="45.10856" lon="5.89709">
        <ele>1900.498</ele>
        <time>2021-01-10T15:20:45Z</time>
      </trkpt>
      <trkpt lat="45.10856" lon="5.89709">
        <ele>1900.491</ele>
        <time>2021-01-10T15:20:48Z</time>
      </trkpt>
      <trkpt lat="45.10856" lon="5.89709">
        <ele>1900.491</ele>
        <time>2021-01-10T15:20:51Z</time>
      </trkpt>
      <trkpt lat="45.10856" lon="5.89709">
        <ele>1900.502</ele>
        <time>2021-01-10T15:20:54Z</time>
      </trkpt>
      <trkpt lat="45.10856" lon="5.89709">
        <ele>1900.49</ele>
        <time>2021-01-10T15:20:56Z</time>
      </trkpt>
      <trkpt lat="45.10856" lon="5.89709">
        <ele>1900.49</ele>
        <time>2021-01-10T15:20:59Z</time>
      </trkpt>
      <trkpt lat="45.10856" lon="5.89709">
        <ele>1900.487</ele>
        <time>2021-01-10T15:21:01Z</time>
      </trkpt>
      <trkpt lat="45.10856" lon="5.89709">
        <ele>1900.486</ele>
        <time>2021-01-10T15:21:04Z</time>
      </trkpt>
      <trkpt lat="45.10856" lon="5.89709">
        <ele>1900.488</ele>
        <time>2021-01-10T15:21:07Z</time>
      </trkpt>
      <trkpt lat="45.10856" lon="5.89709">
        <ele>1900.481</ele>
        <time>2021-01-10T15:21:10Z</time>
      </trkpt>
      <trkpt lat="45.10856" lon="5.89709">
        <ele>1900.475</ele>
        <time>2021-01-10T15:21:13Z</time>
      </trkpt>
      <trkpt lat="45.10856" lon="5.89709">
        <ele>1900.473</ele>
        <time>2021-01-10T15:21:15Z</time>
      </trkpt>
      <trkpt lat="45.10856" lon="5.89709">
        <ele>1900.468</ele>
        <time>2021-01-10T15:21:18Z</time>
      </trkpt>
      <trkpt lat="45.10856" lon="5.89709">
        <ele>1900.467</ele>
        <time>2021-01-10T15:21:21Z</time>
      </trkpt>
      <trkpt lat="45.10856" lon="5.89709">
        <ele>1900.468</ele>
        <time>2021-01-10T15:21:23Z</time>
      </trkpt>
      <trkpt lat="45.10856" lon="5.89709">
        <ele>1900.467</ele>
        <time>2021-01-10T15:21:26Z</time>
      </trkpt>
      <trkpt lat="45.10856" lon="5.89709">
        <ele>1900.466</ele>
        <time>2021-01-10T15:21:28Z</time>
      </trkpt>
      <trkpt lat="45.10856" lon="5.89709">
        <ele>1900.467</ele>
        <time>2021-01-10T15:21:31Z</time>
      </trkpt>
      <trkpt lat="45.10856" lon="5.89709">
        <ele>1900.476</ele>
        <time>2021-01-10T15:21:33Z</time>
      </trkpt>
      <trkpt lat="45.10856" lon="5.89709">
        <ele>1900.482</ele>
        <time>2021-01-10T15:21:36Z</time>
      </trkpt>
      <trkpt lat="45.10856" lon="5.89709">
        <ele>1900.489</ele>
        <time>2021-01-10T15:21:39Z</time>
      </trkpt>
      <trkpt lat="45.10856" lon="5.89709">
        <ele>1900.495</ele>
        <time>2021-01-10T15:21:42Z</time>
      </trkpt>
      <trkpt lat="45.10856" lon="5.89709">
        <ele>1900.499</ele>
        <time>2021-01-10T15:21:44Z</time>
      </trkpt>
      <trkpt lat="45.10856" lon="5.89709">
        <ele>1900.503</ele>
        <time>2021-01-10T15:21:47Z</time>
      </trkpt>
      <trkpt lat="45.10856" lon="5.89709">
        <ele>1900.508</ele>
        <time>2021-01-10T15:21:49Z</time>
      </trkpt>
      <trkpt lat="45.10856" lon="5.89709">
        <ele>1900.512</ele>
        <time>2021-01-10T15:21:51Z</time>
      </trkpt>
      <trkpt lat="45.10856" lon="5.89709">
        <ele>1900.51</ele>
        <time>2021-01-10T15:21:53Z</time>
      </trkpt>
      <trkpt lat="45.10856" lon="5.89709">
        <ele>1900.513</ele>
        <time>2021-01-10T15:21:56Z</time>
      </trkpt>
      <trkpt lat="45.10856" lon="5.89709">
        <ele>1900.516</ele>
        <time>2021-01-10T15:21:59Z</time>
      </trkpt>
      <trkpt lat="45.10856" lon="5.89709">
        <ele>1900.52</ele>
        <time>2021-01-10T15:22:01Z</time>
      </trkpt>
      <trkpt lat="45.10856" lon="5.89709">
        <ele>1900.521</ele>
        <time>2021-01-10T15:22:03Z</time>
      </trkpt>
      <trkpt lat="45.10856" lon="5.89709">
        <ele>1900.52</ele>
        <time>2021-01-10T15:22:06Z</time>
      </trkpt>
      <trkpt lat="45.10856" lon="5.89709">
        <ele>1900.521</ele>
        <time>2021-01-10T15:22:08Z</time>
      </trkpt>
      <trkpt lat="45.10856" lon="5.89709">
        <ele>1900.518</ele>
        <time>2021-01-10T15:22:11Z</time>
      </trkpt>
      <trkpt lat="45.10856" lon="5.89709">
        <ele>1900.519</ele>
        <time>2021-01-10T15:22:14Z</time>
      </trkpt>
      <trkpt lat="45.10856" lon="5.89709">
        <ele>1900.521</ele>
        <time>2021-01-10T15:22:16Z</time>
      </trkpt>
      <trkpt lat="45.10856" lon="5.89709">
        <ele>1900.52</ele>
        <time>2021-01-10T15:22:18Z</time>
      </trkpt>
      <trkpt lat="45.10856" lon="5.89709">
        <ele>1900.521</ele>
        <time>2021-01-10T15:22:21Z</time>
      </trkpt>
      <trkpt lat="45.10856" lon="5.89709">
        <ele>1900.517</ele>
        <time>2021-01-10T15:22:23Z</time>
      </trkpt>
      <trkpt lat="45.10856" lon="5.89713">
        <ele>1900.818</ele>
        <time>2021-01-10T15:22:26Z</time>
      </trkpt>
      <trkpt lat="45.10855" lon="5.89716">
        <ele>1902.037</ele>
        <time>2021-01-10T15:22:28Z</time>
      </trkpt>
      <trkpt lat="45.10854" lon="5.89721">
        <ele>1902.485</ele>
        <time>2021-01-10T15:22:31Z</time>
      </trkpt>
      <trkpt lat="45.10853" lon="5.89725">
        <ele>1903.998</ele>
        <time>2021-01-10T15:22:33Z</time>
      </trkpt>
      <trkpt lat="45.10852" lon="5.89733">
        <ele>1908.331</ele>
        <time>2021-01-10T15:22:36Z</time>
      </trkpt>
      <trkpt lat="45.10851" lon="5.89737">
        <ele>1908.949</ele>
        <time>2021-01-10T15:22:38Z</time>
      </trkpt>
      <trkpt lat="45.10852" lon="5.89742">
        <ele>1908.551</ele>
        <time>2021-01-10T15:22:41Z</time>
      </trkpt>
      <trkpt lat="45.10855" lon="5.89745">
        <ele>1910.041</ele>
        <time>2021-01-10T15:22:43Z</time>
      </trkpt>
      <trkpt lat="45.10857" lon="5.89749">
        <ele>1909.908</ele>
        <time>2021-01-10T15:22:46Z</time>
      </trkpt>
      <trkpt lat="45.10859" lon="5.8975">
        <ele>1906.176</ele>
        <time>2021-01-10T15:22:48Z</time>
      </trkpt>
      <trkpt lat="45.10864" lon="5.89751">
        <ele>1906.405</ele>
        <time>2021-01-10T15:22:51Z</time>
      </trkpt>
      <trkpt lat="45.10869" lon="5.89758">
        <ele>1904.26</ele>
        <time>2021-01-10T15:22:54Z</time>
      </trkpt>
      <trkpt lat="45.10868" lon="5.89769">
        <ele>1902.621</ele>
        <time>2021-01-10T15:22:57Z</time>
      </trkpt>
      <trkpt lat="45.10868" lon="5.89777">
        <ele>1900.909</ele>
        <time>2021-01-10T15:23:00Z</time>
      </trkpt>
      <trkpt lat="45.10869" lon="5.89783">
        <ele>1903.152</ele>
        <time>2021-01-10T15:23:03Z</time>
      </trkpt>
      <trkpt lat="45.10871" lon="5.89785">
        <ele>1904.578</ele>
        <time>2021-01-10T15:23:06Z</time>
      </trkpt>
      <trkpt lat="45.10871" lon="5.89787">
        <ele>1903.126</ele>
        <time>2021-01-10T15:23:08Z</time>
      </trkpt>
      <trkpt lat="45.10871" lon="5.89792">
        <ele>1906.247</ele>
        <time>2021-01-10T15:23:11Z</time>
      </trkpt>
      <trkpt lat="45.1087" lon="5.89797">
        <ele>1908.801</ele>
        <time>2021-01-10T15:23:14Z</time>
      </trkpt>
      <trkpt lat="45.10871" lon="5.89798">
        <ele>1910.82</ele>
        <time>2021-01-10T15:23:16Z</time>
      </trkpt>
      <trkpt lat="45.10871" lon="5.89801">
        <ele>1912.372</ele>
        <time>2021-01-10T15:23:19Z</time>
      </trkpt>
      <trkpt lat="45.10872" lon="5.89805">
        <ele>1914.821</ele>
        <time>2021-01-10T15:23:22Z</time>
      </trkpt>
      <trkpt lat="45.10871" lon="5.89811">
        <ele>1915.269</ele>
        <time>2021-01-10T15:23:25Z</time>
      </trkpt>
      <trkpt lat="45.10872" lon="5.89815">
        <ele>1914.069</ele>
        <time>2021-01-10T15:23:28Z</time>
      </trkpt>
      <trkpt lat="45.10873" lon="5.8982">
        <ele>1913.568</ele>
        <time>2021-01-10T15:23:31Z</time>
      </trkpt>
      <trkpt lat="45.10875" lon="5.89825">
        <ele>1915.389</ele>
        <time>2021-01-10T15:23:34Z</time>
      </trkpt>
      <trkpt lat="45.10877" lon="5.89828">
        <ele>1914.422</ele>
        <time>2021-01-10T15:23:37Z</time>
      </trkpt>
      <trkpt lat="45.10878" lon="5.89828">
        <ele>1915.209</ele>
        <time>2021-01-10T15:23:40Z</time>
      </trkpt>
      <trkpt lat="45.10879" lon="5.89831">
        <ele>1912.516</ele>
        <time>2021-01-10T15:23:43Z</time>
      </trkpt>
      <trkpt lat="45.1088" lon="5.89831">
        <ele>1911.461</ele>
        <time>2021-01-10T15:23:46Z</time>
      </trkpt>
      <trkpt lat="45.1088" lon="5.89831">
        <ele>1909.041</ele>
        <time>2021-01-10T15:23:49Z</time>
      </trkpt>
      <trkpt lat="45.10882" lon="5.89832">
        <ele>1909.469</ele>
        <time>2021-01-10T15:23:51Z</time>
      </trkpt>
      <trkpt lat="45.10883" lon="5.89832">
        <ele>1909.58</ele>
        <time>2021-01-10T15:23:53Z</time>
      </trkpt>
      <trkpt lat="45.10885" lon="5.89834">
        <ele>1908.191</ele>
        <time>2021-01-10T15:23:55Z</time>
      </trkpt>
      <trkpt lat="45.10887" lon="5.89836">
        <ele>1909.724</ele>
        <time>2021-01-10T15:23:57Z</time>
      </trkpt>
      <trkpt lat="45.10891" lon="5.89838">
        <ele>1910.623</ele>
        <time>2021-01-10T15:24:00Z</time>
      </trkpt>
      <trkpt lat="45.10892" lon="5.89841">
        <ele>1912.246</ele>
        <time>2021-01-10T15:24:03Z</time>
      </trkpt>
      <trkpt lat="45.10893" lon="5.89843">
        <ele>1912.822</ele>
        <time>2021-01-10T15:24:05Z</time>
      </trkpt>
      <trkpt lat="45.10895" lon="5.89843">
        <ele>1912.11</ele>
        <time>2021-01-10T15:24:07Z</time>
      </trkpt>
      <trkpt lat="45.10896" lon="5.89846">
        <ele>1913.005</ele>
        <time>2021-01-10T15:24:10Z</time>
      </trkpt>
      <trkpt lat="45.10899" lon="5.89844">
        <ele>1915.005</ele>
        <time>2021-01-10T15:24:13Z</time>
      </trkpt>
      <trkpt lat="45.109" lon="5.89845">
        <ele>1916.245</ele>
        <time>2021-01-10T15:24:16Z</time>
      </trkpt>
      <trkpt lat="45.10901" lon="5.89845">
        <ele>1916.691</ele>
        <time>2021-01-10T15:24:19Z</time>
      </trkpt>
      <trkpt lat="45.10902" lon="5.89848">
        <ele>1916.58</ele>
        <time>2021-01-10T15:24:21Z</time>
      </trkpt>
      <trkpt lat="45.10901" lon="5.8985">
        <ele>1917.396</ele>
        <time>2021-01-10T15:24:23Z</time>
      </trkpt>
      <trkpt lat="45.10901" lon="5.89852">
        <ele>1920.693</ele>
        <time>2021-01-10T15:24:26Z</time>
      </trkpt>
      <trkpt lat="45.10901" lon="5.89856">
        <ele>1919.669</ele>
        <time>2021-01-10T15:24:29Z</time>
      </trkpt>
      <trkpt lat="45.10899" lon="5.8986">
        <ele>1920.018</ele>
        <time>2021-01-10T15:24:32Z</time>
      </trkpt>
      <trkpt lat="45.10897" lon="5.89862">
        <ele>1923.113</ele>
        <time>2021-01-10T15:24:35Z</time>
      </trkpt>
      <trkpt lat="45.10897" lon="5.89864">
        <ele>1922.649</ele>
        <time>2021-01-10T15:24:37Z</time>
      </trkpt>
      <trkpt lat="45.109" lon="5.89866">
        <ele>1924.508</ele>
        <time>2021-01-10T15:24:40Z</time>
      </trkpt>
      <trkpt lat="45.10901" lon="5.89871">
        <ele>1926.105</ele>
        <time>2021-01-10T15:24:43Z</time>
      </trkpt>
      <trkpt lat="45.10902" lon="5.89875">
        <ele>1928.394</ele>
        <time>2021-01-10T15:24:46Z</time>
      </trkpt>
      <trkpt lat="45.109" lon="5.89875">
        <ele>1934.9</ele>
        <time>2021-01-10T15:24:49Z</time>
      </trkpt>
      <trkpt lat="45.10899" lon="5.89875">
        <ele>1933.051</ele>
        <time>2021-01-10T15:24:52Z</time>
      </trkpt>
      <trkpt lat="45.109" lon="5.89875">
        <ele>1931.813</ele>
        <time>2021-01-10T15:24:54Z</time>
      </trkpt>
      <trkpt lat="45.109" lon="5.89876">
        <ele>1931.692</ele>
        <time>2021-01-10T15:24:56Z</time>
      </trkpt>
      <trkpt lat="45.109" lon="5.89875">
        <ele>1930.939</ele>
        <time>2021-01-10T15:24:59Z</time>
      </trkpt>
      <trkpt lat="45.109" lon="5.89875">
        <ele>1931.021</ele>
        <time>2021-01-10T15:25:02Z</time>
      </trkpt>
      <trkpt lat="45.109" lon="5.89875">
        <ele>1930.672</ele>
        <time>2021-01-10T15:25:05Z</time>
      </trkpt>
      <trkpt lat="45.109" lon="5.89875">
        <ele>1930.539</ele>
        <time>2021-01-10T15:25:08Z</time>
      </trkpt>
      <trkpt lat="45.109" lon="5.89876">
        <ele>1930.721</ele>
        <time>2021-01-10T15:25:11Z</time>
      </trkpt>
      <trkpt lat="45.109" lon="5.89876">
        <ele>1930.757</ele>
        <time>2021-01-10T15:25:14Z</time>
      </trkpt>
      <trkpt lat="45.109" lon="5.89876">
        <ele>1930.681</ele>
        <time>2021-01-10T15:25:17Z</time>
      </trkpt>
      <trkpt lat="45.109" lon="5.89876">
        <ele>1930.5</ele>
        <time>2021-01-10T15:25:20Z</time>
      </trkpt>
      <trkpt lat="45.109" lon="5.89876">
        <ele>1930.458</ele>
        <time>2021-01-10T15:25:23Z</time>
      </trkpt>
      <trkpt lat="45.109" lon="5.89876">
        <ele>1930.438</ele>
        <time>2021-01-10T15:25:26Z</time>
      </trkpt>
      <trkpt lat="45.109" lon="5.89876">
        <ele>1930.443</ele>
        <time>2021-01-10T15:25:28Z</time>
      </trkpt>
      <trkpt lat="45.109" lon="5.89876">
        <ele>1930.435</ele>
        <time>2021-01-10T15:25:31Z</time>
      </trkpt>
      <trkpt lat="45.109" lon="5.89876">
        <ele>1930.437</ele>
        <time>2021-01-10T15:25:33Z</time>
      </trkpt>
      <trkpt lat="45.109" lon="5.89876">
        <ele>1930.44</ele>
        <time>2021-01-10T15:25:36Z</time>
      </trkpt>
      <trkpt lat="45.109" lon="5.89876">
        <ele>1930.441</ele>
        <time>2021-01-10T15:25:38Z</time>
      </trkpt>
      <trkpt lat="45.10901" lon="5.89877">
        <ele>1930.622</ele>
        <time>2021-01-10T15:25:40Z</time>
      </trkpt>
      <trkpt lat="45.10905" lon="5.89884">
        <ele>1924.054</ele>
        <time>2021-01-10T15:25:43Z</time>
      </trkpt>
      <trkpt lat="45.10907" lon="5.89892">
        <ele>1925.552</ele>
        <time>2021-01-10T15:25:46Z</time>
      </trkpt>
      <trkpt lat="45.10907" lon="5.89895">
        <ele>1924.932</ele>
        <time>2021-01-10T15:25:48Z</time>
      </trkpt>
      <trkpt lat="45.10908" lon="5.89899">
        <ele>1923.764</ele>
        <time>2021-01-10T15:25:50Z</time>
      </trkpt>
      <trkpt lat="45.10908" lon="5.89902">
        <ele>1924.555</ele>
        <time>2021-01-10T15:25:52Z</time>
      </trkpt>
      <trkpt lat="45.10908" lon="5.89908">
        <ele>1923.998</ele>
        <time>2021-01-10T15:25:54Z</time>
      </trkpt>
      <trkpt lat="45.10908" lon="5.89913">
        <ele>1925.162</ele>
        <time>2021-01-10T15:25:56Z</time>
      </trkpt>
      <trkpt lat="45.1091" lon="5.89921">
        <ele>1924.58</ele>
        <time>2021-01-10T15:25:59Z</time>
      </trkpt>
      <trkpt lat="45.1091" lon="5.8993">
        <ele>1927.892</ele>
        <time>2021-01-10T15:26:02Z</time>
      </trkpt>
      <trkpt lat="45.10913" lon="5.89934">
        <ele>1922.164</ele>
        <time>2021-01-10T15:26:05Z</time>
      </trkpt>
      <trkpt lat="45.10915" lon="5.89932">
        <ele>1921.704</ele>
        <time>2021-01-10T15:26:07Z</time>
      </trkpt>
      <trkpt lat="45.10919" lon="5.8993">
        <ele>1916.874</ele>
        <time>2021-01-10T15:26:10Z</time>
      </trkpt>
      <trkpt lat="45.10923" lon="5.89928">
        <ele>1915.286</ele>
        <time>2021-01-10T15:26:12Z</time>
      </trkpt>
      <trkpt lat="45.10926" lon="5.89927">
        <ele>1913.624</ele>
        <time>2021-01-10T15:26:15Z</time>
      </trkpt>
      <trkpt lat="45.10929" lon="5.89929">
        <ele>1916.438</ele>
        <time>2021-01-10T15:26:17Z</time>
      </trkpt>
      <trkpt lat="45.10929" lon="5.89934">
        <ele>1913.598</ele>
        <time>2021-01-10T15:26:20Z</time>
      </trkpt>
      <trkpt lat="45.10931" lon="5.89937">
        <ele>1911.114</ele>
        <time>2021-01-10T15:26:22Z</time>
      </trkpt>
      <trkpt lat="45.10933" lon="5.89941">
        <ele>1912.94</ele>
        <time>2021-01-10T15:26:24Z</time>
      </trkpt>
      <trkpt lat="45.10937" lon="5.89945">
        <ele>1916.458</ele>
        <time>2021-01-10T15:26:27Z</time>
      </trkpt>
      <trkpt lat="45.10939" lon="5.89947">
        <ele>1912.993</ele>
        <time>2021-01-10T15:26:29Z</time>
      </trkpt>
      <trkpt lat="45.10941" lon="5.89949">
        <ele>1913.302</ele>
        <time>2021-01-10T15:26:31Z</time>
      </trkpt>
      <trkpt lat="45.10945" lon="5.89954">
        <ele>1914.486</ele>
        <time>2021-01-10T15:26:34Z</time>
      </trkpt>
      <trkpt lat="45.10948" lon="5.89957">
        <ele>1914.631</ele>
        <time>2021-01-10T15:26:36Z</time>
      </trkpt>
      <trkpt lat="45.10951" lon="5.8996">
        <ele>1915.481</ele>
        <time>2021-01-10T15:26:39Z</time>
      </trkpt>
      <trkpt lat="45.10952" lon="5.89962">
        <ele>1915.397</ele>
        <time>2021-01-10T15:26:41Z</time>
      </trkpt>
      <trkpt lat="45.10952" lon="5.89963">
        <ele>1915.328</ele>
        <time>2021-01-10T15:26:43Z</time>
      </trkpt>
      <trkpt lat="45.10953" lon="5.89965">
        <ele>1914.47</ele>
        <time>2021-01-10T15:26:46Z</time>
      </trkpt>
      <trkpt lat="45.10954" lon="5.89967">
        <ele>1913.406</ele>
        <time>2021-01-10T15:26:48Z</time>
      </trkpt>
      <trkpt lat="45.10953" lon="5.89969">
        <ele>1910.484</ele>
        <time>2021-01-10T15:26:51Z</time>
      </trkpt>
      <trkpt lat="45.10954" lon="5.89971">
        <ele>1910.539</ele>
        <time>2021-01-10T15:26:54Z</time>
      </trkpt>
      <trkpt lat="45.10955" lon="5.89971">
        <ele>1910.794</ele>
        <time>2021-01-10T15:26:57Z</time>
      </trkpt>
      <trkpt lat="45.10957" lon="5.89973">
        <ele>1912.338</ele>
        <time>2021-01-10T15:26:59Z</time>
      </trkpt>
      <trkpt lat="45.10959" lon="5.89976">
        <ele>1911.636</ele>
        <time>2021-01-10T15:27:02Z</time>
      </trkpt>
      <trkpt lat="45.10963" lon="5.89976">
        <ele>1912.203</ele>
        <time>2021-01-10T15:27:04Z</time>
      </trkpt>
      <trkpt lat="45.10967" lon="5.89976">
        <ele>1911.691</ele>
        <time>2021-01-10T15:27:06Z</time>
      </trkpt>
      <trkpt lat="45.10967" lon="5.89977">
        <ele>1911.641</ele>
        <time>2021-01-10T15:27:08Z</time>
      </trkpt>
      <trkpt lat="45.10969" lon="5.89979">
        <ele>1913.374</ele>
        <time>2021-01-10T15:27:11Z</time>
      </trkpt>
      <trkpt lat="45.10971" lon="5.89988">
        <ele>1913.593</ele>
        <time>2021-01-10T15:27:14Z</time>
      </trkpt>
      <trkpt lat="45.10972" lon="5.89997">
        <ele>1914.128</ele>
        <time>2021-01-10T15:27:17Z</time>
      </trkpt>
      <trkpt lat="45.10975" lon="5.90005">
        <ele>1913.815</ele>
        <time>2021-01-10T15:27:20Z</time>
      </trkpt>
      <trkpt lat="45.10977" lon="5.90007">
        <ele>1913.248</ele>
        <time>2021-01-10T15:27:23Z</time>
      </trkpt>
      <trkpt lat="45.10979" lon="5.90005">
        <ele>1914.427</ele>
        <time>2021-01-10T15:27:25Z</time>
      </trkpt>
      <trkpt lat="45.10981" lon="5.90002">
        <ele>1914.906</ele>
        <time>2021-01-10T15:27:27Z</time>
      </trkpt>
      <trkpt lat="45.10983" lon="5.9">
        <ele>1916.216</ele>
        <time>2021-01-10T15:27:30Z</time>
      </trkpt>
      <trkpt lat="45.10983" lon="5.90005">
        <ele>1917.659</ele>
        <time>2021-01-10T15:27:32Z</time>
      </trkpt>
      <trkpt lat="45.10982" lon="5.90013">
        <ele>1918.906</ele>
        <time>2021-01-10T15:27:35Z</time>
      </trkpt>
      <trkpt lat="45.10983" lon="5.90017">
        <ele>1919.578</ele>
        <time>2021-01-10T15:27:38Z</time>
      </trkpt>
      <trkpt lat="45.10987" lon="5.9002">
        <ele>1920.439</ele>
        <time>2021-01-10T15:27:41Z</time>
      </trkpt>
      <trkpt lat="45.10991" lon="5.90019">
        <ele>1921.314</ele>
        <time>2021-01-10T15:27:44Z</time>
      </trkpt>
      <trkpt lat="45.10993" lon="5.90021">
        <ele>1921.102</ele>
        <time>2021-01-10T15:27:47Z</time>
      </trkpt>
      <trkpt lat="45.10994" lon="5.90024">
        <ele>1918.944</ele>
        <time>2021-01-10T15:27:49Z</time>
      </trkpt>
      <trkpt lat="45.10996" lon="5.90032">
        <ele>1918.541</ele>
        <time>2021-01-10T15:27:52Z</time>
      </trkpt>
      <trkpt lat="45.10996" lon="5.90036">
        <ele>1919.142</ele>
        <time>2021-01-10T15:27:54Z</time>
      </trkpt>
      <trkpt lat="45.10998" lon="5.90037">
        <ele>1918.223</ele>
        <time>2021-01-10T15:27:56Z</time>
      </trkpt>
      <trkpt lat="45.11" lon="5.90038">
        <ele>1920.429</ele>
        <time>2021-01-10T15:27:59Z</time>
      </trkpt>
      <trkpt lat="45.11002" lon="5.90037">
        <ele>1919.977</ele>
        <time>2021-01-10T15:28:01Z</time>
      </trkpt>
      <trkpt lat="45.11003" lon="5.90036">
        <ele>1922.382</ele>
        <time>2021-01-10T15:28:03Z</time>
      </trkpt>
      <trkpt lat="45.11005" lon="5.90039">
        <ele>1919.476</ele>
        <time>2021-01-10T15:28:06Z</time>
      </trkpt>
      <trkpt lat="45.11006" lon="5.90045">
        <ele>1914.08</ele>
        <time>2021-01-10T15:28:09Z</time>
      </trkpt>
      <trkpt lat="45.11007" lon="5.90046">
        <ele>1917.33</ele>
        <time>2021-01-10T15:28:11Z</time>
      </trkpt>
      <trkpt lat="45.11009" lon="5.90045">
        <ele>1918.033</ele>
        <time>2021-01-10T15:28:14Z</time>
      </trkpt>
      <trkpt lat="45.11009" lon="5.90048">
        <ele>1917.775</ele>
        <time>2021-01-10T15:28:16Z</time>
      </trkpt>
      <trkpt lat="45.1101" lon="5.90048">
        <ele>1917.174</ele>
        <time>2021-01-10T15:28:19Z</time>
      </trkpt>
      <trkpt lat="45.11012" lon="5.90047">
        <ele>1913.524</ele>
        <time>2021-01-10T15:28:22Z</time>
      </trkpt>
      <trkpt lat="45.11015" lon="5.9005">
        <ele>1915.801</ele>
        <time>2021-01-10T15:28:25Z</time>
      </trkpt>
      <trkpt lat="45.11017" lon="5.90054">
        <ele>1917.513</ele>
        <time>2021-01-10T15:28:28Z</time>
      </trkpt>
      <trkpt lat="45.11019" lon="5.9006">
        <ele>1919.779</ele>
        <time>2021-01-10T15:28:31Z</time>
      </trkpt>
      <trkpt lat="45.11019" lon="5.90064">
        <ele>1923.371</ele>
        <time>2021-01-10T15:28:33Z</time>
      </trkpt>
      <trkpt lat="45.11018" lon="5.9007">
        <ele>1925.311</ele>
        <time>2021-01-10T15:28:36Z</time>
      </trkpt>
      <trkpt lat="45.11019" lon="5.90073">
        <ele>1927.231</ele>
        <time>2021-01-10T15:28:39Z</time>
      </trkpt>
      <trkpt lat="45.1102" lon="5.90072">
        <ele>1928.368</ele>
        <time>2021-01-10T15:28:42Z</time>
      </trkpt>
      <trkpt lat="45.11022" lon="5.90072">
        <ele>1927.827</ele>
        <time>2021-01-10T15:28:44Z</time>
      </trkpt>
      <trkpt lat="45.11023" lon="5.90073">
        <ele>1930.458</ele>
        <time>2021-01-10T15:28:47Z</time>
      </trkpt>
      <trkpt lat="45.11023" lon="5.90072">
        <ele>1931.36</ele>
        <time>2021-01-10T15:28:50Z</time>
      </trkpt>
      <trkpt lat="45.11024" lon="5.90069">
        <ele>1932.868</ele>
        <time>2021-01-10T15:28:52Z</time>
      </trkpt>
      <trkpt lat="45.11025" lon="5.90067">
        <ele>1934.71</ele>
        <time>2021-01-10T15:28:55Z</time>
      </trkpt>
      <trkpt lat="45.11026" lon="5.90068">
        <ele>1933.626</ele>
        <time>2021-01-10T15:28:57Z</time>
      </trkpt>
      <trkpt lat="45.11027" lon="5.90071">
        <ele>1932.905</ele>
        <time>2021-01-10T15:29:00Z</time>
      </trkpt>
      <trkpt lat="45.11029" lon="5.90073">
        <ele>1933.929</ele>
        <time>2021-01-10T15:29:02Z</time>
      </trkpt>
      <trkpt lat="45.1103" lon="5.9008">
        <ele>1935.807</ele>
        <time>2021-01-10T15:29:05Z</time>
      </trkpt>
      <trkpt lat="45.1103" lon="5.90083">
        <ele>1935.23</ele>
        <time>2021-01-10T15:29:07Z</time>
      </trkpt>
      <trkpt lat="45.11031" lon="5.90085">
        <ele>1935.135</ele>
        <time>2021-01-10T15:29:09Z</time>
      </trkpt>
      <trkpt lat="45.11034" lon="5.90085">
        <ele>1934.243</ele>
        <time>2021-01-10T15:29:12Z</time>
      </trkpt>
      <trkpt lat="45.11036" lon="5.90086">
        <ele>1935.192</ele>
        <time>2021-01-10T15:29:14Z</time>
      </trkpt>
      <trkpt lat="45.11039" lon="5.90084">
        <ele>1934.788</ele>
        <time>2021-01-10T15:29:17Z</time>
      </trkpt>
      <trkpt lat="45.11043" lon="5.9008">
        <ele>1934.411</ele>
        <time>2021-01-10T15:29:19Z</time>
      </trkpt>
      <trkpt lat="45.11044" lon="5.90079">
        <ele>1934.016</ele>
        <time>2021-01-10T15:29:21Z</time>
      </trkpt>
      <trkpt lat="45.11046" lon="5.9008">
        <ele>1935.05</ele>
        <time>2021-01-10T15:29:23Z</time>
      </trkpt>
      <trkpt lat="45.11046" lon="5.90086">
        <ele>1934.192</ele>
        <time>2021-01-10T15:29:26Z</time>
      </trkpt>
      <trkpt lat="45.11047" lon="5.90089">
        <ele>1935.341</ele>
        <time>2021-01-10T15:29:28Z</time>
      </trkpt>
      <trkpt lat="45.11049" lon="5.90097">
        <ele>1939.25</ele>
        <time>2021-01-10T15:29:31Z</time>
      </trkpt>
      <trkpt lat="45.11048" lon="5.90104">
        <ele>1940.491</ele>
        <time>2021-01-10T15:29:34Z</time>
      </trkpt>
      <trkpt lat="45.11048" lon="5.90107">
        <ele>1938.379</ele>
        <time>2021-01-10T15:29:36Z</time>
      </trkpt>
      <trkpt lat="45.11049" lon="5.9011">
        <ele>1940.41</ele>
        <time>2021-01-10T15:29:39Z</time>
      </trkpt>
      <trkpt lat="45.11049" lon="5.90115">
        <ele>1943.539</ele>
        <time>2021-01-10T15:29:42Z</time>
      </trkpt>
      <trkpt lat="45.11049" lon="5.9012">
        <ele>1941.74</ele>
        <time>2021-01-10T15:29:45Z</time>
      </trkpt>
      <trkpt lat="45.11049" lon="5.90123">
        <ele>1939.369</ele>
        <time>2021-01-10T15:29:47Z</time>
      </trkpt>
      <trkpt lat="45.1105" lon="5.90126">
        <ele>1938.002</ele>
        <time>2021-01-10T15:29:50Z</time>
      </trkpt>
      <trkpt lat="45.11052" lon="5.90127">
        <ele>1940.688</ele>
        <time>2021-01-10T15:29:53Z</time>
      </trkpt>
      <trkpt lat="45.11053" lon="5.90127">
        <ele>1939.355</ele>
        <time>2021-01-10T15:29:56Z</time>
      </trkpt>
      <trkpt lat="45.11055" lon="5.90127">
        <ele>1940.984</ele>
        <time>2021-01-10T15:29:59Z</time>
      </trkpt>
      <trkpt lat="45.11058" lon="5.90122">
        <ele>1942.009</ele>
        <time>2021-01-10T15:30:02Z</time>
      </trkpt>
      <trkpt lat="45.1106" lon="5.90117">
        <ele>1940.879</ele>
        <time>2021-01-10T15:30:04Z</time>
      </trkpt>
      <trkpt lat="45.11062" lon="5.90109">
        <ele>1944.23</ele>
        <time>2021-01-10T15:30:07Z</time>
      </trkpt>
      <trkpt lat="45.11065" lon="5.90109">
        <ele>1945.927</ele>
        <time>2021-01-10T15:30:10Z</time>
      </trkpt>
      <trkpt lat="45.11066" lon="5.90112">
        <ele>1943.082</ele>
        <time>2021-01-10T15:30:12Z</time>
      </trkpt>
      <trkpt lat="45.11069" lon="5.90116">
        <ele>1947.958</ele>
        <time>2021-01-10T15:30:15Z</time>
      </trkpt>
      <trkpt lat="45.11071" lon="5.90119">
        <ele>1948.253</ele>
        <time>2021-01-10T15:30:18Z</time>
      </trkpt>
      <trkpt lat="45.11073" lon="5.9012">
        <ele>1949.613</ele>
        <time>2021-01-10T15:30:20Z</time>
      </trkpt>
      <trkpt lat="45.11075" lon="5.90125">
        <ele>1949.68</ele>
        <time>2021-01-10T15:30:23Z</time>
      </trkpt>
      <trkpt lat="45.11076" lon="5.90128">
        <ele>1948.63</ele>
        <time>2021-01-10T15:30:25Z</time>
      </trkpt>
      <trkpt lat="45.11077" lon="5.90128">
        <ele>1949.009</ele>
        <time>2021-01-10T15:30:28Z</time>
      </trkpt>
      <trkpt lat="45.11076" lon="5.90121">
        <ele>1949.296</ele>
        <time>2021-01-10T15:30:31Z</time>
      </trkpt>
      <trkpt lat="45.11075" lon="5.9012">
        <ele>1948.168</ele>
        <time>2021-01-10T15:30:33Z</time>
      </trkpt>
      <trkpt lat="45.11078" lon="5.9012">
        <ele>1951.959</ele>
        <time>2021-01-10T15:30:36Z</time>
      </trkpt>
      <trkpt lat="45.1108" lon="5.9012">
        <ele>1952.687</ele>
        <time>2021-01-10T15:30:39Z</time>
      </trkpt>
      <trkpt lat="45.1108" lon="5.90122">
        <ele>1952.991</ele>
        <time>2021-01-10T15:30:42Z</time>
      </trkpt>
      <trkpt lat="45.11078" lon="5.90125">
        <ele>1953.684</ele>
        <time>2021-01-10T15:30:45Z</time>
      </trkpt>
      <trkpt lat="45.11078" lon="5.90126">
        <ele>1953.658</ele>
        <time>2021-01-10T15:30:48Z</time>
      </trkpt>
      <trkpt lat="45.11078" lon="5.90126">
        <ele>1954.034</ele>
        <time>2021-01-10T15:30:51Z</time>
      </trkpt>
      <trkpt lat="45.11078" lon="5.90126">
        <ele>1953.656</ele>
        <time>2021-01-10T15:30:54Z</time>
      </trkpt>
      <trkpt lat="45.11078" lon="5.90126">
        <ele>1953.731</ele>
        <time>2021-01-10T15:30:57Z</time>
      </trkpt>
      <trkpt lat="45.11078" lon="5.90125">
        <ele>1953.842</ele>
        <time>2021-01-10T15:31:00Z</time>
      </trkpt>
      <trkpt lat="45.11078" lon="5.90125">
        <ele>1953.554</ele>
        <time>2021-01-10T15:31:02Z</time>
      </trkpt>
      <trkpt lat="45.11078" lon="5.90125">
        <ele>1953.611</ele>
        <time>2021-01-10T15:31:05Z</time>
      </trkpt>
      <trkpt lat="45.11077" lon="5.90126">
        <ele>1952.553</ele>
        <time>2021-01-10T15:31:07Z</time>
      </trkpt>
      <trkpt lat="45.11078" lon="5.90126">
        <ele>1953.346</ele>
        <time>2021-01-10T15:31:10Z</time>
      </trkpt>
      <trkpt lat="45.11078" lon="5.90126">
        <ele>1953.689</ele>
        <time>2021-01-10T15:31:13Z</time>
      </trkpt>
      <trkpt lat="45.11079" lon="5.90126">
        <ele>1953.682</ele>
        <time>2021-01-10T15:31:16Z</time>
      </trkpt>
      <trkpt lat="45.11079" lon="5.90126">
        <ele>1953.74</ele>
        <time>2021-01-10T15:31:18Z</time>
      </trkpt>
      <trkpt lat="45.11079" lon="5.90126">
        <ele>1953.702</ele>
        <time>2021-01-10T15:31:20Z</time>
      </trkpt>
      <trkpt lat="45.11079" lon="5.90125">
        <ele>1954.986</ele>
        <time>2021-01-10T15:31:23Z</time>
      </trkpt>
      <trkpt lat="45.11079" lon="5.90125">
        <ele>1954.909</ele>
        <time>2021-01-10T15:31:26Z</time>
      </trkpt>
      <trkpt lat="45.11079" lon="5.90125">
        <ele>1954.872</ele>
        <time>2021-01-10T15:31:28Z</time>
      </trkpt>
      <trkpt lat="45.11079" lon="5.90125">
        <ele>1954.885</ele>
        <time>2021-01-10T15:31:30Z</time>
      </trkpt>
      <trkpt lat="45.11079" lon="5.90125">
        <ele>1954.993</ele>
        <time>2021-01-10T15:31:33Z</time>
      </trkpt>
      <trkpt lat="45.11079" lon="5.90125">
        <ele>1954.941</ele>
        <time>2021-01-10T15:31:36Z</time>
      </trkpt>
      <trkpt lat="45.1108" lon="5.90124">
        <ele>1954.006</ele>
        <time>2021-01-10T15:31:38Z</time>
      </trkpt>
      <trkpt lat="45.11081" lon="5.90123">
        <ele>1953.774</ele>
        <time>2021-01-10T15:31:41Z</time>
      </trkpt>
      <trkpt lat="45.11081" lon="5.90123">
        <ele>1953.899</ele>
        <time>2021-01-10T15:31:44Z</time>
      </trkpt>
      <trkpt lat="45.11081" lon="5.90123">
        <ele>1953.878</ele>
        <time>2021-01-10T15:31:47Z</time>
      </trkpt>
      <trkpt lat="45.11081" lon="5.90123">
        <ele>1953.881</ele>
        <time>2021-01-10T15:31:49Z</time>
      </trkpt>
      <trkpt lat="45.11081" lon="5.90123">
        <ele>1953.851</ele>
        <time>2021-01-10T15:31:52Z</time>
      </trkpt>
      <trkpt lat="45.11081" lon="5.90123">
        <ele>1953.836</ele>
        <time>2021-01-10T15:31:55Z</time>
      </trkpt>
      <trkpt lat="45.11081" lon="5.90123">
        <ele>1953.827</ele>
        <time>2021-01-10T15:31:58Z</time>
      </trkpt>
      <trkpt lat="45.11081" lon="5.90123">
        <ele>1953.792</ele>
        <time>2021-01-10T15:32:00Z</time>
      </trkpt>
      <trkpt lat="45.11081" lon="5.90122">
        <ele>1953.298</ele>
        <time>2021-01-10T15:32:02Z</time>
      </trkpt>
      <trkpt lat="45.11082" lon="5.90122">
        <ele>1952.897</ele>
        <time>2021-01-10T15:32:05Z</time>
      </trkpt>
      <trkpt lat="45.11082" lon="5.90122">
        <ele>1952.574</ele>
        <time>2021-01-10T15:32:08Z</time>
      </trkpt>
      <trkpt lat="45.11082" lon="5.90122">
        <ele>1952.596</ele>
        <time>2021-01-10T15:32:10Z</time>
      </trkpt>
      <trkpt lat="45.11083" lon="5.90122">
        <ele>1952.196</ele>
        <time>2021-01-10T15:32:13Z</time>
      </trkpt>
      <trkpt lat="45.11083" lon="5.90123">
        <ele>1952.04</ele>
        <time>2021-01-10T15:32:16Z</time>
      </trkpt>
      <trkpt lat="45.11083" lon="5.90123">
        <ele>1951.702</ele>
        <time>2021-01-10T15:32:18Z</time>
      </trkpt>
      <trkpt lat="45.11083" lon="5.90123">
        <ele>1951.712</ele>
        <time>2021-01-10T15:32:21Z</time>
      </trkpt>
      <trkpt lat="45.11089" lon="5.90126">
        <ele>1961.673</ele>
        <time>2021-01-10T15:32:24Z</time>
      </trkpt>
      <trkpt lat="45.11091" lon="5.90126">
        <ele>1962.273</ele>
        <time>2021-01-10T15:32:26Z</time>
      </trkpt>
      <trkpt lat="45.11092" lon="5.90127">
        <ele>1961.8</ele>
        <time>2021-01-10T15:32:29Z</time>
      </trkpt>
      <trkpt lat="45.11093" lon="5.90128">
        <ele>1961.602</ele>
        <time>2021-01-10T15:32:32Z</time>
      </trkpt>
      <trkpt lat="45.11093" lon="5.90128">
        <ele>1961.551</ele>
        <time>2021-01-10T15:32:34Z</time>
      </trkpt>
      <trkpt lat="45.11093" lon="5.90128">
        <ele>1961.438</ele>
        <time>2021-01-10T15:32:37Z</time>
      </trkpt>
      <trkpt lat="45.11093" lon="5.90128">
        <ele>1961.469</ele>
        <time>2021-01-10T15:32:40Z</time>
      </trkpt>
      <trkpt lat="45.11093" lon="5.90128">
        <ele>1961.506</ele>
        <time>2021-01-10T15:32:42Z</time>
      </trkpt>
      <trkpt lat="45.11093" lon="5.90128">
        <ele>1961.562</ele>
        <time>2021-01-10T15:32:45Z</time>
      </trkpt>
      <trkpt lat="45.11093" lon="5.90128">
        <ele>1961.188</ele>
        <time>2021-01-10T15:32:47Z</time>
      </trkpt>
      <trkpt lat="45.11094" lon="5.90128">
        <ele>1960.583</ele>
        <time>2021-01-10T15:32:50Z</time>
      </trkpt>
      <trkpt lat="45.11094" lon="5.90129">
        <ele>1960.464</ele>
        <time>2021-01-10T15:32:53Z</time>
      </trkpt>
      <trkpt lat="45.11094" lon="5.90128">
        <ele>1961.032</ele>
        <time>2021-01-10T15:32:55Z</time>
      </trkpt>
      <trkpt lat="45.11094" lon="5.90128">
        <ele>1960.993</ele>
        <time>2021-01-10T15:32:57Z</time>
      </trkpt>
      <trkpt lat="45.11094" lon="5.90128">
        <ele>1961.684</ele>
        <time>2021-01-10T15:33:00Z</time>
      </trkpt>
      <trkpt lat="45.11094" lon="5.90128">
        <ele>1961.159</ele>
        <time>2021-01-10T15:33:02Z</time>
      </trkpt>
      <trkpt lat="45.11094" lon="5.90128">
        <ele>1961.356</ele>
        <time>2021-01-10T15:33:05Z</time>
      </trkpt>
      <trkpt lat="45.11094" lon="5.90128">
        <ele>1961.319</ele>
        <time>2021-01-10T15:33:08Z</time>
      </trkpt>
      <trkpt lat="45.11094" lon="5.90128">
        <ele>1961.326</ele>
        <time>2021-01-10T15:33:11Z</time>
      </trkpt>
      <trkpt lat="45.11094" lon="5.90128">
        <ele>1961.334</ele>
        <time>2021-01-10T15:33:14Z</time>
      </trkpt>
      <trkpt lat="45.11094" lon="5.90128">
        <ele>1961.311</ele>
        <time>2021-01-10T15:33:16Z</time>
      </trkpt>
      <trkpt lat="45.11094" lon="5.90128">
        <ele>1961.299</ele>
        <time>2021-01-10T15:33:19Z</time>
      </trkpt>
      <trkpt lat="45.11094" lon="5.90128">
        <ele>1961.301</ele>
        <time>2021-01-10T15:33:21Z</time>
      </trkpt>
      <trkpt lat="45.11094" lon="5.90128">
        <ele>1961.299</ele>
        <time>2021-01-10T15:33:23Z</time>
      </trkpt>
      <trkpt lat="45.11094" lon="5.90128">
        <ele>1961.297</ele>
        <time>2021-01-10T15:33:25Z</time>
      </trkpt>
      <trkpt lat="45.11094" lon="5.90128">
        <ele>1961.293</ele>
        <time>2021-01-10T15:33:28Z</time>
      </trkpt>
      <trkpt lat="45.11094" lon="5.90128">
        <ele>1961.321</ele>
        <time>2021-01-10T15:33:31Z</time>
      </trkpt>
      <trkpt lat="45.11094" lon="5.90128">
        <ele>1961.33</ele>
        <time>2021-01-10T15:33:33Z</time>
      </trkpt>
      <trkpt lat="45.11094" lon="5.90128">
        <ele>1961.342</ele>
        <time>2021-01-10T15:33:36Z</time>
      </trkpt>
      <trkpt lat="45.11094" lon="5.90128">
        <ele>1961.142</ele>
        <time>2021-01-10T15:33:39Z</time>
      </trkpt>
      <trkpt lat="45.11094" lon="5.90128">
        <ele>1961.152</ele>
        <time>2021-01-10T15:33:41Z</time>
      </trkpt>
      <trkpt lat="45.11094" lon="5.90128">
        <ele>1961.16</ele>
        <time>2021-01-10T15:33:44Z</time>
      </trkpt>
      <trkpt lat="45.11094" lon="5.90128">
        <ele>1961.157</ele>
        <time>2021-01-10T15:33:47Z</time>
      </trkpt>
      <trkpt lat="45.11096" lon="5.90128">
        <ele>1961.003</ele>
        <time>2021-01-10T15:33:50Z</time>
      </trkpt>
      <trkpt lat="45.11096" lon="5.90129">
        <ele>1961.906</ele>
        <time>2021-01-10T15:33:53Z</time>
      </trkpt>
      <trkpt lat="45.11097" lon="5.9013">
        <ele>1965.225</ele>
        <time>2021-01-10T15:33:55Z</time>
      </trkpt>
      <trkpt lat="45.11099" lon="5.90131">
        <ele>1964.542</ele>
        <time>2021-01-10T15:33:58Z</time>
      </trkpt>
      <trkpt lat="45.11102" lon="5.90132">
        <ele>1965.508</ele>
        <time>2021-01-10T15:34:01Z</time>
      </trkpt>
      <trkpt lat="45.11102" lon="5.90132">
        <ele>1965.801</ele>
        <time>2021-01-10T15:34:03Z</time>
      </trkpt>
      <trkpt lat="45.11103" lon="5.90132">
        <ele>1965.007</ele>
        <time>2021-01-10T15:34:06Z</time>
      </trkpt>
      <trkpt lat="45.11103" lon="5.90132">
        <ele>1964.453</ele>
        <time>2021-01-10T15:34:08Z</time>
      </trkpt>
      <trkpt lat="45.11104" lon="5.90132">
        <ele>1964.524</ele>
        <time>2021-01-10T15:34:11Z</time>
      </trkpt>
      <trkpt lat="45.11104" lon="5.90132">
        <ele>1964.497</ele>
        <time>2021-01-10T15:34:14Z</time>
      </trkpt>
      <trkpt lat="45.11104" lon="5.90132">
        <ele>1964.479</ele>
        <time>2021-01-10T15:34:17Z</time>
      </trkpt>
      <trkpt lat="45.11104" lon="5.90132">
        <ele>1964.473</ele>
        <time>2021-01-10T15:34:19Z</time>
      </trkpt>
      <trkpt lat="45.11104" lon="5.90132">
        <ele>1964.572</ele>
        <time>2021-01-10T15:34:21Z</time>
      </trkpt>
      <trkpt lat="45.11104" lon="5.90132">
        <ele>1964.702</ele>
        <time>2021-01-10T15:34:24Z</time>
      </trkpt>
      <trkpt lat="45.11103" lon="5.90132">
        <ele>1964.713</ele>
        <time>2021-01-10T15:34:27Z</time>
      </trkpt>
      <trkpt lat="45.11103" lon="5.90132">
        <ele>1964.711</ele>
        <time>2021-01-10T15:34:30Z</time>
      </trkpt>
      <trkpt lat="45.11103" lon="5.90132">
        <ele>1964.709</ele>
        <time>2021-01-10T15:34:32Z</time>
      </trkpt>
      <trkpt lat="45.11103" lon="5.90132">
        <ele>1964.709</ele>
        <time>2021-01-10T15:34:35Z</time>
      </trkpt>
      <trkpt lat="45.11103" lon="5.90132">
        <ele>1964.829</ele>
        <time>2021-01-10T15:34:38Z</time>
      </trkpt>
      <trkpt lat="45.11103" lon="5.90132">
        <ele>1964.812</ele>
        <time>2021-01-10T15:34:40Z</time>
      </trkpt>
      <trkpt lat="45.11104" lon="5.90132">
        <ele>1964.818</ele>
        <time>2021-01-10T15:34:43Z</time>
      </trkpt>
      <trkpt lat="45.11103" lon="5.90132">
        <ele>1964.836</ele>
        <time>2021-01-10T15:34:45Z</time>
      </trkpt>
      <trkpt lat="45.11103" lon="5.90132">
        <ele>1965.108</ele>
        <time>2021-01-10T15:34:47Z</time>
      </trkpt>
      <trkpt lat="45.11103" lon="5.90131">
        <ele>1965.797</ele>
        <time>2021-01-10T15:34:50Z</time>
      </trkpt>
      <trkpt lat="45.11102" lon="5.9013">
        <ele>1965.398</ele>
        <time>2021-01-10T15:34:53Z</time>
      </trkpt>
      <trkpt lat="45.11101" lon="5.9013">
        <ele>1964.813</ele>
        <time>2021-01-10T15:34:56Z</time>
      </trkpt>
      <trkpt lat="45.11102" lon="5.90131">
        <ele>1964.341</ele>
        <time>2021-01-10T15:34:59Z</time>
      </trkpt>
      <trkpt lat="45.11102" lon="5.90132">
        <ele>1964.121</ele>
        <time>2021-01-10T15:35:02Z</time>
      </trkpt>
      <trkpt lat="45.11102" lon="5.90132">
        <ele>1964.5</ele>
        <time>2021-01-10T15:35:05Z</time>
      </trkpt>
      <trkpt lat="45.11102" lon="5.90132">
        <ele>1964.385</ele>
        <time>2021-01-10T15:35:08Z</time>
      </trkpt>
      <trkpt lat="45.11102" lon="5.90132">
        <ele>1964.445</ele>
        <time>2021-01-10T15:35:11Z</time>
      </trkpt>
      <trkpt lat="45.11102" lon="5.90132">
        <ele>1964.397</ele>
        <time>2021-01-10T15:35:14Z</time>
      </trkpt>
      <trkpt lat="45.11102" lon="5.90132">
        <ele>1964.395</ele>
        <time>2021-01-10T15:35:16Z</time>
      </trkpt>
      <trkpt lat="45.11102" lon="5.90132">
        <ele>1964.391</ele>
        <time>2021-01-10T15:35:19Z</time>
      </trkpt>
      <trkpt lat="45.11105" lon="5.90135">
        <ele>1963.984</ele>
        <time>2021-01-10T15:35:22Z</time>
      </trkpt>
      <trkpt lat="45.1111" lon="5.90137">
        <ele>1962.379</ele>
        <time>2021-01-10T15:35:25Z</time>
      </trkpt>
      <trkpt lat="45.11114" lon="5.9014">
        <ele>1964.602</ele>
        <time>2021-01-10T15:35:28Z</time>
      </trkpt>
      <trkpt lat="45.11117" lon="5.90142">
        <ele>1966.649</ele>
        <time>2021-01-10T15:35:30Z</time>
      </trkpt>
      <trkpt lat="45.11121" lon="5.90143">
        <ele>1966.89</ele>
        <time>2021-01-10T15:35:33Z</time>
      </trkpt>
      <trkpt lat="45.11124" lon="5.90143">
        <ele>1968.606</ele>
        <time>2021-01-10T15:35:35Z</time>
      </trkpt>
      <trkpt lat="45.11127" lon="5.90145">
        <ele>1970.228</ele>
        <time>2021-01-10T15:35:38Z</time>
      </trkpt>
      <trkpt lat="45.1113" lon="5.90145">
        <ele>1970.53</ele>
        <time>2021-01-10T15:35:41Z</time>
      </trkpt>
      <trkpt lat="45.11133" lon="5.90145">
        <ele>1968.111</ele>
        <time>2021-01-10T15:35:43Z</time>
      </trkpt>
      <trkpt lat="45.11135" lon="5.90145">
        <ele>1967.414</ele>
        <time>2021-01-10T15:35:45Z</time>
      </trkpt>
      <trkpt lat="45.11137" lon="5.90144">
        <ele>1965.249</ele>
        <time>2021-01-10T15:35:47Z</time>
      </trkpt>
      <trkpt lat="45.1114" lon="5.90143">
        <ele>1966.26</ele>
        <time>2021-01-10T15:35:50Z</time>
      </trkpt>
      <trkpt lat="45.11142" lon="5.90142">
        <ele>1966.536</ele>
        <time>2021-01-10T15:35:52Z</time>
      </trkpt>
      <trkpt lat="45.11145" lon="5.90141">
        <ele>1967.921</ele>
        <time>2021-01-10T15:35:54Z</time>
      </trkpt>
      <trkpt lat="45.11147" lon="5.9014">
        <ele>1971.416</ele>
        <time>2021-01-10T15:35:56Z</time>
      </trkpt>
      <trkpt lat="45.1115" lon="5.90141">
        <ele>1972.647</ele>
        <time>2021-01-10T15:35:59Z</time>
      </trkpt>
      <trkpt lat="45.1115" lon="5.90141">
        <ele>1972.307</ele>
        <time>2021-01-10T15:36:01Z</time>
      </trkpt>
      <trkpt lat="45.1115" lon="5.90142">
        <ele>1972.429</ele>
        <time>2021-01-10T15:36:04Z</time>
      </trkpt>
      <trkpt lat="45.1115" lon="5.90142">
        <ele>1971.632</ele>
        <time>2021-01-10T15:36:06Z</time>
      </trkpt>
      <trkpt lat="45.1115" lon="5.90143">
        <ele>1971.38</ele>
        <time>2021-01-10T15:36:09Z</time>
      </trkpt>
      <trkpt lat="45.1115" lon="5.90143">
        <ele>1971.204</ele>
        <time>2021-01-10T15:36:11Z</time>
      </trkpt>
      <trkpt lat="45.11151" lon="5.90143">
        <ele>1970.299</ele>
        <time>2021-01-10T15:36:14Z</time>
      </trkpt>
      <trkpt lat="45.11151" lon="5.90144">
        <ele>1970.304</ele>
        <time>2021-01-10T15:36:16Z</time>
      </trkpt>
      <trkpt lat="45.11154" lon="5.90145">
        <ele>1968.417</ele>
        <time>2021-01-10T15:36:19Z</time>
      </trkpt>
      <trkpt lat="45.11158" lon="5.90146">
        <ele>1970.357</ele>
        <time>2021-01-10T15:36:22Z</time>
      </trkpt>
      <trkpt lat="45.11161" lon="5.90147">
        <ele>1969.524</ele>
        <time>2021-01-10T15:36:24Z</time>
      </trkpt>
      <trkpt lat="45.11164" lon="5.90147">
        <ele>1969.473</ele>
        <time>2021-01-10T15:36:26Z</time>
      </trkpt>
      <trkpt lat="45.11168" lon="5.90147">
        <ele>1969.469</ele>
        <time>2021-01-10T15:36:29Z</time>
      </trkpt>
      <trkpt lat="45.11171" lon="5.90148">
        <ele>1969.431</ele>
        <time>2021-01-10T15:36:31Z</time>
      </trkpt>
      <trkpt lat="45.11174" lon="5.9015">
        <ele>1969.164</ele>
        <time>2021-01-10T15:36:33Z</time>
      </trkpt>
      <trkpt lat="45.11176" lon="5.90152">
        <ele>1968.271</ele>
        <time>2021-01-10T15:36:35Z</time>
      </trkpt>
      <trkpt lat="45.11178" lon="5.90153">
        <ele>1969.573</ele>
        <time>2021-01-10T15:36:38Z</time>
      </trkpt>
      <trkpt lat="45.1118" lon="5.90153">
        <ele>1969.89</ele>
        <time>2021-01-10T15:36:41Z</time>
      </trkpt>
      <trkpt lat="45.11185" lon="5.90154">
        <ele>1967.467</ele>
        <time>2021-01-10T15:36:44Z</time>
      </trkpt>
      <trkpt lat="45.11188" lon="5.90155">
        <ele>1965.511</ele>
        <time>2021-01-10T15:36:47Z</time>
      </trkpt>
      <trkpt lat="45.11192" lon="5.90155">
        <ele>1963.716</ele>
        <time>2021-01-10T15:36:50Z</time>
      </trkpt>
      <trkpt lat="45.11194" lon="5.90155">
        <ele>1960.765</ele>
        <time>2021-01-10T15:36:53Z</time>
      </trkpt>
      <trkpt lat="45.11196" lon="5.90155">
        <ele>1960.819</ele>
        <time>2021-01-10T15:36:55Z</time>
      </trkpt>
      <trkpt lat="45.11197" lon="5.90155">
        <ele>1960.556</ele>
        <time>2021-01-10T15:36:57Z</time>
      </trkpt>
      <trkpt lat="45.11198" lon="5.90152">
        <ele>1961.708</ele>
        <time>2021-01-10T15:37:00Z</time>
      </trkpt>
      <trkpt lat="45.11201" lon="5.90152">
        <ele>1961.814</ele>
        <time>2021-01-10T15:37:02Z</time>
      </trkpt>
      <trkpt lat="45.11204" lon="5.90153">
        <ele>1961.554</ele>
        <time>2021-01-10T15:37:05Z</time>
      </trkpt>
      <trkpt lat="45.11207" lon="5.90155">
        <ele>1962.77</ele>
        <time>2021-01-10T15:37:08Z</time>
      </trkpt>
      <trkpt lat="45.1121" lon="5.90158">
        <ele>1960.932</ele>
        <time>2021-01-10T15:37:11Z</time>
      </trkpt>
      <trkpt lat="45.11212" lon="5.90158">
        <ele>1962.059</ele>
        <time>2021-01-10T15:37:13Z</time>
      </trkpt>
      <trkpt lat="45.11215" lon="5.90158">
        <ele>1962.319</ele>
        <time>2021-01-10T15:37:16Z</time>
      </trkpt>
      <trkpt lat="45.11217" lon="5.90158">
        <ele>1961.428</ele>
        <time>2021-01-10T15:37:18Z</time>
      </trkpt>
      <trkpt lat="45.11221" lon="5.9016">
        <ele>1960.542</ele>
        <time>2021-01-10T15:37:21Z</time>
      </trkpt>
      <trkpt lat="45.11223" lon="5.9016">
        <ele>1960.769</ele>
        <time>2021-01-10T15:37:23Z</time>
      </trkpt>
      <trkpt lat="45.11225" lon="5.90159">
        <ele>1962.333</ele>
        <time>2021-01-10T15:37:26Z</time>
      </trkpt>
      <trkpt lat="45.11226" lon="5.90158">
        <ele>1962.916</ele>
        <time>2021-01-10T15:37:28Z</time>
      </trkpt>
      <trkpt lat="45.11227" lon="5.90158">
        <ele>1963.267</ele>
        <time>2021-01-10T15:37:30Z</time>
      </trkpt>
      <trkpt lat="45.11229" lon="5.90156">
        <ele>1961.823</ele>
        <time>2021-01-10T15:37:32Z</time>
      </trkpt>
      <trkpt lat="45.11232" lon="5.90153">
        <ele>1961.39</ele>
        <time>2021-01-10T15:37:35Z</time>
      </trkpt>
      <trkpt lat="45.11235" lon="5.90153">
        <ele>1959.815</ele>
        <time>2021-01-10T15:37:37Z</time>
      </trkpt>
      <trkpt lat="45.1124" lon="5.90153">
        <ele>1957.861</ele>
        <time>2021-01-10T15:37:40Z</time>
      </trkpt>
      <trkpt lat="45.11245" lon="5.90152">
        <ele>1956.814</ele>
        <time>2021-01-10T15:37:43Z</time>
      </trkpt>
      <trkpt lat="45.11247" lon="5.9015">
        <ele>1958.577</ele>
        <time>2021-01-10T15:37:45Z</time>
      </trkpt>
      <trkpt lat="45.11249" lon="5.90148">
        <ele>1959.101</ele>
        <time>2021-01-10T15:37:47Z</time>
      </trkpt>
      <trkpt lat="45.11252" lon="5.90147">
        <ele>1958.993</ele>
        <time>2021-01-10T15:37:50Z</time>
      </trkpt>
      <trkpt lat="45.11256" lon="5.90145">
        <ele>1958.704</ele>
        <time>2021-01-10T15:37:53Z</time>
      </trkpt>
      <trkpt lat="45.11258" lon="5.90145">
        <ele>1958.333</ele>
        <time>2021-01-10T15:37:55Z</time>
      </trkpt>
      <trkpt lat="45.11262" lon="5.90145">
        <ele>1959.877</ele>
        <time>2021-01-10T15:37:58Z</time>
      </trkpt>
      <trkpt lat="45.11265" lon="5.90145">
        <ele>1959.1</ele>
        <time>2021-01-10T15:38:01Z</time>
      </trkpt>
      <trkpt lat="45.11268" lon="5.90147">
        <ele>1959.113</ele>
        <time>2021-01-10T15:38:03Z</time>
      </trkpt>
      <trkpt lat="45.11271" lon="5.90148">
        <ele>1960.999</ele>
        <time>2021-01-10T15:38:05Z</time>
      </trkpt>
      <trkpt lat="45.11274" lon="5.9015">
        <ele>1959.949</ele>
        <time>2021-01-10T15:38:08Z</time>
      </trkpt>
      <trkpt lat="45.11276" lon="5.90152">
        <ele>1960.754</ele>
        <time>2021-01-10T15:38:10Z</time>
      </trkpt>
      <trkpt lat="45.11279" lon="5.90151">
        <ele>1960.998</ele>
        <time>2021-01-10T15:38:13Z</time>
      </trkpt>
      <trkpt lat="45.11281" lon="5.9015">
        <ele>1961.333</ele>
        <time>2021-01-10T15:38:16Z</time>
      </trkpt>
      <trkpt lat="45.11284" lon="5.90149">
        <ele>1965.363</ele>
        <time>2021-01-10T15:38:19Z</time>
      </trkpt>
      <trkpt lat="45.11285" lon="5.90149">
        <ele>1966.053</ele>
        <time>2021-01-10T15:38:22Z</time>
      </trkpt>
      <trkpt lat="45.11287" lon="5.9015">
        <ele>1964.213</ele>
        <time>2021-01-10T15:38:25Z</time>
      </trkpt>
      <trkpt lat="45.1129" lon="5.90151">
        <ele>1965.066</ele>
        <time>2021-01-10T15:38:28Z</time>
      </trkpt>
      <trkpt lat="45.11291" lon="5.90151">
        <ele>1966.83</ele>
        <time>2021-01-10T15:38:31Z</time>
      </trkpt>
      <trkpt lat="45.11291" lon="5.90152">
        <ele>1967.068</ele>
        <time>2021-01-10T15:38:33Z</time>
      </trkpt>
      <trkpt lat="45.1129" lon="5.90152">
        <ele>1967.405</ele>
        <time>2021-01-10T15:38:36Z</time>
      </trkpt>
      <trkpt lat="45.1129" lon="5.90152">
        <ele>1966.678</ele>
        <time>2021-01-10T15:38:39Z</time>
      </trkpt>
      <trkpt lat="45.1129" lon="5.90152">
        <ele>1966.884</ele>
        <time>2021-01-10T15:38:42Z</time>
      </trkpt>
      <trkpt lat="45.11291" lon="5.90153">
        <ele>1966.811</ele>
        <time>2021-01-10T15:38:45Z</time>
      </trkpt>
      <trkpt lat="45.11291" lon="5.90149">
        <ele>1967.072</ele>
        <time>2021-01-10T15:38:48Z</time>
      </trkpt>
      <trkpt lat="45.11292" lon="5.90144">
        <ele>1969.187</ele>
        <time>2021-01-10T15:38:50Z</time>
      </trkpt>
      <trkpt lat="45.11291" lon="5.90139">
        <ele>1968.414</ele>
        <time>2021-01-10T15:38:53Z</time>
      </trkpt>
      <trkpt lat="45.11291" lon="5.90136">
        <ele>1966.897</ele>
        <time>2021-01-10T15:38:55Z</time>
      </trkpt>
      <trkpt lat="45.11291" lon="5.9013">
        <ele>1967.599</ele>
        <time>2021-01-10T15:38:58Z</time>
      </trkpt>
      <trkpt lat="45.1129" lon="5.90129">
        <ele>1967.626</ele>
        <time>2021-01-10T15:39:00Z</time>
      </trkpt>
      <trkpt lat="45.11289" lon="5.90125">
        <ele>1968.998</ele>
        <time>2021-01-10T15:39:02Z</time>
      </trkpt>
      <trkpt lat="45.11287" lon="5.90121">
        <ele>1967.705</ele>
        <time>2021-01-10T15:39:05Z</time>
      </trkpt>
      <trkpt lat="45.11285" lon="5.90116">
        <ele>1967.639</ele>
        <time>2021-01-10T15:39:08Z</time>
      </trkpt>
      <trkpt lat="45.11283" lon="5.90113">
        <ele>1965.777</ele>
        <time>2021-01-10T15:39:11Z</time>
      </trkpt>
      <trkpt lat="45.11282" lon="5.90111">
        <ele>1966.277</ele>
        <time>2021-01-10T15:39:13Z</time>
      </trkpt>
      <trkpt lat="45.11281" lon="5.90108">
        <ele>1965.001</ele>
        <time>2021-01-10T15:39:15Z</time>
      </trkpt>
      <trkpt lat="45.1128" lon="5.90102">
        <ele>1967.515</ele>
        <time>2021-01-10T15:39:18Z</time>
      </trkpt>
      <trkpt lat="45.11278" lon="5.901">
        <ele>1969.63</ele>
        <time>2021-01-10T15:39:20Z</time>
      </trkpt>
      <trkpt lat="45.11276" lon="5.90097">
        <ele>1970.691</ele>
        <time>2021-01-10T15:39:23Z</time>
      </trkpt>
      <trkpt lat="45.11274" lon="5.90094">
        <ele>1969.779</ele>
        <time>2021-01-10T15:39:26Z</time>
      </trkpt>
      <trkpt lat="45.11272" lon="5.9009">
        <ele>1968.813</ele>
        <time>2021-01-10T15:39:29Z</time>
      </trkpt>
      <trkpt lat="45.1127" lon="5.90087">
        <ele>1967.941</ele>
        <time>2021-01-10T15:39:31Z</time>
      </trkpt>
      <trkpt lat="45.11268" lon="5.90081">
        <ele>1967.357</ele>
        <time>2021-01-10T15:39:34Z</time>
      </trkpt>
      <trkpt lat="45.11268" lon="5.90079">
        <ele>1966.681</ele>
        <time>2021-01-10T15:39:36Z</time>
      </trkpt>
      <trkpt lat="45.11266" lon="5.90077">
        <ele>1967.3</ele>
        <time>2021-01-10T15:39:38Z</time>
      </trkpt>
      <trkpt lat="45.11263" lon="5.90074">
        <ele>1965.319</ele>
        <time>2021-01-10T15:39:41Z</time>
      </trkpt>
      <trkpt lat="45.1126" lon="5.90072">
        <ele>1963.192</ele>
        <time>2021-01-10T15:39:44Z</time>
      </trkpt>
      <trkpt lat="45.11256" lon="5.90067">
        <ele>1965.274</ele>
        <time>2021-01-10T15:39:47Z</time>
      </trkpt>
      <trkpt lat="45.11255" lon="5.90064">
        <ele>1963.741</ele>
        <time>2021-01-10T15:39:49Z</time>
      </trkpt>
      <trkpt lat="45.11253" lon="5.90061">
        <ele>1962.989</ele>
        <time>2021-01-10T15:39:52Z</time>
      </trkpt>
      <trkpt lat="45.11251" lon="5.90056">
        <ele>1964.277</ele>
        <time>2021-01-10T15:39:55Z</time>
      </trkpt>
      <trkpt lat="45.1125" lon="5.90054">
        <ele>1962.956</ele>
        <time>2021-01-10T15:39:57Z</time>
      </trkpt>
      <trkpt lat="45.11249" lon="5.90052">
        <ele>1962.656</ele>
        <time>2021-01-10T15:39:59Z</time>
      </trkpt>
      <trkpt lat="45.11246" lon="5.90047">
        <ele>1963.671</ele>
        <time>2021-01-10T15:40:02Z</time>
      </trkpt>
      <trkpt lat="45.11245" lon="5.90044">
        <ele>1964.783</ele>
        <time>2021-01-10T15:40:04Z</time>
      </trkpt>
      <trkpt lat="45.11245" lon="5.90042">
        <ele>1964.381</ele>
        <time>2021-01-10T15:40:06Z</time>
      </trkpt>
      <trkpt lat="45.11246" lon="5.90037">
        <ele>1962.798</ele>
        <time>2021-01-10T15:40:09Z</time>
      </trkpt>
      <trkpt lat="45.11247" lon="5.90034">
        <ele>1962.244</ele>
        <time>2021-01-10T15:40:11Z</time>
      </trkpt>
      <trkpt lat="45.11246" lon="5.9003">
        <ele>1963.503</ele>
        <time>2021-01-10T15:40:14Z</time>
      </trkpt>
      <trkpt lat="45.11245" lon="5.90028">
        <ele>1962.962</ele>
        <time>2021-01-10T15:40:16Z</time>
      </trkpt>
      <trkpt lat="45.11244" lon="5.90025">
        <ele>1963.031</ele>
        <time>2021-01-10T15:40:18Z</time>
      </trkpt>
      <trkpt lat="45.11242" lon="5.90024">
        <ele>1965.965</ele>
        <time>2021-01-10T15:40:21Z</time>
      </trkpt>
      <trkpt lat="45.1124" lon="5.90025">
        <ele>1968.202</ele>
        <time>2021-01-10T15:40:24Z</time>
      </trkpt>
      <trkpt lat="45.11236" lon="5.90027">
        <ele>1966.652</ele>
        <time>2021-01-10T15:40:27Z</time>
      </trkpt>
      <trkpt lat="45.11232" lon="5.90027">
        <ele>1966.33</ele>
        <time>2021-01-10T15:40:30Z</time>
      </trkpt>
      <trkpt lat="45.11229" lon="5.90027">
        <ele>1965.869</ele>
        <time>2021-01-10T15:40:33Z</time>
      </trkpt>
      <trkpt lat="45.11227" lon="5.90025">
        <ele>1964.787</ele>
        <time>2021-01-10T15:40:35Z</time>
      </trkpt>
      <trkpt lat="45.11224" lon="5.90022">
        <ele>1966.75</ele>
        <time>2021-01-10T15:40:38Z</time>
      </trkpt>
      <trkpt lat="45.11222" lon="5.90021">
        <ele>1966.583</ele>
        <time>2021-01-10T15:40:40Z</time>
      </trkpt>
      <trkpt lat="45.1122" lon="5.90019">
        <ele>1966.7</ele>
        <time>2021-01-10T15:40:42Z</time>
      </trkpt>
      <trkpt lat="45.11216" lon="5.90016">
        <ele>1965.974</ele>
        <time>2021-01-10T15:40:45Z</time>
      </trkpt>
      <trkpt lat="45.11213" lon="5.90016">
        <ele>1966.869</ele>
        <time>2021-01-10T15:40:47Z</time>
      </trkpt>
      <trkpt lat="45.1121" lon="5.90018">
        <ele>1966.048</ele>
        <time>2021-01-10T15:40:50Z</time>
      </trkpt>
      <trkpt lat="45.11207" lon="5.90018">
        <ele>1966.937</ele>
        <time>2021-01-10T15:40:52Z</time>
      </trkpt>
      <trkpt lat="45.11204" lon="5.90016">
        <ele>1966.768</ele>
        <time>2021-01-10T15:40:54Z</time>
      </trkpt>
      <trkpt lat="45.11201" lon="5.90011">
        <ele>1967.696</ele>
        <time>2021-01-10T15:40:57Z</time>
      </trkpt>
      <trkpt lat="45.11198" lon="5.90008">
        <ele>1969.766</ele>
        <time>2021-01-10T15:40:59Z</time>
      </trkpt>
      <trkpt lat="45.11194" lon="5.90006">
        <ele>1971.906</ele>
        <time>2021-01-10T15:41:02Z</time>
      </trkpt>
      <trkpt lat="45.11191" lon="5.90004">
        <ele>1973.889</ele>
        <time>2021-01-10T15:41:04Z</time>
      </trkpt>
      <trkpt lat="45.11187" lon="5.90002">
        <ele>1971.223</ele>
        <time>2021-01-10T15:41:06Z</time>
      </trkpt>
      <trkpt lat="45.11183" lon="5.89998">
        <ele>1972.396</ele>
        <time>2021-01-10T15:41:09Z</time>
      </trkpt>
      <trkpt lat="45.1118" lon="5.89995">
        <ele>1971.693</ele>
        <time>2021-01-10T15:41:12Z</time>
      </trkpt>
      <trkpt lat="45.11179" lon="5.89991">
        <ele>1970.177</ele>
        <time>2021-01-10T15:41:15Z</time>
      </trkpt>
      <trkpt lat="45.11178" lon="5.89985">
        <ele>1969.83</ele>
        <time>2021-01-10T15:41:18Z</time>
      </trkpt>
      <trkpt lat="45.11176" lon="5.89981">
        <ele>1969.166</ele>
        <time>2021-01-10T15:41:21Z</time>
      </trkpt>
      <trkpt lat="45.11174" lon="5.89979">
        <ele>1967.553</ele>
        <time>2021-01-10T15:41:23Z</time>
      </trkpt>
      <trkpt lat="45.11171" lon="5.89978">
        <ele>1969.188</ele>
        <time>2021-01-10T15:41:25Z</time>
      </trkpt>
      <trkpt lat="45.11167" lon="5.89973">
        <ele>1966.566</ele>
        <time>2021-01-10T15:41:28Z</time>
      </trkpt>
      <trkpt lat="45.11165" lon="5.89973">
        <ele>1968.244</ele>
        <time>2021-01-10T15:41:30Z</time>
      </trkpt>
      <trkpt lat="45.11161" lon="5.89971">
        <ele>1967.968</ele>
        <time>2021-01-10T15:41:33Z</time>
      </trkpt>
      <trkpt lat="45.11158" lon="5.89969">
        <ele>1969.692</ele>
        <time>2021-01-10T15:41:35Z</time>
      </trkpt>
      <trkpt lat="45.11156" lon="5.89965">
        <ele>1968.134</ele>
        <time>2021-01-10T15:41:38Z</time>
      </trkpt>
      <trkpt lat="45.11155" lon="5.89961">
        <ele>1969.107</ele>
        <time>2021-01-10T15:41:41Z</time>
      </trkpt>
      <trkpt lat="45.11154" lon="5.89957">
        <ele>1969.109</ele>
        <time>2021-01-10T15:41:44Z</time>
      </trkpt>
      <trkpt lat="45.11153" lon="5.89955">
        <ele>1967.397</ele>
        <time>2021-01-10T15:41:47Z</time>
      </trkpt>
      <trkpt lat="45.11152" lon="5.89954">
        <ele>1966.965</ele>
        <time>2021-01-10T15:41:49Z</time>
      </trkpt>
      <trkpt lat="45.11152" lon="5.89951">
        <ele>1965.284</ele>
        <time>2021-01-10T15:41:51Z</time>
      </trkpt>
      <trkpt lat="45.11152" lon="5.89945">
        <ele>1961.329</ele>
        <time>2021-01-10T15:41:54Z</time>
      </trkpt>
      <trkpt lat="45.11152" lon="5.8994">
        <ele>1960.273</ele>
        <time>2021-01-10T15:41:57Z</time>
      </trkpt>
      <trkpt lat="45.11151" lon="5.89937">
        <ele>1962.023</ele>
        <time>2021-01-10T15:41:59Z</time>
      </trkpt>
      <trkpt lat="45.1115" lon="5.89935">
        <ele>1960.107</ele>
        <time>2021-01-10T15:42:01Z</time>
      </trkpt>
      <trkpt lat="45.11149" lon="5.8993">
        <ele>1960.804</ele>
        <time>2021-01-10T15:42:04Z</time>
      </trkpt>
      <trkpt lat="45.11148" lon="5.89928">
        <ele>1960.031</ele>
        <time>2021-01-10T15:42:06Z</time>
      </trkpt>
      <trkpt lat="45.11146" lon="5.89925">
        <ele>1960.325</ele>
        <time>2021-01-10T15:42:09Z</time>
      </trkpt>
      <trkpt lat="45.11146" lon="5.89921">
        <ele>1961.341</ele>
        <time>2021-01-10T15:42:11Z</time>
      </trkpt>
      <trkpt lat="45.11146" lon="5.89916">
        <ele>1959.099</ele>
        <time>2021-01-10T15:42:14Z</time>
      </trkpt>
      <trkpt lat="45.11146" lon="5.89912">
        <ele>1959.84</ele>
        <time>2021-01-10T15:42:16Z</time>
      </trkpt>
      <trkpt lat="45.11145" lon="5.89909">
        <ele>1960.78</ele>
        <time>2021-01-10T15:42:18Z</time>
      </trkpt>
      <trkpt lat="45.11143" lon="5.89905">
        <ele>1961.22</ele>
        <time>2021-01-10T15:42:21Z</time>
      </trkpt>
      <trkpt lat="45.11141" lon="5.89901">
        <ele>1961.942</ele>
        <time>2021-01-10T15:42:24Z</time>
      </trkpt>
      <trkpt lat="45.11137" lon="5.89896">
        <ele>1961.73</ele>
        <time>2021-01-10T15:42:27Z</time>
      </trkpt>
      <trkpt lat="45.11135" lon="5.89893">
        <ele>1964.408</ele>
        <time>2021-01-10T15:42:29Z</time>
      </trkpt>
      <trkpt lat="45.11132" lon="5.89889">
        <ele>1962.689</ele>
        <time>2021-01-10T15:42:32Z</time>
      </trkpt>
      <trkpt lat="45.11128" lon="5.89889">
        <ele>1963.31</ele>
        <time>2021-01-10T15:42:35Z</time>
      </trkpt>
      <trkpt lat="45.11125" lon="5.89887">
        <ele>1961.046</ele>
        <time>2021-01-10T15:42:38Z</time>
      </trkpt>
      <trkpt lat="45.11123" lon="5.89883">
        <ele>1959.909</ele>
        <time>2021-01-10T15:42:40Z</time>
      </trkpt>
      <trkpt lat="45.11121" lon="5.8988">
        <ele>1960.156</ele>
        <time>2021-01-10T15:42:43Z</time>
      </trkpt>
      <trkpt lat="45.11118" lon="5.89876">
        <ele>1959.03</ele>
        <time>2021-01-10T15:42:46Z</time>
      </trkpt>
      <trkpt lat="45.11116" lon="5.89872">
        <ele>1960.899</ele>
        <time>2021-01-10T15:42:49Z</time>
      </trkpt>
      <trkpt lat="45.11114" lon="5.89871">
        <ele>1963.011</ele>
        <time>2021-01-10T15:42:51Z</time>
      </trkpt>
      <trkpt lat="45.11113" lon="5.89867">
        <ele>1964.963</ele>
        <time>2021-01-10T15:42:54Z</time>
      </trkpt>
      <trkpt lat="45.11114" lon="5.8986">
        <ele>1966.011</ele>
        <time>2021-01-10T15:42:57Z</time>
      </trkpt>
      <trkpt lat="45.11114" lon="5.89858">
        <ele>1967.165</ele>
        <time>2021-01-10T15:42:59Z</time>
      </trkpt>
      <trkpt lat="45.11112" lon="5.89859">
        <ele>1967.913</ele>
        <time>2021-01-10T15:43:02Z</time>
      </trkpt>
      <trkpt lat="45.1111" lon="5.89858">
        <ele>1968.472</ele>
        <time>2021-01-10T15:43:05Z</time>
      </trkpt>
      <trkpt lat="45.11109" lon="5.89857">
        <ele>1967.267</ele>
        <time>2021-01-10T15:43:07Z</time>
      </trkpt>
      <trkpt lat="45.11109" lon="5.89855">
        <ele>1968.085</ele>
        <time>2021-01-10T15:43:09Z</time>
      </trkpt>
      <trkpt lat="45.11108" lon="5.89853">
        <ele>1966.804</ele>
        <time>2021-01-10T15:43:12Z</time>
      </trkpt>
      <trkpt lat="45.11108" lon="5.89852">
        <ele>1963.573</ele>
        <time>2021-01-10T15:43:14Z</time>
      </trkpt>
      <trkpt lat="45.11107" lon="5.89852">
        <ele>1962.283</ele>
        <time>2021-01-10T15:43:17Z</time>
      </trkpt>
      <trkpt lat="45.11107" lon="5.89852">
        <ele>1961.622</ele>
        <time>2021-01-10T15:43:19Z</time>
      </trkpt>
      <trkpt lat="45.11107" lon="5.89852">
        <ele>1961.125</ele>
        <time>2021-01-10T15:43:21Z</time>
      </trkpt>
      <trkpt lat="45.11108" lon="5.89852">
        <ele>1961.196</ele>
        <time>2021-01-10T15:43:24Z</time>
      </trkpt>
      <trkpt lat="45.11107" lon="5.89851">
        <ele>1961.792</ele>
        <time>2021-01-10T15:43:26Z</time>
      </trkpt>
      <trkpt lat="45.11107" lon="5.8985">
        <ele>1961.987</ele>
        <time>2021-01-10T15:43:28Z</time>
      </trkpt>
      <trkpt lat="45.11107" lon="5.8985">
        <ele>1962.309</ele>
        <time>2021-01-10T15:43:31Z</time>
      </trkpt>
      <trkpt lat="45.11107" lon="5.89849">
        <ele>1962.171</ele>
        <time>2021-01-10T15:43:33Z</time>
      </trkpt>
      <trkpt lat="45.11107" lon="5.89846">
        <ele>1962.176</ele>
        <time>2021-01-10T15:43:36Z</time>
      </trkpt>
      <trkpt lat="45.11108" lon="5.89843">
        <ele>1964.659</ele>
        <time>2021-01-10T15:43:38Z</time>
      </trkpt>
      <trkpt lat="45.11109" lon="5.89839">
        <ele>1965.06</ele>
        <time>2021-01-10T15:43:40Z</time>
      </trkpt>
      <trkpt lat="45.11111" lon="5.8983">
        <ele>1965.954</ele>
        <time>2021-01-10T15:43:43Z</time>
      </trkpt>
      <trkpt lat="45.11109" lon="5.89827">
        <ele>1965.625</ele>
        <time>2021-01-10T15:43:45Z</time>
      </trkpt>
      <trkpt lat="45.11109" lon="5.89825">
        <ele>1967.517</ele>
        <time>2021-01-10T15:43:48Z</time>
      </trkpt>
      <trkpt lat="45.11108" lon="5.8982">
        <ele>1964.846</ele>
        <time>2021-01-10T15:43:51Z</time>
      </trkpt>
      <trkpt lat="45.11106" lon="5.89817">
        <ele>1963.15</ele>
        <time>2021-01-10T15:43:53Z</time>
      </trkpt>
      <trkpt lat="45.11105" lon="5.89814">
        <ele>1960.486</ele>
        <time>2021-01-10T15:43:55Z</time>
      </trkpt>
      <trkpt lat="45.11105" lon="5.89808">
        <ele>1961.404</ele>
        <time>2021-01-10T15:43:59Z</time>
      </trkpt>
      <trkpt lat="45.11108" lon="5.89803">
        <ele>1963.206</ele>
        <time>2021-01-10T15:44:01Z</time>
      </trkpt>
      <trkpt lat="45.11111" lon="5.898">
        <ele>1961.797</ele>
        <time>2021-01-10T15:44:04Z</time>
      </trkpt>
      <trkpt lat="45.11113" lon="5.89798">
        <ele>1962.493</ele>
        <time>2021-01-10T15:44:06Z</time>
      </trkpt>
      <trkpt lat="45.11114" lon="5.89796">
        <ele>1963.031</ele>
        <time>2021-01-10T15:44:09Z</time>
      </trkpt>
      <trkpt lat="45.11115" lon="5.89793">
        <ele>1963.433</ele>
        <time>2021-01-10T15:44:12Z</time>
      </trkpt>
      <trkpt lat="45.11114" lon="5.89789">
        <ele>1965.042</ele>
        <time>2021-01-10T15:44:14Z</time>
      </trkpt>
      <trkpt lat="45.11115" lon="5.89783">
        <ele>1970.824</ele>
        <time>2021-01-10T15:44:17Z</time>
      </trkpt>
      <trkpt lat="45.11116" lon="5.89781">
        <ele>1971.848</ele>
        <time>2021-01-10T15:44:19Z</time>
      </trkpt>
      <trkpt lat="45.11117" lon="5.8978">
        <ele>1973.206</ele>
        <time>2021-01-10T15:44:21Z</time>
      </trkpt>
      <trkpt lat="45.11118" lon="5.89778">
        <ele>1974.767</ele>
        <time>2021-01-10T15:44:24Z</time>
      </trkpt>
      <trkpt lat="45.11118" lon="5.89777">
        <ele>1974.827</ele>
        <time>2021-01-10T15:44:26Z</time>
      </trkpt>
      <trkpt lat="45.11121" lon="5.89775">
        <ele>1973.25</ele>
        <time>2021-01-10T15:44:29Z</time>
      </trkpt>
      <trkpt lat="45.11121" lon="5.89772">
        <ele>1972.028</ele>
        <time>2021-01-10T15:44:32Z</time>
      </trkpt>
      <trkpt lat="45.11121" lon="5.8977">
        <ele>1971.796</ele>
        <time>2021-01-10T15:44:35Z</time>
      </trkpt>
      <trkpt lat="45.11121" lon="5.89768">
        <ele>1970.864</ele>
        <time>2021-01-10T15:44:38Z</time>
      </trkpt>
      <trkpt lat="45.11121" lon="5.89765">
        <ele>1971.935</ele>
        <time>2021-01-10T15:44:40Z</time>
      </trkpt>
      <trkpt lat="45.11119" lon="5.89763">
        <ele>1971.788</ele>
        <time>2021-01-10T15:44:42Z</time>
      </trkpt>
      <trkpt lat="45.11117" lon="5.8976">
        <ele>1968.193</ele>
        <time>2021-01-10T15:44:45Z</time>
      </trkpt>
      <trkpt lat="45.11117" lon="5.89757">
        <ele>1969.33</ele>
        <time>2021-01-10T15:44:47Z</time>
      </trkpt>
      <trkpt lat="45.11118" lon="5.89755">
        <ele>1969.462</ele>
        <time>2021-01-10T15:44:49Z</time>
      </trkpt>
      <trkpt lat="45.11119" lon="5.89751">
        <ele>1970.571</ele>
        <time>2021-01-10T15:44:52Z</time>
      </trkpt>
      <trkpt lat="45.11121" lon="5.89748">
        <ele>1973.979</ele>
        <time>2021-01-10T15:44:55Z</time>
      </trkpt>
      <trkpt lat="45.11121" lon="5.89746">
        <ele>1975.913</ele>
        <time>2021-01-10T15:44:57Z</time>
      </trkpt>
      <trkpt lat="45.11123" lon="5.89743">
        <ele>1976.818</ele>
        <time>2021-01-10T15:45:00Z</time>
      </trkpt>
      <trkpt lat="45.11124" lon="5.8974">
        <ele>1977.116</ele>
        <time>2021-01-10T15:45:03Z</time>
      </trkpt>
      <trkpt lat="45.11123" lon="5.89736">
        <ele>1975.65</ele>
        <time>2021-01-10T15:45:05Z</time>
      </trkpt>
      <trkpt lat="45.11124" lon="5.89734">
        <ele>1974.427</ele>
        <time>2021-01-10T15:45:08Z</time>
      </trkpt>
      <trkpt lat="45.11126" lon="5.89732">
        <ele>1974.095</ele>
        <time>2021-01-10T15:45:10Z</time>
      </trkpt>
      <trkpt lat="45.11127" lon="5.89728">
        <ele>1973.274</ele>
        <time>2021-01-10T15:45:13Z</time>
      </trkpt>
      <trkpt lat="45.11127" lon="5.89725">
        <ele>1972.292</ele>
        <time>2021-01-10T15:45:15Z</time>
      </trkpt>
      <trkpt lat="45.11127" lon="5.89723">
        <ele>1971.962</ele>
        <time>2021-01-10T15:45:17Z</time>
      </trkpt>
      <trkpt lat="45.11127" lon="5.89722">
        <ele>1970.103</ele>
        <time>2021-01-10T15:45:19Z</time>
      </trkpt>
      <trkpt lat="45.1113" lon="5.89721">
        <ele>1969.062</ele>
        <time>2021-01-10T15:45:22Z</time>
      </trkpt>
      <trkpt lat="45.11132" lon="5.89719">
        <ele>1971.214</ele>
        <time>2021-01-10T15:45:24Z</time>
      </trkpt>
      <trkpt lat="45.11133" lon="5.89716">
        <ele>1973.282</ele>
        <time>2021-01-10T15:45:27Z</time>
      </trkpt>
      <trkpt lat="45.11134" lon="5.89713">
        <ele>1975.619</ele>
        <time>2021-01-10T15:45:29Z</time>
      </trkpt>
      <trkpt lat="45.11135" lon="5.8971">
        <ele>1976.221</ele>
        <time>2021-01-10T15:45:32Z</time>
      </trkpt>
      <trkpt lat="45.11136" lon="5.89709">
        <ele>1974.583</ele>
        <time>2021-01-10T15:45:34Z</time>
      </trkpt>
      <trkpt lat="45.11136" lon="5.89707">
        <ele>1972.443</ele>
        <time>2021-01-10T15:45:36Z</time>
      </trkpt>
      <trkpt lat="45.11137" lon="5.89704">
        <ele>1973.667</ele>
        <time>2021-01-10T15:45:39Z</time>
      </trkpt>
      <trkpt lat="45.11137" lon="5.89702">
        <ele>1974.475</ele>
        <time>2021-01-10T15:45:42Z</time>
      </trkpt>
      <trkpt lat="45.11136" lon="5.89699">
        <ele>1975.035</ele>
        <time>2021-01-10T15:45:44Z</time>
      </trkpt>
      <trkpt lat="45.11136" lon="5.89697">
        <ele>1974.24</ele>
        <time>2021-01-10T15:45:46Z</time>
      </trkpt>
      <trkpt lat="45.11136" lon="5.89693">
        <ele>1974.256</ele>
        <time>2021-01-10T15:45:48Z</time>
      </trkpt>
      <trkpt lat="45.11137" lon="5.89691">
        <ele>1974.175</ele>
        <time>2021-01-10T15:45:51Z</time>
      </trkpt>
      <trkpt lat="45.11137" lon="5.8969">
        <ele>1976.208</ele>
        <time>2021-01-10T15:45:53Z</time>
      </trkpt>
      <trkpt lat="45.11139" lon="5.89689">
        <ele>1974.684</ele>
        <time>2021-01-10T15:45:55Z</time>
      </trkpt>
      <trkpt lat="45.11141" lon="5.89689">
        <ele>1974.716</ele>
        <time>2021-01-10T15:45:58Z</time>
      </trkpt>
      <trkpt lat="45.11143" lon="5.89687">
        <ele>1974.431</ele>
        <time>2021-01-10T15:46:01Z</time>
      </trkpt>
      <trkpt lat="45.11143" lon="5.89685">
        <ele>1974.973</ele>
        <time>2021-01-10T15:46:03Z</time>
      </trkpt>
      <trkpt lat="45.11142" lon="5.89683">
        <ele>1976.204</ele>
        <time>2021-01-10T15:46:05Z</time>
      </trkpt>
      <trkpt lat="45.11141" lon="5.8968">
        <ele>1976.725</ele>
        <time>2021-01-10T15:46:08Z</time>
      </trkpt>
      <trkpt lat="45.11141" lon="5.89677">
        <ele>1977.053</ele>
        <time>2021-01-10T15:46:11Z</time>
      </trkpt>
      <trkpt lat="45.11139" lon="5.89672">
        <ele>1978.1</ele>
        <time>2021-01-10T15:46:14Z</time>
      </trkpt>
      <trkpt lat="45.11139" lon="5.8967">
        <ele>1979.294</ele>
        <time>2021-01-10T15:46:16Z</time>
      </trkpt>
      <trkpt lat="45.11139" lon="5.89667">
        <ele>1981.007</ele>
        <time>2021-01-10T15:46:19Z</time>
      </trkpt>
      <trkpt lat="45.11139" lon="5.89664">
        <ele>1981.367</ele>
        <time>2021-01-10T15:46:21Z</time>
      </trkpt>
      <trkpt lat="45.11138" lon="5.89661">
        <ele>1982.491</ele>
        <time>2021-01-10T15:46:23Z</time>
      </trkpt>
      <trkpt lat="45.11137" lon="5.89659">
        <ele>1983.33</ele>
        <time>2021-01-10T15:46:26Z</time>
      </trkpt>
      <trkpt lat="45.11137" lon="5.89655">
        <ele>1981.606</ele>
        <time>2021-01-10T15:46:28Z</time>
      </trkpt>
      <trkpt lat="45.11138" lon="5.89652">
        <ele>1981.901</ele>
        <time>2021-01-10T15:46:30Z</time>
      </trkpt>
      <trkpt lat="45.11138" lon="5.89649">
        <ele>1982.047</ele>
        <time>2021-01-10T15:46:33Z</time>
      </trkpt>
      <trkpt lat="45.11139" lon="5.89647">
        <ele>1983.577</ele>
        <time>2021-01-10T15:46:35Z</time>
      </trkpt>
      <trkpt lat="45.1114" lon="5.89644">
        <ele>1983.499</ele>
        <time>2021-01-10T15:46:38Z</time>
      </trkpt>
      <trkpt lat="45.1114" lon="5.89643">
        <ele>1983.779</ele>
        <time>2021-01-10T15:46:41Z</time>
      </trkpt>
      <trkpt lat="45.1114" lon="5.89641">
        <ele>1985.59</ele>
        <time>2021-01-10T15:46:44Z</time>
      </trkpt>
      <trkpt lat="45.11141" lon="5.8964">
        <ele>1987.414</ele>
        <time>2021-01-10T15:46:47Z</time>
      </trkpt>
      <trkpt lat="45.11139" lon="5.89638">
        <ele>1989.154</ele>
        <time>2021-01-10T15:46:49Z</time>
      </trkpt>
      <trkpt lat="45.11138" lon="5.89635">
        <ele>1990.072</ele>
        <time>2021-01-10T15:46:51Z</time>
      </trkpt>
      <trkpt lat="45.11137" lon="5.8963">
        <ele>1990.096</ele>
        <time>2021-01-10T15:46:54Z</time>
      </trkpt>
      <trkpt lat="45.11134" lon="5.89627">
        <ele>1990.083</ele>
        <time>2021-01-10T15:46:57Z</time>
      </trkpt>
      <trkpt lat="45.11133" lon="5.89625">
        <ele>1991.012</ele>
        <time>2021-01-10T15:46:59Z</time>
      </trkpt>
      <trkpt lat="45.11132" lon="5.89623">
        <ele>1990.065</ele>
        <time>2021-01-10T15:47:01Z</time>
      </trkpt>
      <trkpt lat="45.11132" lon="5.89621">
        <ele>1989.817</ele>
        <time>2021-01-10T15:47:04Z</time>
      </trkpt>
      <trkpt lat="45.11131" lon="5.89618">
        <ele>1991.096</ele>
        <time>2021-01-10T15:47:07Z</time>
      </trkpt>
      <trkpt lat="45.11131" lon="5.89613">
        <ele>1992.494</ele>
        <time>2021-01-10T15:47:10Z</time>
      </trkpt>
      <trkpt lat="45.11131" lon="5.89607">
        <ele>1994.6</ele>
        <time>2021-01-10T15:47:13Z</time>
      </trkpt>
      <trkpt lat="45.1113" lon="5.89605">
        <ele>1993.852</ele>
        <time>2021-01-10T15:47:15Z</time>
      </trkpt>
      <trkpt lat="45.11129" lon="5.896">
        <ele>1992.557</ele>
        <time>2021-01-10T15:47:18Z</time>
      </trkpt>
      <trkpt lat="45.11129" lon="5.89593">
        <ele>1994.902</ele>
        <time>2021-01-10T15:47:21Z</time>
      </trkpt>
      <trkpt lat="45.11131" lon="5.8959">
        <ele>1992.645</ele>
        <time>2021-01-10T15:47:23Z</time>
      </trkpt>
      <trkpt lat="45.11134" lon="5.89586">
        <ele>1991.136</ele>
        <time>2021-01-10T15:47:26Z</time>
      </trkpt>
      <trkpt lat="45.11136" lon="5.89584">
        <ele>1991.241</ele>
        <time>2021-01-10T15:47:28Z</time>
      </trkpt>
      <trkpt lat="45.11138" lon="5.89582">
        <ele>1990.408</ele>
        <time>2021-01-10T15:47:30Z</time>
      </trkpt>
      <trkpt lat="45.11141" lon="5.8958">
        <ele>1990.12</ele>
        <time>2021-01-10T15:47:33Z</time>
      </trkpt>
      <trkpt lat="45.11143" lon="5.89579">
        <ele>1991.285</ele>
        <time>2021-01-10T15:47:35Z</time>
      </trkpt>
      <trkpt lat="45.11143" lon="5.89577">
        <ele>1988.948</ele>
        <time>2021-01-10T15:47:38Z</time>
      </trkpt>
      <trkpt lat="45.11143" lon="5.89575">
        <ele>1987.984</ele>
        <time>2021-01-10T15:47:40Z</time>
      </trkpt>
      <trkpt lat="45.11144" lon="5.89571">
        <ele>1987.344</ele>
        <time>2021-01-10T15:47:43Z</time>
      </trkpt>
      <trkpt lat="45.11145" lon="5.89567">
        <ele>1988.167</ele>
        <time>2021-01-10T15:47:46Z</time>
      </trkpt>
      <trkpt lat="45.11146" lon="5.89563">
        <ele>1988.741</ele>
        <time>2021-01-10T15:47:49Z</time>
      </trkpt>
      <trkpt lat="45.11147" lon="5.89561">
        <ele>1988.586</ele>
        <time>2021-01-10T15:47:51Z</time>
      </trkpt>
      <trkpt lat="45.11147" lon="5.89557">
        <ele>1988.499</ele>
        <time>2021-01-10T15:47:54Z</time>
      </trkpt>
      <trkpt lat="45.11148" lon="5.89554">
        <ele>1990.149</ele>
        <time>2021-01-10T15:47:57Z</time>
      </trkpt>
      <trkpt lat="45.11148" lon="5.89553">
        <ele>1988.86</ele>
        <time>2021-01-10T15:47:59Z</time>
      </trkpt>
      <trkpt lat="45.11148" lon="5.89552">
        <ele>1988.132</ele>
        <time>2021-01-10T15:48:01Z</time>
      </trkpt>
      <trkpt lat="45.11149" lon="5.89551">
        <ele>1989.099</ele>
        <time>2021-01-10T15:48:04Z</time>
      </trkpt>
      <trkpt lat="45.11149" lon="5.89549">
        <ele>1989.256</ele>
        <time>2021-01-10T15:48:06Z</time>
      </trkpt>
      <trkpt lat="45.11149" lon="5.89547">
        <ele>1989.816</ele>
        <time>2021-01-10T15:48:08Z</time>
      </trkpt>
      <trkpt lat="45.11148" lon="5.89546">
        <ele>1989.75</ele>
        <time>2021-01-10T15:48:10Z</time>
      </trkpt>
      <trkpt lat="45.11147" lon="5.89545">
        <ele>1989.518</ele>
        <time>2021-01-10T15:48:12Z</time>
      </trkpt>
      <trkpt lat="45.11147" lon="5.89542">
        <ele>1990.392</ele>
        <time>2021-01-10T15:48:15Z</time>
      </trkpt>
      <trkpt lat="45.11146" lon="5.8954">
        <ele>1989.104</ele>
        <time>2021-01-10T15:48:17Z</time>
      </trkpt>
      <trkpt lat="45.11143" lon="5.89537">
        <ele>1988.458</ele>
        <time>2021-01-10T15:48:20Z</time>
      </trkpt>
      <trkpt lat="45.11144" lon="5.89534">
        <ele>1990.447</ele>
        <time>2021-01-10T15:48:22Z</time>
      </trkpt>
      <trkpt lat="45.11146" lon="5.8953">
        <ele>1990.763</ele>
        <time>2021-01-10T15:48:25Z</time>
      </trkpt>
      <trkpt lat="45.11146" lon="5.89527">
        <ele>1990.826</ele>
        <time>2021-01-10T15:48:28Z</time>
      </trkpt>
      <trkpt lat="45.11148" lon="5.89522">
        <ele>1991.059</ele>
        <time>2021-01-10T15:48:31Z</time>
      </trkpt>
      <trkpt lat="45.1115" lon="5.8952">
        <ele>1990.899</ele>
        <time>2021-01-10T15:48:34Z</time>
      </trkpt>
      <trkpt lat="45.11149" lon="5.89518">
        <ele>1988.981</ele>
        <time>2021-01-10T15:48:36Z</time>
      </trkpt>
      <trkpt lat="45.11148" lon="5.89517">
        <ele>1988.841</ele>
        <time>2021-01-10T15:48:38Z</time>
      </trkpt>
      <trkpt lat="45.11147" lon="5.89514">
        <ele>1988.941</ele>
        <time>2021-01-10T15:48:40Z</time>
      </trkpt>
      <trkpt lat="45.11147" lon="5.89513">
        <ele>1990.554</ele>
        <time>2021-01-10T15:48:42Z</time>
      </trkpt>
      <trkpt lat="45.11148" lon="5.89512">
        <ele>1991.598</ele>
        <time>2021-01-10T15:48:45Z</time>
      </trkpt>
      <trkpt lat="45.11148" lon="5.89511">
        <ele>1992.066</ele>
        <time>2021-01-10T15:48:47Z</time>
      </trkpt>
      <trkpt lat="45.11149" lon="5.89511">
        <ele>1993.316</ele>
        <time>2021-01-10T15:48:50Z</time>
      </trkpt>
      <trkpt lat="45.11149" lon="5.89511">
        <ele>1994.821</ele>
        <time>2021-01-10T15:48:52Z</time>
      </trkpt>
      <trkpt lat="45.11149" lon="5.89511">
        <ele>1993.668</ele>
        <time>2021-01-10T15:48:55Z</time>
      </trkpt>
      <trkpt lat="45.11151" lon="5.89512">
        <ele>1992.714</ele>
        <time>2021-01-10T15:48:57Z</time>
      </trkpt>
      <trkpt lat="45.11152" lon="5.89513">
        <ele>1992.224</ele>
        <time>2021-01-10T15:48:59Z</time>
      </trkpt>
      <trkpt lat="45.11153" lon="5.89514">
        <ele>1991.644</ele>
        <time>2021-01-10T15:49:02Z</time>
      </trkpt>
      <trkpt lat="45.11154" lon="5.89514">
        <ele>1991.562</ele>
        <time>2021-01-10T15:49:05Z</time>
      </trkpt>
      <trkpt lat="45.11154" lon="5.89514">
        <ele>1991.42</ele>
        <time>2021-01-10T15:49:08Z</time>
      </trkpt>
      <trkpt lat="45.11154" lon="5.89514">
        <ele>1991.21</ele>
        <time>2021-01-10T15:49:11Z</time>
      </trkpt>
      <trkpt lat="45.11154" lon="5.89513">
        <ele>1991.658</ele>
        <time>2021-01-10T15:49:14Z</time>
      </trkpt>
      <trkpt lat="45.11154" lon="5.89513">
        <ele>1991.893</ele>
        <time>2021-01-10T15:49:17Z</time>
      </trkpt>
      <trkpt lat="45.11154" lon="5.89513">
        <ele>1991.711</ele>
        <time>2021-01-10T15:49:19Z</time>
      </trkpt>
      <trkpt lat="45.11154" lon="5.89512">
        <ele>1991.172</ele>
        <time>2021-01-10T15:49:21Z</time>
      </trkpt>
      <trkpt lat="45.11154" lon="5.8951">
        <ele>1990.438</ele>
        <time>2021-01-10T15:49:23Z</time>
      </trkpt>
      <trkpt lat="45.11155" lon="5.89504">
        <ele>1987.516</ele>
        <time>2021-01-10T15:49:26Z</time>
      </trkpt>
      <trkpt lat="45.11153" lon="5.89499">
        <ele>1988.589</ele>
        <time>2021-01-10T15:49:29Z</time>
      </trkpt>
      <trkpt lat="45.11153" lon="5.89497">
        <ele>1988.095</ele>
        <time>2021-01-10T15:49:31Z</time>
      </trkpt>
      <trkpt lat="45.1115" lon="5.89493">
        <ele>1988.756</ele>
        <time>2021-01-10T15:49:34Z</time>
      </trkpt>
      <trkpt lat="45.11148" lon="5.89487">
        <ele>1989.507</ele>
        <time>2021-01-10T15:49:37Z</time>
      </trkpt>
      <trkpt lat="45.11147" lon="5.8948">
        <ele>1989.528</ele>
        <time>2021-01-10T15:49:40Z</time>
      </trkpt>
      <trkpt lat="45.11148" lon="5.89473">
        <ele>1991.173</ele>
        <time>2021-01-10T15:49:43Z</time>
      </trkpt>
      <trkpt lat="45.11148" lon="5.89468">
        <ele>1990.138</ele>
        <time>2021-01-10T15:49:45Z</time>
      </trkpt>
      <trkpt lat="45.11148" lon="5.89461">
        <ele>1990.421</ele>
        <time>2021-01-10T15:49:48Z</time>
      </trkpt>
      <trkpt lat="45.11147" lon="5.89456">
        <ele>1991.299</ele>
        <time>2021-01-10T15:49:50Z</time>
      </trkpt>
      <trkpt lat="45.11146" lon="5.89452">
        <ele>1991.503</ele>
        <time>2021-01-10T15:49:52Z</time>
      </trkpt>
      <trkpt lat="45.11144" lon="5.89448">
        <ele>1991.608</ele>
        <time>2021-01-10T15:49:55Z</time>
      </trkpt>
      <trkpt lat="45.11146" lon="5.89443">
        <ele>1989.843</ele>
        <time>2021-01-10T15:49:58Z</time>
      </trkpt>
      <trkpt lat="45.11147" lon="5.89437">
        <ele>1990.807</ele>
        <time>2021-01-10T15:50:01Z</time>
      </trkpt>
      <trkpt lat="45.11152" lon="5.8943">
        <ele>1988.62</ele>
        <time>2021-01-10T15:50:04Z</time>
      </trkpt>
      <trkpt lat="45.11153" lon="5.89428">
        <ele>1984.649</ele>
        <time>2021-01-10T15:50:06Z</time>
      </trkpt>
      <trkpt lat="45.11152" lon="5.89425">
        <ele>1983.967</ele>
        <time>2021-01-10T15:50:08Z</time>
      </trkpt>
      <trkpt lat="45.1115" lon="5.89422">
        <ele>1986.358</ele>
        <time>2021-01-10T15:50:11Z</time>
      </trkpt>
      <trkpt lat="45.11151" lon="5.89419">
        <ele>1987.223</ele>
        <time>2021-01-10T15:50:13Z</time>
      </trkpt>
      <trkpt lat="45.11153" lon="5.89414">
        <ele>1986.779</ele>
        <time>2021-01-10T15:50:16Z</time>
      </trkpt>
      <trkpt lat="45.11153" lon="5.89412">
        <ele>1988.024</ele>
        <time>2021-01-10T15:50:18Z</time>
      </trkpt>
      <trkpt lat="45.11154" lon="5.89409">
        <ele>1984.492</ele>
        <time>2021-01-10T15:50:21Z</time>
      </trkpt>
      <trkpt lat="45.11156" lon="5.89405">
        <ele>1986.818</ele>
        <time>2021-01-10T15:50:23Z</time>
      </trkpt>
      <trkpt lat="45.11158" lon="5.89402">
        <ele>1987.954</ele>
        <time>2021-01-10T15:50:26Z</time>
      </trkpt>
      <trkpt lat="45.11158" lon="5.89401">
        <ele>1984.919</ele>
        <time>2021-01-10T15:50:29Z</time>
      </trkpt>
      <trkpt lat="45.11158" lon="5.89401">
        <ele>1983.229</ele>
        <time>2021-01-10T15:50:31Z</time>
      </trkpt>
      <trkpt lat="45.11158" lon="5.89399">
        <ele>1982.104</ele>
        <time>2021-01-10T15:50:34Z</time>
      </trkpt>
      <trkpt lat="45.1116" lon="5.89397">
        <ele>1981.723</ele>
        <time>2021-01-10T15:50:36Z</time>
      </trkpt>
      <trkpt lat="45.11162" lon="5.89396">
        <ele>1982.46</ele>
        <time>2021-01-10T15:50:38Z</time>
      </trkpt>
      <trkpt lat="45.11163" lon="5.89393">
        <ele>1981.064</ele>
        <time>2021-01-10T15:50:40Z</time>
      </trkpt>
      <trkpt lat="45.11165" lon="5.89391">
        <ele>1975.99</ele>
        <time>2021-01-10T15:50:43Z</time>
      </trkpt>
      <trkpt lat="45.11168" lon="5.8939">
        <ele>1976.203</ele>
        <time>2021-01-10T15:50:45Z</time>
      </trkpt>
      <trkpt lat="45.1117" lon="5.89384">
        <ele>1978.022</ele>
        <time>2021-01-10T15:50:48Z</time>
      </trkpt>
      <trkpt lat="45.11172" lon="5.8938">
        <ele>1975.897</ele>
        <time>2021-01-10T15:50:51Z</time>
      </trkpt>
      <trkpt lat="45.11173" lon="5.89377">
        <ele>1973.561</ele>
        <time>2021-01-10T15:50:54Z</time>
      </trkpt>
      <trkpt lat="45.11174" lon="5.89374">
        <ele>1974.654</ele>
        <time>2021-01-10T15:50:57Z</time>
      </trkpt>
      <trkpt lat="45.11175" lon="5.89371">
        <ele>1974.055</ele>
        <time>2021-01-10T15:51:00Z</time>
      </trkpt>
      <trkpt lat="45.11175" lon="5.8937">
        <ele>1971.685</ele>
        <time>2021-01-10T15:51:03Z</time>
      </trkpt>
      <trkpt lat="45.11173" lon="5.89366">
        <ele>1972.204</ele>
        <time>2021-01-10T15:51:06Z</time>
      </trkpt>
      <trkpt lat="45.11171" lon="5.89362">
        <ele>1970.291</ele>
        <time>2021-01-10T15:51:08Z</time>
      </trkpt>
      <trkpt lat="45.1117" lon="5.89359">
        <ele>1971.611</ele>
        <time>2021-01-10T15:51:10Z</time>
      </trkpt>
      <trkpt lat="45.11167" lon="5.89357">
        <ele>1975.377</ele>
        <time>2021-01-10T15:51:13Z</time>
      </trkpt>
      <trkpt lat="45.11165" lon="5.89354">
        <ele>1978.74</ele>
        <time>2021-01-10T15:51:16Z</time>
      </trkpt>
      <trkpt lat="45.11167" lon="5.89351">
        <ele>1980.534</ele>
        <time>2021-01-10T15:51:18Z</time>
      </trkpt>
      <trkpt lat="45.11168" lon="5.89349">
        <ele>1980.461</ele>
        <time>2021-01-10T15:51:20Z</time>
      </trkpt>
      <trkpt lat="45.11169" lon="5.89344">
        <ele>1977.986</ele>
        <time>2021-01-10T15:51:23Z</time>
      </trkpt>
      <trkpt lat="45.11173" lon="5.89339">
        <ele>1977.071</ele>
        <time>2021-01-10T15:51:26Z</time>
      </trkpt>
      <trkpt lat="45.11178" lon="5.89335">
        <ele>1976.249</ele>
        <time>2021-01-10T15:51:29Z</time>
      </trkpt>
      <trkpt lat="45.1118" lon="5.89332">
        <ele>1975.279</ele>
        <time>2021-01-10T15:51:31Z</time>
      </trkpt>
      <trkpt lat="45.1118" lon="5.89328">
        <ele>1974.668</ele>
        <time>2021-01-10T15:51:34Z</time>
      </trkpt>
      <trkpt lat="45.11181" lon="5.89325">
        <ele>1975.196</ele>
        <time>2021-01-10T15:51:36Z</time>
      </trkpt>
      <trkpt lat="45.11181" lon="5.8932">
        <ele>1972.792</ele>
        <time>2021-01-10T15:51:39Z</time>
      </trkpt>
      <trkpt lat="45.11181" lon="5.89316">
        <ele>1972.941</ele>
        <time>2021-01-10T15:51:41Z</time>
      </trkpt>
      <trkpt lat="45.11181" lon="5.89314">
        <ele>1973.591</ele>
        <time>2021-01-10T15:51:44Z</time>
      </trkpt>
      <trkpt lat="45.11183" lon="5.89312">
        <ele>1974.359</ele>
        <time>2021-01-10T15:51:47Z</time>
      </trkpt>
      <trkpt lat="45.11184" lon="5.89309">
        <ele>1975.06</ele>
        <time>2021-01-10T15:51:50Z</time>
      </trkpt>
      <trkpt lat="45.11184" lon="5.89306">
        <ele>1975.533</ele>
        <time>2021-01-10T15:51:53Z</time>
      </trkpt>
      <trkpt lat="45.11185" lon="5.89304">
        <ele>1976.312</ele>
        <time>2021-01-10T15:51:56Z</time>
      </trkpt>
      <trkpt lat="45.11187" lon="5.89302">
        <ele>1974.566</ele>
        <time>2021-01-10T15:51:58Z</time>
      </trkpt>
      <trkpt lat="45.11188" lon="5.89299">
        <ele>1975.325</ele>
        <time>2021-01-10T15:52:01Z</time>
      </trkpt>
      <trkpt lat="45.11188" lon="5.89296">
        <ele>1975.61</ele>
        <time>2021-01-10T15:52:03Z</time>
      </trkpt>
      <trkpt lat="45.11186" lon="5.89293">
        <ele>1974.886</ele>
        <time>2021-01-10T15:52:06Z</time>
      </trkpt>
      <trkpt lat="45.11186" lon="5.89292">
        <ele>1974.081</ele>
        <time>2021-01-10T15:52:08Z</time>
      </trkpt>
      <trkpt lat="45.11186" lon="5.89289">
        <ele>1974.316</ele>
        <time>2021-01-10T15:52:11Z</time>
      </trkpt>
      <trkpt lat="45.11188" lon="5.89287">
        <ele>1976.424</ele>
        <time>2021-01-10T15:52:13Z</time>
      </trkpt>
      <trkpt lat="45.11189" lon="5.89285">
        <ele>1976.662</ele>
        <time>2021-01-10T15:52:15Z</time>
      </trkpt>
      <trkpt lat="45.1119" lon="5.89283">
        <ele>1979.099</ele>
        <time>2021-01-10T15:52:17Z</time>
      </trkpt>
      <trkpt lat="45.11192" lon="5.89281">
        <ele>1981.324</ele>
        <time>2021-01-10T15:52:20Z</time>
      </trkpt>
      <trkpt lat="45.11193" lon="5.89281">
        <ele>1981.756</ele>
        <time>2021-01-10T15:52:23Z</time>
      </trkpt>
      <trkpt lat="45.11193" lon="5.89279">
        <ele>1979.54</ele>
        <time>2021-01-10T15:52:26Z</time>
      </trkpt>
      <trkpt lat="45.11194" lon="5.89277">
        <ele>1981.808</ele>
        <time>2021-01-10T15:52:29Z</time>
      </trkpt>
      <trkpt lat="45.11194" lon="5.89274">
        <ele>1980.09</ele>
        <time>2021-01-10T15:52:31Z</time>
      </trkpt>
      <trkpt lat="45.11193" lon="5.89271">
        <ele>1979.542</ele>
        <time>2021-01-10T15:52:33Z</time>
      </trkpt>
      <trkpt lat="45.11194" lon="5.89268">
        <ele>1979.524</ele>
        <time>2021-01-10T15:52:36Z</time>
      </trkpt>
      <trkpt lat="45.11195" lon="5.89267">
        <ele>1978.284</ele>
        <time>2021-01-10T15:52:38Z</time>
      </trkpt>
      <trkpt lat="45.11195" lon="5.89266">
        <ele>1976.753</ele>
        <time>2021-01-10T15:52:41Z</time>
      </trkpt>
      <trkpt lat="45.11194" lon="5.89264">
        <ele>1977.33</ele>
        <time>2021-01-10T15:52:43Z</time>
      </trkpt>
      <trkpt lat="45.11193" lon="5.89261">
        <ele>1977.278</ele>
        <time>2021-01-10T15:52:46Z</time>
      </trkpt>
      <trkpt lat="45.11193" lon="5.8926">
        <ele>1978.236</ele>
        <time>2021-01-10T15:52:48Z</time>
      </trkpt>
      <trkpt lat="45.11194" lon="5.8926">
        <ele>1979.914</ele>
        <time>2021-01-10T15:52:50Z</time>
      </trkpt>
      <trkpt lat="45.11195" lon="5.89259">
        <ele>1979.815</ele>
        <time>2021-01-10T15:52:53Z</time>
      </trkpt>
      <trkpt lat="45.11196" lon="5.89256">
        <ele>1979.541</ele>
        <time>2021-01-10T15:52:56Z</time>
      </trkpt>
      <trkpt lat="45.11197" lon="5.89253">
        <ele>1976.73</ele>
        <time>2021-01-10T15:52:59Z</time>
      </trkpt>
      <trkpt lat="45.11197" lon="5.89251">
        <ele>1975.598</ele>
        <time>2021-01-10T15:53:01Z</time>
      </trkpt>
      <trkpt lat="45.11199" lon="5.89249">
        <ele>1978.134</ele>
        <time>2021-01-10T15:53:04Z</time>
      </trkpt>
      <trkpt lat="45.11202" lon="5.89247">
        <ele>1977.826</ele>
        <time>2021-01-10T15:53:07Z</time>
      </trkpt>
      <trkpt lat="45.11203" lon="5.89246">
        <ele>1978.128</ele>
        <time>2021-01-10T15:53:10Z</time>
      </trkpt>
      <trkpt lat="45.11203" lon="5.89245">
        <ele>1981.605</ele>
        <time>2021-01-10T15:53:13Z</time>
      </trkpt>
      <trkpt lat="45.11203" lon="5.89244">
        <ele>1982.364</ele>
        <time>2021-01-10T15:53:16Z</time>
      </trkpt>
      <trkpt lat="45.11203" lon="5.89241">
        <ele>1985.098</ele>
        <time>2021-01-10T15:53:19Z</time>
      </trkpt>
      <trkpt lat="45.11203" lon="5.89239">
        <ele>1982.777</ele>
        <time>2021-01-10T15:53:21Z</time>
      </trkpt>
      <trkpt lat="45.11205" lon="5.89236">
        <ele>1982.521</ele>
        <time>2021-01-10T15:53:24Z</time>
      </trkpt>
      <trkpt lat="45.11206" lon="5.89234">
        <ele>1983.602</ele>
        <time>2021-01-10T15:53:26Z</time>
      </trkpt>
      <trkpt lat="45.11207" lon="5.89233">
        <ele>1983.666</ele>
        <time>2021-01-10T15:53:28Z</time>
      </trkpt>
      <trkpt lat="45.11205" lon="5.8923">
        <ele>1981.649</ele>
        <time>2021-01-10T15:53:31Z</time>
      </trkpt>
      <trkpt lat="45.11203" lon="5.89226">
        <ele>1981.939</ele>
        <time>2021-01-10T15:53:34Z</time>
      </trkpt>
      <trkpt lat="45.11203" lon="5.89224">
        <ele>1982.516</ele>
        <time>2021-01-10T15:53:36Z</time>
      </trkpt>
      <trkpt lat="45.11202" lon="5.89223">
        <ele>1982.376</ele>
        <time>2021-01-10T15:53:38Z</time>
      </trkpt>
      <trkpt lat="45.11202" lon="5.89222">
        <ele>1980</ele>
        <time>2021-01-10T15:53:40Z</time>
      </trkpt>
      <trkpt lat="45.112" lon="5.89218">
        <ele>1980.717</ele>
        <time>2021-01-10T15:53:43Z</time>
      </trkpt>
      <trkpt lat="45.11198" lon="5.89215">
        <ele>1978.701</ele>
        <time>2021-01-10T15:53:46Z</time>
      </trkpt>
      <trkpt lat="45.11197" lon="5.89211">
        <ele>1979.766</ele>
        <time>2021-01-10T15:53:49Z</time>
      </trkpt>
      <trkpt lat="45.11197" lon="5.89209">
        <ele>1980.269</ele>
        <time>2021-01-10T15:53:51Z</time>
      </trkpt>
      <trkpt lat="45.11194" lon="5.89205">
        <ele>1979.036</ele>
        <time>2021-01-10T15:53:54Z</time>
      </trkpt>
      <trkpt lat="45.11192" lon="5.89203">
        <ele>1979.676</ele>
        <time>2021-01-10T15:53:56Z</time>
      </trkpt>
      <trkpt lat="45.1119" lon="5.89199">
        <ele>1976.084</ele>
        <time>2021-01-10T15:53:59Z</time>
      </trkpt>
      <trkpt lat="45.11187" lon="5.89195">
        <ele>1974.535</ele>
        <time>2021-01-10T15:54:01Z</time>
      </trkpt>
      <trkpt lat="45.11185" lon="5.89193">
        <ele>1974.777</ele>
        <time>2021-01-10T15:54:03Z</time>
      </trkpt>
      <trkpt lat="45.11184" lon="5.89192">
        <ele>1976.344</ele>
        <time>2021-01-10T15:54:05Z</time>
      </trkpt>
      <trkpt lat="45.11185" lon="5.89191">
        <ele>1976.618</ele>
        <time>2021-01-10T15:54:08Z</time>
      </trkpt>
      <trkpt lat="45.11184" lon="5.89188">
        <ele>1977.15</ele>
        <time>2021-01-10T15:54:11Z</time>
      </trkpt>
      <trkpt lat="45.11183" lon="5.89185">
        <ele>1975.688</ele>
        <time>2021-01-10T15:54:14Z</time>
      </trkpt>
      <trkpt lat="45.11181" lon="5.89181">
        <ele>1975.41</ele>
        <time>2021-01-10T15:54:17Z</time>
      </trkpt>
      <trkpt lat="45.11181" lon="5.89179">
        <ele>1975.617</ele>
        <time>2021-01-10T15:54:19Z</time>
      </trkpt>
      <trkpt lat="45.1118" lon="5.89176">
        <ele>1975.035</ele>
        <time>2021-01-10T15:54:22Z</time>
      </trkpt>
      <trkpt lat="45.11179" lon="5.89174">
        <ele>1974.76</ele>
        <time>2021-01-10T15:54:24Z</time>
      </trkpt>
      <trkpt lat="45.11179" lon="5.89171">
        <ele>1973.438</ele>
        <time>2021-01-10T15:54:26Z</time>
      </trkpt>
      <trkpt lat="45.11178" lon="5.8917">
        <ele>1974</ele>
        <time>2021-01-10T15:54:29Z</time>
      </trkpt>
      <trkpt lat="45.11177" lon="5.89166">
        <ele>1970.712</ele>
        <time>2021-01-10T15:54:32Z</time>
      </trkpt>
      <trkpt lat="45.11177" lon="5.89163">
        <ele>1972.108</ele>
        <time>2021-01-10T15:54:35Z</time>
      </trkpt>
      <trkpt lat="45.11177" lon="5.8916">
        <ele>1971.863</ele>
        <time>2021-01-10T15:54:37Z</time>
      </trkpt>
      <trkpt lat="45.11176" lon="5.89153">
        <ele>1969.526</ele>
        <time>2021-01-10T15:54:40Z</time>
      </trkpt>
      <trkpt lat="45.11175" lon="5.89149">
        <ele>1968.23</ele>
        <time>2021-01-10T15:54:42Z</time>
      </trkpt>
      <trkpt lat="45.11174" lon="5.89147">
        <ele>1969.55</ele>
        <time>2021-01-10T15:54:44Z</time>
      </trkpt>
      <trkpt lat="45.11174" lon="5.8914">
        <ele>1970.33</ele>
        <time>2021-01-10T15:54:47Z</time>
      </trkpt>
      <trkpt lat="45.11173" lon="5.89137">
        <ele>1969.914</ele>
        <time>2021-01-10T15:54:49Z</time>
      </trkpt>
      <trkpt lat="45.11172" lon="5.89132">
        <ele>1966.031</ele>
        <time>2021-01-10T15:54:52Z</time>
      </trkpt>
      <trkpt lat="45.1117" lon="5.89128">
        <ele>1966.866</ele>
        <time>2021-01-10T15:54:54Z</time>
      </trkpt>
      <trkpt lat="45.11167" lon="5.89124">
        <ele>1965.368</ele>
        <time>2021-01-10T15:54:56Z</time>
      </trkpt>
      <trkpt lat="45.11163" lon="5.89119">
        <ele>1967.86</ele>
        <time>2021-01-10T15:54:59Z</time>
      </trkpt>
      <trkpt lat="45.11163" lon="5.89115">
        <ele>1968.03</ele>
        <time>2021-01-10T15:55:01Z</time>
      </trkpt>
      <trkpt lat="45.11161" lon="5.8911">
        <ele>1968.14</ele>
        <time>2021-01-10T15:55:04Z</time>
      </trkpt>
      <trkpt lat="45.11158" lon="5.89106">
        <ele>1967.905</ele>
        <time>2021-01-10T15:55:07Z</time>
      </trkpt>
      <trkpt lat="45.11155" lon="5.89102">
        <ele>1970.007</ele>
        <time>2021-01-10T15:55:10Z</time>
      </trkpt>
      <trkpt lat="45.11151" lon="5.89101">
        <ele>1969.094</ele>
        <time>2021-01-10T15:55:12Z</time>
      </trkpt>
      <trkpt lat="45.11146" lon="5.89101">
        <ele>1968.542</ele>
        <time>2021-01-10T15:55:15Z</time>
      </trkpt>
      <trkpt lat="45.11144" lon="5.89097">
        <ele>1968.111</ele>
        <time>2021-01-10T15:55:18Z</time>
      </trkpt>
      <trkpt lat="45.11143" lon="5.89092">
        <ele>1967.149</ele>
        <time>2021-01-10T15:55:21Z</time>
      </trkpt>
      <trkpt lat="45.11143" lon="5.89088">
        <ele>1966.321</ele>
        <time>2021-01-10T15:55:24Z</time>
      </trkpt>
      <trkpt lat="45.11144" lon="5.89085">
        <ele>1965.34</ele>
        <time>2021-01-10T15:55:26Z</time>
      </trkpt>
      <trkpt lat="45.11144" lon="5.89084">
        <ele>1965.912</ele>
        <time>2021-01-10T15:55:29Z</time>
      </trkpt>
      <trkpt lat="45.11143" lon="5.8908">
        <ele>1966.047</ele>
        <time>2021-01-10T15:55:31Z</time>
      </trkpt>
      <trkpt lat="45.11142" lon="5.89076">
        <ele>1967.871</ele>
        <time>2021-01-10T15:55:34Z</time>
      </trkpt>
      <trkpt lat="45.11142" lon="5.89074">
        <ele>1968.837</ele>
        <time>2021-01-10T15:55:36Z</time>
      </trkpt>
      <trkpt lat="45.11141" lon="5.89071">
        <ele>1967.91</ele>
        <time>2021-01-10T15:55:39Z</time>
      </trkpt>
      <trkpt lat="45.11139" lon="5.89068">
        <ele>1968.957</ele>
        <time>2021-01-10T15:55:41Z</time>
      </trkpt>
      <trkpt lat="45.11137" lon="5.89065">
        <ele>1967.932</ele>
        <time>2021-01-10T15:55:43Z</time>
      </trkpt>
      <trkpt lat="45.11133" lon="5.89064">
        <ele>1965.341</ele>
        <time>2021-01-10T15:55:46Z</time>
      </trkpt>
      <trkpt lat="45.11131" lon="5.89062">
        <ele>1965.545</ele>
        <time>2021-01-10T15:55:49Z</time>
      </trkpt>
      <trkpt lat="45.11129" lon="5.89059">
        <ele>1965.78</ele>
        <time>2021-01-10T15:55:51Z</time>
      </trkpt>
      <trkpt lat="45.11126" lon="5.89058">
        <ele>1965.863</ele>
        <time>2021-01-10T15:55:53Z</time>
      </trkpt>
      <trkpt lat="45.11122" lon="5.89056">
        <ele>1962.177</ele>
        <time>2021-01-10T15:55:56Z</time>
      </trkpt>
      <trkpt lat="45.1112" lon="5.89055">
        <ele>1961.156</ele>
        <time>2021-01-10T15:55:58Z</time>
      </trkpt>
      <trkpt lat="45.11118" lon="5.89055">
        <ele>1961.098</ele>
        <time>2021-01-10T15:56:00Z</time>
      </trkpt>
      <trkpt lat="45.11113" lon="5.89053">
        <ele>1962.095</ele>
        <time>2021-01-10T15:56:03Z</time>
      </trkpt>
      <trkpt lat="45.1111" lon="5.89051">
        <ele>1963.68</ele>
        <time>2021-01-10T15:56:05Z</time>
      </trkpt>
      <trkpt lat="45.11107" lon="5.89048">
        <ele>1961.472</ele>
        <time>2021-01-10T15:56:07Z</time>
      </trkpt>
      <trkpt lat="45.11104" lon="5.89045">
        <ele>1963.625</ele>
        <time>2021-01-10T15:56:10Z</time>
      </trkpt>
      <trkpt lat="45.11102" lon="5.89043">
        <ele>1963.592</ele>
        <time>2021-01-10T15:56:12Z</time>
      </trkpt>
      <trkpt lat="45.11099" lon="5.89037">
        <ele>1964.801</ele>
        <time>2021-01-10T15:56:15Z</time>
      </trkpt>
      <trkpt lat="45.11098" lon="5.89034">
        <ele>1966.091</ele>
        <time>2021-01-10T15:56:18Z</time>
      </trkpt>
      <trkpt lat="45.11097" lon="5.89032">
        <ele>1965.181</ele>
        <time>2021-01-10T15:56:20Z</time>
      </trkpt>
      <trkpt lat="45.11096" lon="5.89029">
        <ele>1966.68</ele>
        <time>2021-01-10T15:56:22Z</time>
      </trkpt>
      <trkpt lat="45.11096" lon="5.89026">
        <ele>1968.637</ele>
        <time>2021-01-10T15:56:25Z</time>
      </trkpt>
      <trkpt lat="45.11096" lon="5.89027">
        <ele>1968.593</ele>
        <time>2021-01-10T15:56:27Z</time>
      </trkpt>
      <trkpt lat="45.11095" lon="5.89026">
        <ele>1966.302</ele>
        <time>2021-01-10T15:56:30Z</time>
      </trkpt>
      <trkpt lat="45.11093" lon="5.89025">
        <ele>1965.407</ele>
        <time>2021-01-10T15:56:32Z</time>
      </trkpt>
      <trkpt lat="45.11092" lon="5.89025">
        <ele>1965.012</ele>
        <time>2021-01-10T15:56:35Z</time>
      </trkpt>
      <trkpt lat="45.11091" lon="5.89024">
        <ele>1965.516</ele>
        <time>2021-01-10T15:56:37Z</time>
      </trkpt>
      <trkpt lat="45.11091" lon="5.89024">
        <ele>1965.866</ele>
        <time>2021-01-10T15:56:39Z</time>
      </trkpt>
      <trkpt lat="45.11091" lon="5.89024">
        <ele>1965.835</ele>
        <time>2021-01-10T15:56:42Z</time>
      </trkpt>
      <trkpt lat="45.11091" lon="5.89024">
        <ele>1966.037</ele>
        <time>2021-01-10T15:56:44Z</time>
      </trkpt>
      <trkpt lat="45.11091" lon="5.89024">
        <ele>1966.532</ele>
        <time>2021-01-10T15:56:46Z</time>
      </trkpt>
      <trkpt lat="45.11088" lon="5.8902">
        <ele>1964.218</ele>
        <time>2021-01-10T15:56:49Z</time>
      </trkpt>
      <trkpt lat="45.11085" lon="5.89019">
        <ele>1965.339</ele>
        <time>2021-01-10T15:56:51Z</time>
      </trkpt>
      <trkpt lat="45.11081" lon="5.89014">
        <ele>1967.395</ele>
        <time>2021-01-10T15:56:54Z</time>
      </trkpt>
      <trkpt lat="45.11079" lon="5.89009">
        <ele>1972.764</ele>
        <time>2021-01-10T15:56:56Z</time>
      </trkpt>
      <trkpt lat="45.11078" lon="5.89005">
        <ele>1973.358</ele>
        <time>2021-01-10T15:56:58Z</time>
      </trkpt>
      <trkpt lat="45.11073" lon="5.89">
        <ele>1977.007</ele>
        <time>2021-01-10T15:57:01Z</time>
      </trkpt>
      <trkpt lat="45.1107" lon="5.88997">
        <ele>1975.365</ele>
        <time>2021-01-10T15:57:03Z</time>
      </trkpt>
      <trkpt lat="45.11067" lon="5.88994">
        <ele>1974.074</ele>
        <time>2021-01-10T15:57:06Z</time>
      </trkpt>
      <trkpt lat="45.11064" lon="5.88993">
        <ele>1970.641</ele>
        <time>2021-01-10T15:57:08Z</time>
      </trkpt>
      <trkpt lat="45.11063" lon="5.88991">
        <ele>1970.41</ele>
        <time>2021-01-10T15:57:10Z</time>
      </trkpt>
      <trkpt lat="45.11061" lon="5.88989">
        <ele>1969.677</ele>
        <time>2021-01-10T15:57:13Z</time>
      </trkpt>
      <trkpt lat="45.1106" lon="5.88986">
        <ele>1968.591</ele>
        <time>2021-01-10T15:57:16Z</time>
      </trkpt>
      <trkpt lat="45.11059" lon="5.88982">
        <ele>1968.706</ele>
        <time>2021-01-10T15:57:18Z</time>
      </trkpt>
      <trkpt lat="45.11057" lon="5.88978">
        <ele>1969.323</ele>
        <time>2021-01-10T15:57:21Z</time>
      </trkpt>
      <trkpt lat="45.11056" lon="5.88976">
        <ele>1968.921</ele>
        <time>2021-01-10T15:57:23Z</time>
      </trkpt>
      <trkpt lat="45.11055" lon="5.88973">
        <ele>1968.809</ele>
        <time>2021-01-10T15:57:30Z</time>
      </trkpt>
      <trkpt lat="45.11053" lon="5.88974">
        <ele>1968.776</ele>
        <time>2021-01-10T15:57:32Z</time>
      </trkpt>
      <trkpt lat="45.11053" lon="5.88974">
        <ele>1969.263</ele>
        <time>2021-01-10T15:57:34Z</time>
      </trkpt>
      <trkpt lat="45.11055" lon="5.8897">
        <ele>1968.142</ele>
        <time>2021-01-10T15:57:36Z</time>
      </trkpt>
      <trkpt lat="45.11055" lon="5.88969">
        <ele>1967.713</ele>
        <time>2021-01-10T15:57:38Z</time>
      </trkpt>
      <trkpt lat="45.11056" lon="5.88968">
        <ele>1966.169</ele>
        <time>2021-01-10T15:57:41Z</time>
      </trkpt>
      <trkpt lat="45.11056" lon="5.88967">
        <ele>1966.226</ele>
        <time>2021-01-10T15:57:44Z</time>
      </trkpt>
      <trkpt lat="45.11057" lon="5.88966">
        <ele>1965.559</ele>
        <time>2021-01-10T15:57:47Z</time>
      </trkpt>
      <trkpt lat="45.11057" lon="5.88966">
        <ele>1965.724</ele>
        <time>2021-01-10T15:57:49Z</time>
      </trkpt>
      <trkpt lat="45.11057" lon="5.88966">
        <ele>1965.668</ele>
        <time>2021-01-10T15:57:51Z</time>
      </trkpt>
      <trkpt lat="45.11056" lon="5.88966">
        <ele>1965.249</ele>
        <time>2021-01-10T15:57:54Z</time>
      </trkpt>
      <trkpt lat="45.11057" lon="5.88966">
        <ele>1965.329</ele>
        <time>2021-01-10T15:57:57Z</time>
      </trkpt>
      <trkpt lat="45.11057" lon="5.88966">
        <ele>1965.334</ele>
        <time>2021-01-10T15:58:00Z</time>
      </trkpt>
      <trkpt lat="45.11057" lon="5.88966">
        <ele>1965.341</ele>
        <time>2021-01-10T15:58:02Z</time>
      </trkpt>
      <trkpt lat="45.11057" lon="5.88966">
        <ele>1965.318</ele>
        <time>2021-01-10T15:58:04Z</time>
      </trkpt>
      <trkpt lat="45.11057" lon="5.88966">
        <ele>1965.334</ele>
        <time>2021-01-10T15:58:07Z</time>
      </trkpt>
      <trkpt lat="45.11057" lon="5.88966">
        <ele>1965.376</ele>
        <time>2021-01-10T15:58:09Z</time>
      </trkpt>
      <trkpt lat="45.11056" lon="5.88966">
        <ele>1965.467</ele>
        <time>2021-01-10T15:58:11Z</time>
      </trkpt>
      <trkpt lat="45.11056" lon="5.88966">
        <ele>1965.47</ele>
        <time>2021-01-10T15:58:14Z</time>
      </trkpt>
      <trkpt lat="45.11056" lon="5.88966">
        <ele>1965.465</ele>
        <time>2021-01-10T15:58:17Z</time>
      </trkpt>
      <trkpt lat="45.11056" lon="5.88966">
        <ele>1965.47</ele>
        <time>2021-01-10T15:58:19Z</time>
      </trkpt>
      <trkpt lat="45.11055" lon="5.88963">
        <ele>1965.49</ele>
        <time>2021-01-10T15:58:22Z</time>
      </trkpt>
      <trkpt lat="45.11055" lon="5.88956">
        <ele>1966.344</ele>
        <time>2021-01-10T15:58:25Z</time>
      </trkpt>
      <trkpt lat="45.11058" lon="5.88948">
        <ele>1965.218</ele>
        <time>2021-01-10T15:58:28Z</time>
      </trkpt>
      <trkpt lat="45.11059" lon="5.8894">
        <ele>1966.399</ele>
        <time>2021-01-10T15:58:31Z</time>
      </trkpt>
      <trkpt lat="45.11058" lon="5.88935">
        <ele>1965.654</ele>
        <time>2021-01-10T15:58:33Z</time>
      </trkpt>
      <trkpt lat="45.11057" lon="5.8893">
        <ele>1969.584</ele>
        <time>2021-01-10T15:58:36Z</time>
      </trkpt>
      <trkpt lat="45.11055" lon="5.8893">
        <ele>1962.861</ele>
        <time>2021-01-10T15:58:39Z</time>
      </trkpt>
      <trkpt lat="45.11053" lon="5.8893">
        <ele>1955.328</ele>
        <time>2021-01-10T15:58:41Z</time>
      </trkpt>
      <trkpt lat="45.11049" lon="5.88927">
        <ele>1951.764</ele>
        <time>2021-01-10T15:58:44Z</time>
      </trkpt>
      <trkpt lat="45.11047" lon="5.88923">
        <ele>1951.993</ele>
        <time>2021-01-10T15:58:46Z</time>
      </trkpt>
      <trkpt lat="45.11045" lon="5.88918">
        <ele>1954.431</ele>
        <time>2021-01-10T15:58:49Z</time>
      </trkpt>
      <trkpt lat="45.11045" lon="5.88914">
        <ele>1952.327</ele>
        <time>2021-01-10T15:58:51Z</time>
      </trkpt>
      <trkpt lat="45.11045" lon="5.88909">
        <ele>1952.927</ele>
        <time>2021-01-10T15:58:54Z</time>
      </trkpt>
      <trkpt lat="45.11044" lon="5.88901">
        <ele>1952.67</ele>
        <time>2021-01-10T15:58:57Z</time>
      </trkpt>
      <trkpt lat="45.11043" lon="5.88894">
        <ele>1949.909</ele>
        <time>2021-01-10T15:59:00Z</time>
      </trkpt>
      <trkpt lat="45.11041" lon="5.8889">
        <ele>1951.394</ele>
        <time>2021-01-10T15:59:03Z</time>
      </trkpt>
      <trkpt lat="45.11039" lon="5.88886">
        <ele>1950.51</ele>
        <time>2021-01-10T15:59:05Z</time>
      </trkpt>
      <trkpt lat="45.11037" lon="5.88883">
        <ele>1950.623</ele>
        <time>2021-01-10T15:59:08Z</time>
      </trkpt>
      <trkpt lat="45.11037" lon="5.88877">
        <ele>1951.526</ele>
        <time>2021-01-10T15:59:10Z</time>
      </trkpt>
      <trkpt lat="45.11035" lon="5.88871">
        <ele>1953.041</ele>
        <time>2021-01-10T15:59:13Z</time>
      </trkpt>
      <trkpt lat="45.11037" lon="5.88868">
        <ele>1953.446</ele>
        <time>2021-01-10T15:59:15Z</time>
      </trkpt>
      <trkpt lat="45.11037" lon="5.88864">
        <ele>1950.53</ele>
        <time>2021-01-10T15:59:18Z</time>
      </trkpt>
      <trkpt lat="45.11035" lon="5.88863">
        <ele>1949.791</ele>
        <time>2021-01-10T15:59:20Z</time>
      </trkpt>
      <trkpt lat="45.11035" lon="5.8886">
        <ele>1946.133</ele>
        <time>2021-01-10T15:59:23Z</time>
      </trkpt>
      <trkpt lat="45.11035" lon="5.88855">
        <ele>1943.084</ele>
        <time>2021-01-10T15:59:26Z</time>
      </trkpt>
      <trkpt lat="45.11036" lon="5.88851">
        <ele>1940.237</ele>
        <time>2021-01-10T15:59:29Z</time>
      </trkpt>
      <trkpt lat="45.11038" lon="5.88848">
        <ele>1938.575</ele>
        <time>2021-01-10T15:59:32Z</time>
      </trkpt>
      <trkpt lat="45.11037" lon="5.88849">
        <ele>1937.64</ele>
        <time>2021-01-10T15:59:34Z</time>
      </trkpt>
      <trkpt lat="45.11035" lon="5.88849">
        <ele>1937.958</ele>
        <time>2021-01-10T15:59:36Z</time>
      </trkpt>
      <trkpt lat="45.11032" lon="5.88849">
        <ele>1937.348</ele>
        <time>2021-01-10T15:59:39Z</time>
      </trkpt>
      <trkpt lat="45.11031" lon="5.8885">
        <ele>1938.741</ele>
        <time>2021-01-10T15:59:42Z</time>
      </trkpt>
      <trkpt lat="45.11029" lon="5.8885">
        <ele>1939.788</ele>
        <time>2021-01-10T15:59:44Z</time>
      </trkpt>
      <trkpt lat="45.11029" lon="5.88847">
        <ele>1935.442</ele>
        <time>2021-01-10T15:59:46Z</time>
      </trkpt>
      <trkpt lat="45.11029" lon="5.88844">
        <ele>1936.23</ele>
        <time>2021-01-10T15:59:48Z</time>
      </trkpt>
      <trkpt lat="45.11027" lon="5.88842">
        <ele>1932.824</ele>
        <time>2021-01-10T15:59:51Z</time>
      </trkpt>
      <trkpt lat="45.11024" lon="5.8884">
        <ele>1930.23</ele>
        <time>2021-01-10T15:59:53Z</time>
      </trkpt>
      <trkpt lat="45.11022" lon="5.88838">
        <ele>1928.298</ele>
        <time>2021-01-10T15:59:55Z</time>
      </trkpt>
      <trkpt lat="45.11019" lon="5.88835">
        <ele>1924.354</ele>
        <time>2021-01-10T15:59:57Z</time>
      </trkpt>
      <trkpt lat="45.11015" lon="5.88832">
        <ele>1924.576</ele>
        <time>2021-01-10T16:00:00Z</time>
      </trkpt>
      <trkpt lat="45.11014" lon="5.88833">
        <ele>1924.895</ele>
        <time>2021-01-10T16:00:03Z</time>
      </trkpt>
      <trkpt lat="45.11014" lon="5.88832">
        <ele>1924.615</ele>
        <time>2021-01-10T16:00:05Z</time>
      </trkpt>
      <trkpt lat="45.11012" lon="5.8883">
        <ele>1923.912</ele>
        <time>2021-01-10T16:00:08Z</time>
      </trkpt>
      <trkpt lat="45.11009" lon="5.88825">
        <ele>1921.309</ele>
        <time>2021-01-10T16:00:11Z</time>
      </trkpt>
      <trkpt lat="45.11006" lon="5.88822">
        <ele>1920.959</ele>
        <time>2021-01-10T16:00:13Z</time>
      </trkpt>
      <trkpt lat="45.11003" lon="5.8882">
        <ele>1921.125</ele>
        <time>2021-01-10T16:00:15Z</time>
      </trkpt>
      <trkpt lat="45.10998" lon="5.88815">
        <ele>1920.596</ele>
        <time>2021-01-10T16:00:18Z</time>
      </trkpt>
      <trkpt lat="45.10995" lon="5.88814">
        <ele>1919.204</ele>
        <time>2021-01-10T16:00:20Z</time>
      </trkpt>
      <trkpt lat="45.10992" lon="5.88813">
        <ele>1917.968</ele>
        <time>2021-01-10T16:00:23Z</time>
      </trkpt>
      <trkpt lat="45.10991" lon="5.88811">
        <ele>1916.603</ele>
        <time>2021-01-10T16:00:25Z</time>
      </trkpt>
      <trkpt lat="45.1099" lon="5.88808">
        <ele>1915.508</ele>
        <time>2021-01-10T16:00:27Z</time>
      </trkpt>
      <trkpt lat="45.10988" lon="5.88806">
        <ele>1917.257</ele>
        <time>2021-01-10T16:00:30Z</time>
      </trkpt>
      <trkpt lat="45.10987" lon="5.88804">
        <ele>1916.746</ele>
        <time>2021-01-10T16:00:32Z</time>
      </trkpt>
      <trkpt lat="45.10986" lon="5.88804">
        <ele>1916.185</ele>
        <time>2021-01-10T16:00:35Z</time>
      </trkpt>
      <trkpt lat="45.10984" lon="5.88801">
        <ele>1916.775</ele>
        <time>2021-01-10T16:00:37Z</time>
      </trkpt>
      <trkpt lat="45.10987" lon="5.88795">
        <ele>1914.051</ele>
        <time>2021-01-10T16:00:40Z</time>
      </trkpt>
      <trkpt lat="45.10987" lon="5.88791">
        <ele>1914.115</ele>
        <time>2021-01-10T16:00:42Z</time>
      </trkpt>
      <trkpt lat="45.10985" lon="5.88785">
        <ele>1912.448</ele>
        <time>2021-01-10T16:00:45Z</time>
      </trkpt>
      <trkpt lat="45.10982" lon="5.88784">
        <ele>1911.847</ele>
        <time>2021-01-10T16:00:48Z</time>
      </trkpt>
      <trkpt lat="45.10979" lon="5.8878">
        <ele>1910.289</ele>
        <time>2021-01-10T16:00:51Z</time>
      </trkpt>
      <trkpt lat="45.10978" lon="5.88778">
        <ele>1910.35</ele>
        <time>2021-01-10T16:00:53Z</time>
      </trkpt>
      <trkpt lat="45.10977" lon="5.88775">
        <ele>1911.029</ele>
        <time>2021-01-10T16:00:56Z</time>
      </trkpt>
      <trkpt lat="45.10976" lon="5.88772">
        <ele>1911.382</ele>
        <time>2021-01-10T16:00:59Z</time>
      </trkpt>
      <trkpt lat="45.10976" lon="5.8877">
        <ele>1911.614</ele>
        <time>2021-01-10T16:01:01Z</time>
      </trkpt>
      <trkpt lat="45.10975" lon="5.88767">
        <ele>1909.919</ele>
        <time>2021-01-10T16:01:03Z</time>
      </trkpt>
      <trkpt lat="45.10974" lon="5.88764">
        <ele>1910.273</ele>
        <time>2021-01-10T16:01:05Z</time>
      </trkpt>
      <trkpt lat="45.10975" lon="5.88758">
        <ele>1907.591</ele>
        <time>2021-01-10T16:01:08Z</time>
      </trkpt>
      <trkpt lat="45.10976" lon="5.88752">
        <ele>1907.369</ele>
        <time>2021-01-10T16:01:11Z</time>
      </trkpt>
      <trkpt lat="45.1098" lon="5.88748">
        <ele>1903.667</ele>
        <time>2021-01-10T16:01:14Z</time>
      </trkpt>
      <trkpt lat="45.10981" lon="5.88742">
        <ele>1897.395</ele>
        <time>2021-01-10T16:01:17Z</time>
      </trkpt>
      <trkpt lat="45.10981" lon="5.88736">
        <ele>1897.766</ele>
        <time>2021-01-10T16:01:20Z</time>
      </trkpt>
      <trkpt lat="45.10981" lon="5.8873">
        <ele>1891.423</ele>
        <time>2021-01-10T16:01:23Z</time>
      </trkpt>
      <trkpt lat="45.10979" lon="5.88724">
        <ele>1891.402</ele>
        <time>2021-01-10T16:01:26Z</time>
      </trkpt>
      <trkpt lat="45.10977" lon="5.88717">
        <ele>1895.087</ele>
        <time>2021-01-10T16:01:29Z</time>
      </trkpt>
      <trkpt lat="45.10975" lon="5.88715">
        <ele>1895.748</ele>
        <time>2021-01-10T16:01:31Z</time>
      </trkpt>
      <trkpt lat="45.10974" lon="5.8871">
        <ele>1893.962</ele>
        <time>2021-01-10T16:01:34Z</time>
      </trkpt>
      <trkpt lat="45.10973" lon="5.88706">
        <ele>1892.61</ele>
        <time>2021-01-10T16:01:36Z</time>
      </trkpt>
      <trkpt lat="45.10973" lon="5.88702">
        <ele>1893.121</ele>
        <time>2021-01-10T16:01:38Z</time>
      </trkpt>
      <trkpt lat="45.10973" lon="5.88699">
        <ele>1893.185</ele>
        <time>2021-01-10T16:01:40Z</time>
      </trkpt>
      <trkpt lat="45.10974" lon="5.88694">
        <ele>1893.12</ele>
        <time>2021-01-10T16:01:43Z</time>
      </trkpt>
      <trkpt lat="45.10974" lon="5.8869">
        <ele>1892.346</ele>
        <time>2021-01-10T16:01:45Z</time>
      </trkpt>
      <trkpt lat="45.10972" lon="5.88686">
        <ele>1890.888</ele>
        <time>2021-01-10T16:01:47Z</time>
      </trkpt>
      <trkpt lat="45.10971" lon="5.88676">
        <ele>1889.611</ele>
        <time>2021-01-10T16:01:50Z</time>
      </trkpt>
      <trkpt lat="45.10971" lon="5.8867">
        <ele>1890.921</ele>
        <time>2021-01-10T16:01:53Z</time>
      </trkpt>
      <trkpt lat="45.10971" lon="5.88661">
        <ele>1886.575</ele>
        <time>2021-01-10T16:01:56Z</time>
      </trkpt>
      <trkpt lat="45.10971" lon="5.88654">
        <ele>1887.595</ele>
        <time>2021-01-10T16:01:58Z</time>
      </trkpt>
      <trkpt lat="45.10972" lon="5.88647">
        <ele>1888.394</ele>
        <time>2021-01-10T16:02:01Z</time>
      </trkpt>
      <trkpt lat="45.10974" lon="5.88643">
        <ele>1890.909</ele>
        <time>2021-01-10T16:02:04Z</time>
      </trkpt>
      <trkpt lat="45.10972" lon="5.88632">
        <ele>1891.685</ele>
        <time>2021-01-10T16:02:07Z</time>
      </trkpt>
      <trkpt lat="45.10973" lon="5.88625">
        <ele>1892.512</ele>
        <time>2021-01-10T16:02:09Z</time>
      </trkpt>
      <trkpt lat="45.10972" lon="5.8862">
        <ele>1890.569</ele>
        <time>2021-01-10T16:02:12Z</time>
      </trkpt>
      <trkpt lat="45.10975" lon="5.88617">
        <ele>1890.47</ele>
        <time>2021-01-10T16:02:14Z</time>
      </trkpt>
      <trkpt lat="45.10978" lon="5.88613">
        <ele>1888.705</ele>
        <time>2021-01-10T16:02:16Z</time>
      </trkpt>
      <trkpt lat="45.1098" lon="5.88609">
        <ele>1889.736</ele>
        <time>2021-01-10T16:02:19Z</time>
      </trkpt>
      <trkpt lat="45.1098" lon="5.88607">
        <ele>1891.041</ele>
        <time>2021-01-10T16:02:21Z</time>
      </trkpt>
      <trkpt lat="45.1098" lon="5.88606">
        <ele>1891.334</ele>
        <time>2021-01-10T16:02:23Z</time>
      </trkpt>
      <trkpt lat="45.10982" lon="5.88609">
        <ele>1888.667</ele>
        <time>2021-01-10T16:02:26Z</time>
      </trkpt>
      <trkpt lat="45.10981" lon="5.88608">
        <ele>1888.91</ele>
        <time>2021-01-10T16:02:29Z</time>
      </trkpt>
      <trkpt lat="45.10981" lon="5.88608">
        <ele>1887.662</ele>
        <time>2021-01-10T16:02:31Z</time>
      </trkpt>
      <trkpt lat="45.10981" lon="5.88606">
        <ele>1887.149</ele>
        <time>2021-01-10T16:02:34Z</time>
      </trkpt>
      <trkpt lat="45.10984" lon="5.88605">
        <ele>1888.118</ele>
        <time>2021-01-10T16:02:37Z</time>
      </trkpt>
      <trkpt lat="45.10985" lon="5.88605">
        <ele>1891.601</ele>
        <time>2021-01-10T16:02:39Z</time>
      </trkpt>
      <trkpt lat="45.10985" lon="5.88606">
        <ele>1891.356</ele>
        <time>2021-01-10T16:02:42Z</time>
      </trkpt>
      <trkpt lat="45.10985" lon="5.88606">
        <ele>1890.838</ele>
        <time>2021-01-10T16:02:45Z</time>
      </trkpt>
      <trkpt lat="45.10985" lon="5.88606">
        <ele>1891.389</ele>
        <time>2021-01-10T16:02:47Z</time>
      </trkpt>
      <trkpt lat="45.10985" lon="5.88605">
        <ele>1892.206</ele>
        <time>2021-01-10T16:02:50Z</time>
      </trkpt>
      <trkpt lat="45.10985" lon="5.88605">
        <ele>1893.27</ele>
        <time>2021-01-10T16:02:52Z</time>
      </trkpt>
      <trkpt lat="45.10985" lon="5.88602">
        <ele>1895.72</ele>
        <time>2021-01-10T16:02:55Z</time>
      </trkpt>
      <trkpt lat="45.10983" lon="5.88596">
        <ele>1893.536</ele>
        <time>2021-01-10T16:02:57Z</time>
      </trkpt>
      <trkpt lat="45.10983" lon="5.88587">
        <ele>1893.406</ele>
        <time>2021-01-10T16:03:00Z</time>
      </trkpt>
      <trkpt lat="45.10983" lon="5.88581">
        <ele>1893.005</ele>
        <time>2021-01-10T16:03:02Z</time>
      </trkpt>
      <trkpt lat="45.10984" lon="5.88575">
        <ele>1894.796</ele>
        <time>2021-01-10T16:03:05Z</time>
      </trkpt>
      <trkpt lat="45.10986" lon="5.88565">
        <ele>1894.183</ele>
        <time>2021-01-10T16:03:08Z</time>
      </trkpt>
      <trkpt lat="45.10987" lon="5.88557">
        <ele>1892.679</ele>
        <time>2021-01-10T16:03:10Z</time>
      </trkpt>
      <trkpt lat="45.10986" lon="5.8855">
        <ele>1893.83</ele>
        <time>2021-01-10T16:03:12Z</time>
      </trkpt>
      <trkpt lat="45.10986" lon="5.8854">
        <ele>1895.084</ele>
        <time>2021-01-10T16:03:15Z</time>
      </trkpt>
      <trkpt lat="45.10987" lon="5.88528">
        <ele>1894.169</ele>
        <time>2021-01-10T16:03:18Z</time>
      </trkpt>
      <trkpt lat="45.10986" lon="5.88522">
        <ele>1894.445</ele>
        <time>2021-01-10T16:03:21Z</time>
      </trkpt>
      <trkpt lat="45.10986" lon="5.88522">
        <ele>1893.851</ele>
        <time>2021-01-10T16:03:24Z</time>
      </trkpt>
      <trkpt lat="45.10987" lon="5.88521">
        <ele>1895.366</ele>
        <time>2021-01-10T16:03:26Z</time>
      </trkpt>
      <trkpt lat="45.10989" lon="5.88518">
        <ele>1896.965</ele>
        <time>2021-01-10T16:03:28Z</time>
      </trkpt>
      <trkpt lat="45.10992" lon="5.88515">
        <ele>1896.585</ele>
        <time>2021-01-10T16:03:31Z</time>
      </trkpt>
      <trkpt lat="45.10992" lon="5.88511">
        <ele>1895.375</ele>
        <time>2021-01-10T16:03:34Z</time>
      </trkpt>
      <trkpt lat="45.10992" lon="5.88506">
        <ele>1897.216</ele>
        <time>2021-01-10T16:03:37Z</time>
      </trkpt>
      <trkpt lat="45.10993" lon="5.88502">
        <ele>1895.598</ele>
        <time>2021-01-10T16:03:40Z</time>
      </trkpt>
      <trkpt lat="45.10994" lon="5.885">
        <ele>1895.743</ele>
        <time>2021-01-10T16:03:42Z</time>
      </trkpt>
      <trkpt lat="45.10995" lon="5.88497">
        <ele>1897.739</ele>
        <time>2021-01-10T16:03:44Z</time>
      </trkpt>
      <trkpt lat="45.10997" lon="5.88491">
        <ele>1898.587</ele>
        <time>2021-01-10T16:03:47Z</time>
      </trkpt>
      <trkpt lat="45.10998" lon="5.88487">
        <ele>1898.395</ele>
        <time>2021-01-10T16:03:49Z</time>
      </trkpt>
      <trkpt lat="45.10998" lon="5.88482">
        <ele>1898.156</ele>
        <time>2021-01-10T16:03:52Z</time>
      </trkpt>
      <trkpt lat="45.11001" lon="5.88478">
        <ele>1896.196</ele>
        <time>2021-01-10T16:03:55Z</time>
      </trkpt>
      <trkpt lat="45.11005" lon="5.88474">
        <ele>1896.887</ele>
        <time>2021-01-10T16:03:58Z</time>
      </trkpt>
      <trkpt lat="45.11007" lon="5.88469">
        <ele>1897.264</ele>
        <time>2021-01-10T16:04:01Z</time>
      </trkpt>
      <trkpt lat="45.11009" lon="5.88467">
        <ele>1899.27</ele>
        <time>2021-01-10T16:04:03Z</time>
      </trkpt>
      <trkpt lat="45.11011" lon="5.88462">
        <ele>1902.28</ele>
        <time>2021-01-10T16:04:06Z</time>
      </trkpt>
      <trkpt lat="45.11012" lon="5.8846">
        <ele>1903.225</ele>
        <time>2021-01-10T16:04:08Z</time>
      </trkpt>
      <trkpt lat="45.11014" lon="5.88455">
        <ele>1904.523</ele>
        <time>2021-01-10T16:04:11Z</time>
      </trkpt>
      <trkpt lat="45.11016" lon="5.88453">
        <ele>1902.181</ele>
        <time>2021-01-10T16:04:13Z</time>
      </trkpt>
      <trkpt lat="45.11018" lon="5.8845">
        <ele>1900.261</ele>
        <time>2021-01-10T16:04:16Z</time>
      </trkpt>
      <trkpt lat="45.11019" lon="5.88447">
        <ele>1896.221</ele>
        <time>2021-01-10T16:04:19Z</time>
      </trkpt>
      <trkpt lat="45.11021" lon="5.88442">
        <ele>1893.538</ele>
        <time>2021-01-10T16:04:22Z</time>
      </trkpt>
      <trkpt lat="45.11019" lon="5.88435">
        <ele>1894.344</ele>
        <time>2021-01-10T16:04:25Z</time>
      </trkpt>
      <trkpt lat="45.11019" lon="5.88429">
        <ele>1893.303</ele>
        <time>2021-01-10T16:04:28Z</time>
      </trkpt>
      <trkpt lat="45.1102" lon="5.88426">
        <ele>1894.495</ele>
        <time>2021-01-10T16:04:30Z</time>
      </trkpt>
      <trkpt lat="45.11022" lon="5.88423">
        <ele>1895.05</ele>
        <time>2021-01-10T16:04:32Z</time>
      </trkpt>
      <trkpt lat="45.11024" lon="5.8842">
        <ele>1892.072</ele>
        <time>2021-01-10T16:04:35Z</time>
      </trkpt>
      <trkpt lat="45.11025" lon="5.88417">
        <ele>1892.118</ele>
        <time>2021-01-10T16:04:37Z</time>
      </trkpt>
      <trkpt lat="45.11026" lon="5.88412">
        <ele>1889.479</ele>
        <time>2021-01-10T16:04:40Z</time>
      </trkpt>
      <trkpt lat="45.11026" lon="5.88409">
        <ele>1891.647</ele>
        <time>2021-01-10T16:04:42Z</time>
      </trkpt>
      <trkpt lat="45.11026" lon="5.88407">
        <ele>1889.881</ele>
        <time>2021-01-10T16:04:44Z</time>
      </trkpt>
      <trkpt lat="45.11026" lon="5.88402">
        <ele>1890.052</ele>
        <time>2021-01-10T16:04:47Z</time>
      </trkpt>
      <trkpt lat="45.11028" lon="5.88398">
        <ele>1888.32</ele>
        <time>2021-01-10T16:04:50Z</time>
      </trkpt>
      <trkpt lat="45.11028" lon="5.88394">
        <ele>1887.568</ele>
        <time>2021-01-10T16:04:53Z</time>
      </trkpt>
      <trkpt lat="45.11028" lon="5.88391">
        <ele>1887.644</ele>
        <time>2021-01-10T16:04:55Z</time>
      </trkpt>
      <trkpt lat="45.11028" lon="5.88389">
        <ele>1888.162</ele>
        <time>2021-01-10T16:04:57Z</time>
      </trkpt>
      <trkpt lat="45.11029" lon="5.88383">
        <ele>1885.61</ele>
        <time>2021-01-10T16:05:00Z</time>
      </trkpt>
      <trkpt lat="45.11029" lon="5.8838">
        <ele>1886.868</ele>
        <time>2021-01-10T16:05:02Z</time>
      </trkpt>
      <trkpt lat="45.1103" lon="5.88375">
        <ele>1886.701</ele>
        <time>2021-01-10T16:05:05Z</time>
      </trkpt>
      <trkpt lat="45.11031" lon="5.88371">
        <ele>1886.117</ele>
        <time>2021-01-10T16:05:08Z</time>
      </trkpt>
      <trkpt lat="45.11034" lon="5.88368">
        <ele>1883.329</ele>
        <time>2021-01-10T16:05:11Z</time>
      </trkpt>
      <trkpt lat="45.11035" lon="5.88365">
        <ele>1884.316</ele>
        <time>2021-01-10T16:05:13Z</time>
      </trkpt>
      <trkpt lat="45.11035" lon="5.88362">
        <ele>1884.497</ele>
        <time>2021-01-10T16:05:15Z</time>
      </trkpt>
      <trkpt lat="45.11037" lon="5.88357">
        <ele>1883.368</ele>
        <time>2021-01-10T16:05:18Z</time>
      </trkpt>
      <trkpt lat="45.11038" lon="5.88355">
        <ele>1883.622</ele>
        <time>2021-01-10T16:05:20Z</time>
      </trkpt>
      <trkpt lat="45.11041" lon="5.88352">
        <ele>1885.228</ele>
        <time>2021-01-10T16:05:23Z</time>
      </trkpt>
      <trkpt lat="45.11041" lon="5.88347">
        <ele>1884.609</ele>
        <time>2021-01-10T16:05:26Z</time>
      </trkpt>
      <trkpt lat="45.11041" lon="5.88343">
        <ele>1884.531</ele>
        <time>2021-01-10T16:05:29Z</time>
      </trkpt>
      <trkpt lat="45.11045" lon="5.88339">
        <ele>1882.328</ele>
        <time>2021-01-10T16:05:32Z</time>
      </trkpt>
      <trkpt lat="45.11049" lon="5.88335">
        <ele>1880.458</ele>
        <time>2021-01-10T16:05:35Z</time>
      </trkpt>
      <trkpt lat="45.11052" lon="5.88331">
        <ele>1881.55</ele>
        <time>2021-01-10T16:05:37Z</time>
      </trkpt>
      <trkpt lat="45.11055" lon="5.88328">
        <ele>1881.658</ele>
        <time>2021-01-10T16:05:39Z</time>
      </trkpt>
      <trkpt lat="45.11057" lon="5.88325">
        <ele>1883.216</ele>
        <time>2021-01-10T16:05:42Z</time>
      </trkpt>
      <trkpt lat="45.11059" lon="5.88322">
        <ele>1883.572</ele>
        <time>2021-01-10T16:05:44Z</time>
      </trkpt>
      <trkpt lat="45.1106" lon="5.88317">
        <ele>1883.464</ele>
        <time>2021-01-10T16:05:47Z</time>
      </trkpt>
      <trkpt lat="45.11061" lon="5.88313">
        <ele>1884.85</ele>
        <time>2021-01-10T16:05:49Z</time>
      </trkpt>
      <trkpt lat="45.11064" lon="5.88309">
        <ele>1883.287</ele>
        <time>2021-01-10T16:05:51Z</time>
      </trkpt>
      <trkpt lat="45.11067" lon="5.88306">
        <ele>1883.067</ele>
        <time>2021-01-10T16:05:53Z</time>
      </trkpt>
      <trkpt lat="45.11069" lon="5.88304">
        <ele>1881.755</ele>
        <time>2021-01-10T16:05:55Z</time>
      </trkpt>
      <trkpt lat="45.1107" lon="5.883">
        <ele>1882.895</ele>
        <time>2021-01-10T16:05:57Z</time>
      </trkpt>
      <trkpt lat="45.1107" lon="5.88297">
        <ele>1883.425</ele>
        <time>2021-01-10T16:05:59Z</time>
      </trkpt>
      <trkpt lat="45.11071" lon="5.88294">
        <ele>1884.066</ele>
        <time>2021-01-10T16:06:02Z</time>
      </trkpt>
      <trkpt lat="45.11074" lon="5.88289">
        <ele>1885.636</ele>
        <time>2021-01-10T16:06:05Z</time>
      </trkpt>
      <trkpt lat="45.11076" lon="5.88284">
        <ele>1882.361</ele>
        <time>2021-01-10T16:06:08Z</time>
      </trkpt>
      <trkpt lat="45.11078" lon="5.88281">
        <ele>1880.808</ele>
        <time>2021-01-10T16:06:10Z</time>
      </trkpt>
      <trkpt lat="45.11078" lon="5.88275">
        <ele>1880.109</ele>
        <time>2021-01-10T16:06:13Z</time>
      </trkpt>
      <trkpt lat="45.11078" lon="5.88271">
        <ele>1881.212</ele>
        <time>2021-01-10T16:06:15Z</time>
      </trkpt>
      <trkpt lat="45.11077" lon="5.88266">
        <ele>1880.712</ele>
        <time>2021-01-10T16:06:18Z</time>
      </trkpt>
      <trkpt lat="45.11077" lon="5.88262">
        <ele>1879.076</ele>
        <time>2021-01-10T16:06:20Z</time>
      </trkpt>
      <trkpt lat="45.11077" lon="5.88258">
        <ele>1878.678</ele>
        <time>2021-01-10T16:06:22Z</time>
      </trkpt>
      <trkpt lat="45.11077" lon="5.88252">
        <ele>1877.848</ele>
        <time>2021-01-10T16:06:25Z</time>
      </trkpt>
      <trkpt lat="45.11078" lon="5.88247">
        <ele>1878.168</ele>
        <time>2021-01-10T16:06:28Z</time>
      </trkpt>
      <trkpt lat="45.1108" lon="5.88241">
        <ele>1878.177</ele>
        <time>2021-01-10T16:06:31Z</time>
      </trkpt>
      <trkpt lat="45.11081" lon="5.88238">
        <ele>1879.607</ele>
        <time>2021-01-10T16:06:33Z</time>
      </trkpt>
      <trkpt lat="45.11083" lon="5.8823">
        <ele>1878.598</ele>
        <time>2021-01-10T16:06:36Z</time>
      </trkpt>
      <trkpt lat="45.11084" lon="5.88227">
        <ele>1877.897</ele>
        <time>2021-01-10T16:06:38Z</time>
      </trkpt>
      <trkpt lat="45.11084" lon="5.88223">
        <ele>1876.862</ele>
        <time>2021-01-10T16:06:41Z</time>
      </trkpt>
      <trkpt lat="45.11084" lon="5.88217">
        <ele>1876.043</ele>
        <time>2021-01-10T16:06:44Z</time>
      </trkpt>
      <trkpt lat="45.11086" lon="5.88211">
        <ele>1875.845</ele>
        <time>2021-01-10T16:06:47Z</time>
      </trkpt>
      <trkpt lat="45.11086" lon="5.88206">
        <ele>1875.474</ele>
        <time>2021-01-10T16:06:49Z</time>
      </trkpt>
      <trkpt lat="45.11087" lon="5.882">
        <ele>1875.454</ele>
        <time>2021-01-10T16:06:51Z</time>
      </trkpt>
      <trkpt lat="45.11089" lon="5.88193">
        <ele>1875.766</ele>
        <time>2021-01-10T16:06:54Z</time>
      </trkpt>
      <trkpt lat="45.11089" lon="5.88189">
        <ele>1876.785</ele>
        <time>2021-01-10T16:06:56Z</time>
      </trkpt>
      <trkpt lat="45.11089" lon="5.88186">
        <ele>1877.083</ele>
        <time>2021-01-10T16:06:58Z</time>
      </trkpt>
      <trkpt lat="45.11088" lon="5.88181">
        <ele>1876.428</ele>
        <time>2021-01-10T16:07:01Z</time>
      </trkpt>
      <trkpt lat="45.11084" lon="5.88175">
        <ele>1876.99</ele>
        <time>2021-01-10T16:07:04Z</time>
      </trkpt>
      <trkpt lat="45.11081" lon="5.88172">
        <ele>1877.715</ele>
        <time>2021-01-10T16:07:06Z</time>
      </trkpt>
      <trkpt lat="45.11079" lon="5.88168">
        <ele>1879.818</ele>
        <time>2021-01-10T16:07:09Z</time>
      </trkpt>
      <trkpt lat="45.11076" lon="5.88164">
        <ele>1878.284</ele>
        <time>2021-01-10T16:07:12Z</time>
      </trkpt>
      <trkpt lat="45.11074" lon="5.8816">
        <ele>1879.895</ele>
        <time>2021-01-10T16:07:15Z</time>
      </trkpt>
      <trkpt lat="45.11073" lon="5.88155">
        <ele>1878.705</ele>
        <time>2021-01-10T16:07:18Z</time>
      </trkpt>
      <trkpt lat="45.11072" lon="5.88152">
        <ele>1877.817</ele>
        <time>2021-01-10T16:07:20Z</time>
      </trkpt>
      <trkpt lat="45.11072" lon="5.88146">
        <ele>1877.88</ele>
        <time>2021-01-10T16:07:23Z</time>
      </trkpt>
      <trkpt lat="45.11073" lon="5.88143">
        <ele>1879.562</ele>
        <time>2021-01-10T16:07:25Z</time>
      </trkpt>
      <trkpt lat="45.11072" lon="5.88138">
        <ele>1878.847</ele>
        <time>2021-01-10T16:07:28Z</time>
      </trkpt>
      <trkpt lat="45.11073" lon="5.88132">
        <ele>1879.708</ele>
        <time>2021-01-10T16:07:31Z</time>
      </trkpt>
      <trkpt lat="45.11073" lon="5.88125">
        <ele>1876.936</ele>
        <time>2021-01-10T16:07:34Z</time>
      </trkpt>
      <trkpt lat="45.11071" lon="5.88122">
        <ele>1878.419</ele>
        <time>2021-01-10T16:07:37Z</time>
      </trkpt>
      <trkpt lat="45.11069" lon="5.8812">
        <ele>1880.509</ele>
        <time>2021-01-10T16:07:39Z</time>
      </trkpt>
      <trkpt lat="45.11068" lon="5.88117">
        <ele>1879.779</ele>
        <time>2021-01-10T16:07:42Z</time>
      </trkpt>
      <trkpt lat="45.11066" lon="5.88115">
        <ele>1875.293</ele>
        <time>2021-01-10T16:07:45Z</time>
      </trkpt>
      <trkpt lat="45.11065" lon="5.88115">
        <ele>1874.056</ele>
        <time>2021-01-10T16:07:47Z</time>
      </trkpt>
      <trkpt lat="45.11061" lon="5.88114">
        <ele>1872.047</ele>
        <time>2021-01-10T16:07:50Z</time>
      </trkpt>
      <trkpt lat="45.11057" lon="5.88115">
        <ele>1875.28</ele>
        <time>2021-01-10T16:07:53Z</time>
      </trkpt>
      <trkpt lat="45.11056" lon="5.88116">
        <ele>1876.427</ele>
        <time>2021-01-10T16:07:56Z</time>
      </trkpt>
      <trkpt lat="45.11056" lon="5.88117">
        <ele>1877.71</ele>
        <time>2021-01-10T16:07:58Z</time>
      </trkpt>
      <trkpt lat="45.11055" lon="5.88117">
        <ele>1879.403</ele>
        <time>2021-01-10T16:08:01Z</time>
      </trkpt>
      <trkpt lat="45.11055" lon="5.88118">
        <ele>1879.786</ele>
        <time>2021-01-10T16:08:04Z</time>
      </trkpt>
      <trkpt lat="45.11054" lon="5.88117">
        <ele>1880.478</ele>
        <time>2021-01-10T16:08:06Z</time>
      </trkpt>
      <trkpt lat="45.11054" lon="5.88117">
        <ele>1880.945</ele>
        <time>2021-01-10T16:08:09Z</time>
      </trkpt>
      <trkpt lat="45.11054" lon="5.88116">
        <ele>1879.429</ele>
        <time>2021-01-10T16:08:12Z</time>
      </trkpt>
      <trkpt lat="45.11054" lon="5.88114">
        <ele>1880.693</ele>
        <time>2021-01-10T16:08:15Z</time>
      </trkpt>
      <trkpt lat="45.11053" lon="5.88114">
        <ele>1883.194</ele>
        <time>2021-01-10T16:08:18Z</time>
      </trkpt>
      <trkpt lat="45.11053" lon="5.88113">
        <ele>1881.343</ele>
        <time>2021-01-10T16:08:21Z</time>
      </trkpt>
      <trkpt lat="45.11053" lon="5.88113">
        <ele>1881.551</ele>
        <time>2021-01-10T16:08:23Z</time>
      </trkpt>
      <trkpt lat="45.11053" lon="5.88113">
        <ele>1881.489</ele>
        <time>2021-01-10T16:08:26Z</time>
      </trkpt>
      <trkpt lat="45.11053" lon="5.88113">
        <ele>1881.388</ele>
        <time>2021-01-10T16:08:29Z</time>
      </trkpt>
      <trkpt lat="45.11053" lon="5.88113">
        <ele>1881.547</ele>
        <time>2021-01-10T16:08:31Z</time>
      </trkpt>
      <trkpt lat="45.11053" lon="5.88113">
        <ele>1881.658</ele>
        <time>2021-01-10T16:08:34Z</time>
      </trkpt>
      <trkpt lat="45.11053" lon="5.88113">
        <ele>1881.594</ele>
        <time>2021-01-10T16:08:36Z</time>
      </trkpt>
      <trkpt lat="45.11053" lon="5.88113">
        <ele>1881.587</ele>
        <time>2021-01-10T16:08:39Z</time>
      </trkpt>
      <trkpt lat="45.11053" lon="5.88113">
        <ele>1881.455</ele>
        <time>2021-01-10T16:08:42Z</time>
      </trkpt>
      <trkpt lat="45.11053" lon="5.88113">
        <ele>1881.441</ele>
        <time>2021-01-10T16:08:45Z</time>
      </trkpt>
      <trkpt lat="45.11053" lon="5.88113">
        <ele>1881.428</ele>
        <time>2021-01-10T16:08:48Z</time>
      </trkpt>
      <trkpt lat="45.11053" lon="5.88113">
        <ele>1881.504</ele>
        <time>2021-01-10T16:08:50Z</time>
      </trkpt>
      <trkpt lat="45.11053" lon="5.88113">
        <ele>1881.668</ele>
        <time>2021-01-10T16:08:52Z</time>
      </trkpt>
      <trkpt lat="45.11054" lon="5.88113">
        <ele>1880.762</ele>
        <time>2021-01-10T16:08:55Z</time>
      </trkpt>
      <trkpt lat="45.11054" lon="5.88114">
        <ele>1879.979</ele>
        <time>2021-01-10T16:08:57Z</time>
      </trkpt>
      <trkpt lat="45.11054" lon="5.88114">
        <ele>1879.527</ele>
        <time>2021-01-10T16:09:00Z</time>
      </trkpt>
      <trkpt lat="45.11054" lon="5.88113">
        <ele>1879.6</ele>
        <time>2021-01-10T16:09:02Z</time>
      </trkpt>
      <trkpt lat="45.11054" lon="5.88113">
        <ele>1880.026</ele>
        <time>2021-01-10T16:09:04Z</time>
      </trkpt>
      <trkpt lat="45.11054" lon="5.88113">
        <ele>1880.322</ele>
        <time>2021-01-10T16:09:07Z</time>
      </trkpt>
      <trkpt lat="45.11054" lon="5.88113">
        <ele>1880.233</ele>
        <time>2021-01-10T16:09:09Z</time>
      </trkpt>
      <trkpt lat="45.11054" lon="5.88113">
        <ele>1880.26</ele>
        <time>2021-01-10T16:09:12Z</time>
      </trkpt>
      <trkpt lat="45.11054" lon="5.88113">
        <ele>1880.248</ele>
        <time>2021-01-10T16:09:15Z</time>
      </trkpt>
      <trkpt lat="45.11054" lon="5.88113">
        <ele>1880.234</ele>
        <time>2021-01-10T16:09:18Z</time>
      </trkpt>
      <trkpt lat="45.11054" lon="5.88113">
        <ele>1880.248</ele>
        <time>2021-01-10T16:09:21Z</time>
      </trkpt>
      <trkpt lat="45.11054" lon="5.88113">
        <ele>1880.286</ele>
        <time>2021-01-10T16:09:23Z</time>
      </trkpt>
      <trkpt lat="45.11054" lon="5.88113">
        <ele>1880.306</ele>
        <time>2021-01-10T16:09:26Z</time>
      </trkpt>
      <trkpt lat="45.11054" lon="5.88113">
        <ele>1880.301</ele>
        <time>2021-01-10T16:09:28Z</time>
      </trkpt>
      <trkpt lat="45.11054" lon="5.88113">
        <ele>1880.303</ele>
        <time>2021-01-10T16:09:30Z</time>
      </trkpt>
      <trkpt lat="45.11054" lon="5.88113">
        <ele>1880.298</ele>
        <time>2021-01-10T16:09:33Z</time>
      </trkpt>
      <trkpt lat="45.11054" lon="5.88113">
        <ele>1880.304</ele>
        <time>2021-01-10T16:09:36Z</time>
      </trkpt>
      <trkpt lat="45.11054" lon="5.88113">
        <ele>1880.304</ele>
        <time>2021-01-10T16:09:39Z</time>
      </trkpt>
      <trkpt lat="45.11054" lon="5.88113">
        <ele>1880.305</ele>
        <time>2021-01-10T16:09:41Z</time>
      </trkpt>
      <trkpt lat="45.11054" lon="5.88113">
        <ele>1880.312</ele>
        <time>2021-01-10T16:09:43Z</time>
      </trkpt>
      <trkpt lat="45.11054" lon="5.88113">
        <ele>1880.308</ele>
        <time>2021-01-10T16:09:46Z</time>
      </trkpt>
      <trkpt lat="45.11054" lon="5.88113">
        <ele>1880.3</ele>
        <time>2021-01-10T16:09:48Z</time>
      </trkpt>
      <trkpt lat="45.11054" lon="5.88113">
        <ele>1880.298</ele>
        <time>2021-01-10T16:09:51Z</time>
      </trkpt>
      <trkpt lat="45.11054" lon="5.88113">
        <ele>1880.286</ele>
        <time>2021-01-10T16:09:53Z</time>
      </trkpt>
      <trkpt lat="45.11054" lon="5.88113">
        <ele>1880.284</ele>
        <time>2021-01-10T16:09:55Z</time>
      </trkpt>
      <trkpt lat="45.11054" lon="5.88113">
        <ele>1880.284</ele>
        <time>2021-01-10T16:09:58Z</time>
      </trkpt>
      <trkpt lat="45.11054" lon="5.88113">
        <ele>1880.285</ele>
        <time>2021-01-10T16:10:01Z</time>
      </trkpt>
      <trkpt lat="45.11054" lon="5.88113">
        <ele>1880.291</ele>
        <time>2021-01-10T16:10:04Z</time>
      </trkpt>
      <trkpt lat="45.11054" lon="5.88113">
        <ele>1880.292</ele>
        <time>2021-01-10T16:10:06Z</time>
      </trkpt>
      <trkpt lat="45.11054" lon="5.88113">
        <ele>1880.296</ele>
        <time>2021-01-10T16:10:09Z</time>
      </trkpt>
      <trkpt lat="45.11054" lon="5.88113">
        <ele>1880.291</ele>
        <time>2021-01-10T16:10:11Z</time>
      </trkpt>
      <trkpt lat="45.11054" lon="5.88113">
        <ele>1880.294</ele>
        <time>2021-01-10T16:10:13Z</time>
      </trkpt>
      <trkpt lat="45.11054" lon="5.88113">
        <ele>1880.297</ele>
        <time>2021-01-10T16:10:16Z</time>
      </trkpt>
      <trkpt lat="45.11054" lon="5.88113">
        <ele>1880.295</ele>
        <time>2021-01-10T16:10:18Z</time>
      </trkpt>
      <trkpt lat="45.11054" lon="5.88113">
        <ele>1880.292</ele>
        <time>2021-01-10T16:10:20Z</time>
      </trkpt>
      <trkpt lat="45.11054" lon="5.88113">
        <ele>1880.297</ele>
        <time>2021-01-10T16:10:23Z</time>
      </trkpt>
      <trkpt lat="45.11054" lon="5.88113">
        <ele>1880.297</ele>
        <time>2021-01-10T16:10:25Z</time>
      </trkpt>
      <trkpt lat="45.11054" lon="5.88113">
        <ele>1880.295</ele>
        <time>2021-01-10T16:10:27Z</time>
      </trkpt>
      <trkpt lat="45.11054" lon="5.88113">
        <ele>1880.306</ele>
        <time>2021-01-10T16:10:30Z</time>
      </trkpt>
      <trkpt lat="45.11054" lon="5.88113">
        <ele>1880.299</ele>
        <time>2021-01-10T16:10:32Z</time>
      </trkpt>
      <trkpt lat="45.11054" lon="5.88113">
        <ele>1880.305</ele>
        <time>2021-01-10T16:10:34Z</time>
      </trkpt>
      <trkpt lat="45.11054" lon="5.88113">
        <ele>1880.305</ele>
        <time>2021-01-10T16:10:37Z</time>
      </trkpt>
      <trkpt lat="45.11054" lon="5.88113">
        <ele>1880.305</ele>
        <time>2021-01-10T16:10:39Z</time>
      </trkpt>
      <trkpt lat="45.11054" lon="5.88113">
        <ele>1880.31</ele>
        <time>2021-01-10T16:10:42Z</time>
      </trkpt>
      <trkpt lat="45.11054" lon="5.88113">
        <ele>1880.304</ele>
        <time>2021-01-10T16:10:44Z</time>
      </trkpt>
      <trkpt lat="45.11054" lon="5.88113">
        <ele>1880.302</ele>
        <time>2021-01-10T16:10:46Z</time>
      </trkpt>
      <trkpt lat="45.11054" lon="5.88113">
        <ele>1880.306</ele>
        <time>2021-01-10T16:10:49Z</time>
      </trkpt>
      <trkpt lat="45.11054" lon="5.88113">
        <ele>1880.312</ele>
        <time>2021-01-10T16:10:51Z</time>
      </trkpt>
      <trkpt lat="45.11054" lon="5.88113">
        <ele>1880.308</ele>
        <time>2021-01-10T16:10:54Z</time>
      </trkpt>
      <trkpt lat="45.11054" lon="5.88113">
        <ele>1880.314</ele>
        <time>2021-01-10T16:10:56Z</time>
      </trkpt>
      <trkpt lat="45.11054" lon="5.88113">
        <ele>1880.323</ele>
        <time>2021-01-10T16:10:58Z</time>
      </trkpt>
      <trkpt lat="45.11054" lon="5.88113">
        <ele>1880.319</ele>
        <time>2021-01-10T16:11:01Z</time>
      </trkpt>
      <trkpt lat="45.11054" lon="5.88113">
        <ele>1880.319</ele>
        <time>2021-01-10T16:11:04Z</time>
      </trkpt>
      <trkpt lat="45.11054" lon="5.88113">
        <ele>1880.319</ele>
        <time>2021-01-10T16:11:07Z</time>
      </trkpt>
      <trkpt lat="45.11054" lon="5.88113">
        <ele>1880.322</ele>
        <time>2021-01-10T16:11:09Z</time>
      </trkpt>
      <trkpt lat="45.11054" lon="5.88113">
        <ele>1880.315</ele>
        <time>2021-01-10T16:11:11Z</time>
      </trkpt>
      <trkpt lat="45.11054" lon="5.88113">
        <ele>1880.314</ele>
        <time>2021-01-10T16:11:14Z</time>
      </trkpt>
      <trkpt lat="45.11054" lon="5.88113">
        <ele>1880.307</ele>
        <time>2021-01-10T16:11:16Z</time>
      </trkpt>
      <trkpt lat="45.11054" lon="5.88113">
        <ele>1880.305</ele>
        <time>2021-01-10T16:11:19Z</time>
      </trkpt>
      <trkpt lat="45.11054" lon="5.88113">
        <ele>1880.301</ele>
        <time>2021-01-10T16:11:22Z</time>
      </trkpt>
      <trkpt lat="45.11054" lon="5.88113">
        <ele>1880.302</ele>
        <time>2021-01-10T16:11:25Z</time>
      </trkpt>
      <trkpt lat="45.11054" lon="5.88113">
        <ele>1880.294</ele>
        <time>2021-01-10T16:11:28Z</time>
      </trkpt>
      <trkpt lat="45.11054" lon="5.88113">
        <ele>1880.294</ele>
        <time>2021-01-10T16:11:31Z</time>
      </trkpt>
      <trkpt lat="45.11054" lon="5.88113">
        <ele>1880.296</ele>
        <time>2021-01-10T16:11:34Z</time>
      </trkpt>
      <trkpt lat="45.11054" lon="5.88113">
        <ele>1880.291</ele>
        <time>2021-01-10T16:11:36Z</time>
      </trkpt>
      <trkpt lat="45.11054" lon="5.88113">
        <ele>1880.296</ele>
        <time>2021-01-10T16:11:39Z</time>
      </trkpt>
      <trkpt lat="45.11054" lon="5.88113">
        <ele>1880.301</ele>
        <time>2021-01-10T16:11:42Z</time>
      </trkpt>
      <trkpt lat="45.11054" lon="5.88113">
        <ele>1880.298</ele>
        <time>2021-01-10T16:11:45Z</time>
      </trkpt>
      <trkpt lat="45.11054" lon="5.88113">
        <ele>1880.301</ele>
        <time>2021-01-10T16:11:48Z</time>
      </trkpt>
      <trkpt lat="45.11054" lon="5.88113">
        <ele>1880.295</ele>
        <time>2021-01-10T16:11:50Z</time>
      </trkpt>
      <trkpt lat="45.11054" lon="5.88113">
        <ele>1880.297</ele>
        <time>2021-01-10T16:11:53Z</time>
      </trkpt>
      <trkpt lat="45.11054" lon="5.88113">
        <ele>1880.299</ele>
        <time>2021-01-10T16:11:55Z</time>
      </trkpt>
      <trkpt lat="45.11054" lon="5.88113">
        <ele>1880.305</ele>
        <time>2021-01-10T16:11:58Z</time>
      </trkpt>
      <trkpt lat="45.11054" lon="5.88113">
        <ele>1880.302</ele>
        <time>2021-01-10T16:12:01Z</time>
      </trkpt>
      <trkpt lat="45.11054" lon="5.88113">
        <ele>1880.306</ele>
        <time>2021-01-10T16:12:04Z</time>
      </trkpt>
      <trkpt lat="45.11054" lon="5.88113">
        <ele>1880.303</ele>
        <time>2021-01-10T16:12:07Z</time>
      </trkpt>
      <trkpt lat="45.11054" lon="5.88113">
        <ele>1880.297</ele>
        <time>2021-01-10T16:12:10Z</time>
      </trkpt>
      <trkpt lat="45.11054" lon="5.88113">
        <ele>1880.3</ele>
        <time>2021-01-10T16:12:12Z</time>
      </trkpt>
      <trkpt lat="45.11054" lon="5.88113">
        <ele>1880.305</ele>
        <time>2021-01-10T16:12:14Z</time>
      </trkpt>
      <trkpt lat="45.11054" lon="5.88113">
        <ele>1880.306</ele>
        <time>2021-01-10T16:12:17Z</time>
      </trkpt>
      <trkpt lat="45.11054" lon="5.88113">
        <ele>1880.308</ele>
        <time>2021-01-10T16:12:19Z</time>
      </trkpt>
      <trkpt lat="45.11054" lon="5.88113">
        <ele>1880.304</ele>
        <time>2021-01-10T16:12:22Z</time>
      </trkpt>
      <trkpt lat="45.11054" lon="5.88113">
        <ele>1880.303</ele>
        <time>2021-01-10T16:12:25Z</time>
      </trkpt>
      <trkpt lat="45.11054" lon="5.88113">
        <ele>1880.315</ele>
        <time>2021-01-10T16:12:28Z</time>
      </trkpt>
      <trkpt lat="45.11054" lon="5.88113">
        <ele>1880.306</ele>
        <time>2021-01-10T16:12:31Z</time>
      </trkpt>
      <trkpt lat="45.11054" lon="5.88113">
        <ele>1880.306</ele>
        <time>2021-01-10T16:12:34Z</time>
      </trkpt>
      <trkpt lat="45.11054" lon="5.88113">
        <ele>1880.299</ele>
        <time>2021-01-10T16:12:36Z</time>
      </trkpt>
      <trkpt lat="45.11054" lon="5.88113">
        <ele>1880.293</ele>
        <time>2021-01-10T16:12:38Z</time>
      </trkpt>
      <trkpt lat="45.11054" lon="5.88113">
        <ele>1880.296</ele>
        <time>2021-01-10T16:12:40Z</time>
      </trkpt>
      <trkpt lat="45.11054" lon="5.88113">
        <ele>1880.301</ele>
        <time>2021-01-10T16:12:43Z</time>
      </trkpt>
      <trkpt lat="45.11054" lon="5.88113">
        <ele>1880.297</ele>
        <time>2021-01-10T16:12:45Z</time>
      </trkpt>
      <trkpt lat="45.11054" lon="5.88113">
        <ele>1880.297</ele>
        <time>2021-01-10T16:12:48Z</time>
      </trkpt>
      <trkpt lat="45.11054" lon="5.88113">
        <ele>1880.299</ele>
        <time>2021-01-10T16:12:50Z</time>
      </trkpt>
      <trkpt lat="45.11054" lon="5.88113">
        <ele>1880.298</ele>
        <time>2021-01-10T16:12:53Z</time>
      </trkpt>
      <trkpt lat="45.11054" lon="5.88113">
        <ele>1880.3</ele>
        <time>2021-01-10T16:12:55Z</time>
      </trkpt>
      <trkpt lat="45.11054" lon="5.88113">
        <ele>1880.301</ele>
        <time>2021-01-10T16:12:57Z</time>
      </trkpt>
      <trkpt lat="45.11054" lon="5.88113">
        <ele>1880.302</ele>
        <time>2021-01-10T16:13:00Z</time>
      </trkpt>
      <trkpt lat="45.11054" lon="5.88113">
        <ele>1880.301</ele>
        <time>2021-01-10T16:13:02Z</time>
      </trkpt>
      <trkpt lat="45.11054" lon="5.88113">
        <ele>1880.294</ele>
        <time>2021-01-10T16:13:05Z</time>
      </trkpt>
      <trkpt lat="45.11054" lon="5.88113">
        <ele>1880.294</ele>
        <time>2021-01-10T16:13:07Z</time>
      </trkpt>
      <trkpt lat="45.11054" lon="5.88113">
        <ele>1880.293</ele>
        <time>2021-01-10T16:13:10Z</time>
      </trkpt>
      <trkpt lat="45.11054" lon="5.88113">
        <ele>1880.289</ele>
        <time>2021-01-10T16:13:13Z</time>
      </trkpt>
      <trkpt lat="45.11054" lon="5.88113">
        <ele>1880.292</ele>
        <time>2021-01-10T16:13:15Z</time>
      </trkpt>
      <trkpt lat="45.11054" lon="5.88113">
        <ele>1880.289</ele>
        <time>2021-01-10T16:13:18Z</time>
      </trkpt>
      <trkpt lat="45.11054" lon="5.88113">
        <ele>1880.283</ele>
        <time>2021-01-10T16:13:20Z</time>
      </trkpt>
      <trkpt lat="45.11054" lon="5.88113">
        <ele>1880.289</ele>
        <time>2021-01-10T16:13:23Z</time>
      </trkpt>
      <trkpt lat="45.11054" lon="5.88113">
        <ele>1880.29</ele>
        <time>2021-01-10T16:13:25Z</time>
      </trkpt>
      <trkpt lat="45.11054" lon="5.88113">
        <ele>1880.291</ele>
        <time>2021-01-10T16:13:27Z</time>
      </trkpt>
      <trkpt lat="45.11054" lon="5.88113">
        <ele>1880.289</ele>
        <time>2021-01-10T16:13:30Z</time>
      </trkpt>
      <trkpt lat="45.11054" lon="5.88113">
        <ele>1880.29</ele>
        <time>2021-01-10T16:13:32Z</time>
      </trkpt>
      <trkpt lat="45.11054" lon="5.88113">
        <ele>1880.289</ele>
        <time>2021-01-10T16:13:34Z</time>
      </trkpt>
      <trkpt lat="45.11054" lon="5.88113">
        <ele>1880.293</ele>
        <time>2021-01-10T16:13:36Z</time>
      </trkpt>
      <trkpt lat="45.11054" lon="5.88113">
        <ele>1880.288</ele>
        <time>2021-01-10T16:13:39Z</time>
      </trkpt>
      <trkpt lat="45.11054" lon="5.88113">
        <ele>1880.284</ele>
        <time>2021-01-10T16:13:42Z</time>
      </trkpt>
      <trkpt lat="45.11054" lon="5.88113">
        <ele>1880.288</ele>
        <time>2021-01-10T16:13:45Z</time>
      </trkpt>
      <trkpt lat="45.11054" lon="5.88113">
        <ele>1880.281</ele>
        <time>2021-01-10T16:13:48Z</time>
      </trkpt>
      <trkpt lat="45.11054" lon="5.88113">
        <ele>1880.279</ele>
        <time>2021-01-10T16:13:50Z</time>
      </trkpt>
      <trkpt lat="45.11054" lon="5.88113">
        <ele>1880.28</ele>
        <time>2021-01-10T16:13:53Z</time>
      </trkpt>
      <trkpt lat="45.11054" lon="5.88113">
        <ele>1880.286</ele>
        <time>2021-01-10T16:13:56Z</time>
      </trkpt>
      <trkpt lat="45.11054" lon="5.88113">
        <ele>1880.283</ele>
        <time>2021-01-10T16:13:58Z</time>
      </trkpt>
      <trkpt lat="45.11054" lon="5.88113">
        <ele>1880.282</ele>
        <time>2021-01-10T16:14:01Z</time>
      </trkpt>
      <trkpt lat="45.11054" lon="5.88113">
        <ele>1880.279</ele>
        <time>2021-01-10T16:14:03Z</time>
      </trkpt>
      <trkpt lat="45.11054" lon="5.88113">
        <ele>1880.274</ele>
        <time>2021-01-10T16:14:06Z</time>
      </trkpt>
      <trkpt lat="45.11054" lon="5.88113">
        <ele>1880.272</ele>
        <time>2021-01-10T16:14:08Z</time>
      </trkpt>
      <trkpt lat="45.11054" lon="5.88113">
        <ele>1880.275</ele>
        <time>2021-01-10T16:14:12Z</time>
      </trkpt>
      <trkpt lat="45.11054" lon="5.88113">
        <ele>1880.277</ele>
        <time>2021-01-10T16:14:15Z</time>
      </trkpt>
      <trkpt lat="45.11054" lon="5.88113">
        <ele>1880.272</ele>
        <time>2021-01-10T16:14:17Z</time>
      </trkpt>
      <trkpt lat="45.11054" lon="5.88113">
        <ele>1880.273</ele>
        <time>2021-01-10T16:14:19Z</time>
      </trkpt>
      <trkpt lat="45.11054" lon="5.88113">
        <ele>1880.277</ele>
        <time>2021-01-10T16:14:22Z</time>
      </trkpt>
      <trkpt lat="45.11054" lon="5.88114">
        <ele>1881.007</ele>
        <time>2021-01-10T16:14:25Z</time>
      </trkpt>
      <trkpt lat="45.11055" lon="5.88116">
        <ele>1879.726</ele>
        <time>2021-01-10T16:14:27Z</time>
      </trkpt>
      <trkpt lat="45.11055" lon="5.88116">
        <ele>1881.893</ele>
        <time>2021-01-10T16:14:30Z</time>
      </trkpt>
      <trkpt lat="45.11056" lon="5.88116">
        <ele>1881.741</ele>
        <time>2021-01-10T16:14:32Z</time>
      </trkpt>
      <trkpt lat="45.11059" lon="5.88116">
        <ele>1881.955</ele>
        <time>2021-01-10T16:14:35Z</time>
      </trkpt>
      <trkpt lat="45.11059" lon="5.88116">
        <ele>1881.528</ele>
        <time>2021-01-10T16:14:37Z</time>
      </trkpt>
      <trkpt lat="45.11059" lon="5.88113">
        <ele>1881.469</ele>
        <time>2021-01-10T16:14:40Z</time>
      </trkpt>
      <trkpt lat="45.11056" lon="5.88114">
        <ele>1880.661</ele>
        <time>2021-01-10T16:14:43Z</time>
      </trkpt>
      <trkpt lat="45.11056" lon="5.88115">
        <ele>1881.394</ele>
        <time>2021-01-10T16:14:46Z</time>
      </trkpt>
      <trkpt lat="45.11054" lon="5.88114">
        <ele>1881.157</ele>
        <time>2021-01-10T16:14:49Z</time>
      </trkpt>
      <trkpt lat="45.11054" lon="5.88115">
        <ele>1880.777</ele>
        <time>2021-01-10T16:14:52Z</time>
      </trkpt>
      <trkpt lat="45.11054" lon="5.88115">
        <ele>1880.803</ele>
        <time>2021-01-10T16:14:54Z</time>
      </trkpt>
      <trkpt lat="45.11054" lon="5.88115">
        <ele>1881.557</ele>
        <time>2021-01-10T16:14:56Z</time>
      </trkpt>
      <trkpt lat="45.11053" lon="5.88116">
        <ele>1881.4</ele>
        <time>2021-01-10T16:14:59Z</time>
      </trkpt>
      <trkpt lat="45.11054" lon="5.88116">
        <ele>1880.151</ele>
        <time>2021-01-10T16:15:01Z</time>
      </trkpt>
      <trkpt lat="45.11054" lon="5.88116">
        <ele>1880.095</ele>
        <time>2021-01-10T16:15:04Z</time>
      </trkpt>
      <trkpt lat="45.11054" lon="5.88116">
        <ele>1879.634</ele>
        <time>2021-01-10T16:15:07Z</time>
      </trkpt>
      <trkpt lat="45.11056" lon="5.88118">
        <ele>1879.205</ele>
        <time>2021-01-10T16:15:09Z</time>
      </trkpt>
      <trkpt lat="45.11061" lon="5.88123">
        <ele>1879.451</ele>
        <time>2021-01-10T16:15:12Z</time>
      </trkpt>
      <trkpt lat="45.11064" lon="5.88127">
        <ele>1879.723</ele>
        <time>2021-01-10T16:15:14Z</time>
      </trkpt>
      <trkpt lat="45.11065" lon="5.88132">
        <ele>1878.831</ele>
        <time>2021-01-10T16:15:17Z</time>
      </trkpt>
      <trkpt lat="45.11066" lon="5.88132">
        <ele>1880.873</ele>
        <time>2021-01-10T16:15:19Z</time>
      </trkpt>
      <trkpt lat="45.11067" lon="5.88127">
        <ele>1879.222</ele>
        <time>2021-01-10T16:15:22Z</time>
      </trkpt>
      <trkpt lat="45.11068" lon="5.88123">
        <ele>1880.511</ele>
        <time>2021-01-10T16:15:25Z</time>
      </trkpt>
      <trkpt lat="45.1107" lon="5.8812">
        <ele>1879.809</ele>
        <time>2021-01-10T16:15:28Z</time>
      </trkpt>
      <trkpt lat="45.11072" lon="5.8812">
        <ele>1878.379</ele>
        <time>2021-01-10T16:15:31Z</time>
      </trkpt>
      <trkpt lat="45.11074" lon="5.8812">
        <ele>1876.755</ele>
        <time>2021-01-10T16:15:33Z</time>
      </trkpt>
      <trkpt lat="45.11075" lon="5.88121">
        <ele>1876.622</ele>
        <time>2021-01-10T16:15:36Z</time>
      </trkpt>
      <trkpt lat="45.11076" lon="5.88121">
        <ele>1876.884</ele>
        <time>2021-01-10T16:15:38Z</time>
      </trkpt>
      <trkpt lat="45.11078" lon="5.88119">
        <ele>1875.056</ele>
        <time>2021-01-10T16:15:41Z</time>
      </trkpt>
      <trkpt lat="45.11081" lon="5.88118">
        <ele>1872.852</ele>
        <time>2021-01-10T16:15:44Z</time>
      </trkpt>
      <trkpt lat="45.11084" lon="5.88118">
        <ele>1873.059</ele>
        <time>2021-01-10T16:15:47Z</time>
      </trkpt>
      <trkpt lat="45.11086" lon="5.88115">
        <ele>1872.227</ele>
        <time>2021-01-10T16:15:50Z</time>
      </trkpt>
      <trkpt lat="45.11088" lon="5.88114">
        <ele>1869.758</ele>
        <time>2021-01-10T16:15:53Z</time>
      </trkpt>
      <trkpt lat="45.11091" lon="5.88114">
        <ele>1869.449</ele>
        <time>2021-01-10T16:15:55Z</time>
      </trkpt>
      <trkpt lat="45.11094" lon="5.88112">
        <ele>1867.592</ele>
        <time>2021-01-10T16:15:58Z</time>
      </trkpt>
      <trkpt lat="45.11095" lon="5.8811">
        <ele>1866.184</ele>
        <time>2021-01-10T16:16:01Z</time>
      </trkpt>
      <trkpt lat="45.11096" lon="5.88108">
        <ele>1865.974</ele>
        <time>2021-01-10T16:16:03Z</time>
      </trkpt>
      <trkpt lat="45.11098" lon="5.88107">
        <ele>1865.806</ele>
        <time>2021-01-10T16:16:05Z</time>
      </trkpt>
      <trkpt lat="45.11099" lon="5.88106">
        <ele>1865.972</ele>
        <time>2021-01-10T16:16:07Z</time>
      </trkpt>
      <trkpt lat="45.111" lon="5.88103">
        <ele>1863.818</ele>
        <time>2021-01-10T16:16:10Z</time>
      </trkpt>
      <trkpt lat="45.111" lon="5.88101">
        <ele>1864.234</ele>
        <time>2021-01-10T16:16:12Z</time>
      </trkpt>
      <trkpt lat="45.11103" lon="5.88097">
        <ele>1862.027</ele>
        <time>2021-01-10T16:16:15Z</time>
      </trkpt>
      <trkpt lat="45.11105" lon="5.88098">
        <ele>1862.689</ele>
        <time>2021-01-10T16:16:17Z</time>
      </trkpt>
      <trkpt lat="45.11107" lon="5.88096">
        <ele>1860.784</ele>
        <time>2021-01-10T16:16:20Z</time>
      </trkpt>
      <trkpt lat="45.11109" lon="5.88093">
        <ele>1859.88</ele>
        <time>2021-01-10T16:16:23Z</time>
      </trkpt>
      <trkpt lat="45.11111" lon="5.88093">
        <ele>1860.198</ele>
        <time>2021-01-10T16:16:25Z</time>
      </trkpt>
      <trkpt lat="45.11114" lon="5.88093">
        <ele>1858.01</ele>
        <time>2021-01-10T16:16:28Z</time>
      </trkpt>
      <trkpt lat="45.11116" lon="5.88093">
        <ele>1858.725</ele>
        <time>2021-01-10T16:16:30Z</time>
      </trkpt>
      <trkpt lat="45.11119" lon="5.88094">
        <ele>1857.746</ele>
        <time>2021-01-10T16:16:32Z</time>
      </trkpt>
      <trkpt lat="45.11122" lon="5.88093">
        <ele>1856.751</ele>
        <time>2021-01-10T16:16:35Z</time>
      </trkpt>
      <trkpt lat="45.11126" lon="5.88091">
        <ele>1855.354</ele>
        <time>2021-01-10T16:16:38Z</time>
      </trkpt>
      <trkpt lat="45.11128" lon="5.88092">
        <ele>1856.133</ele>
        <time>2021-01-10T16:16:40Z</time>
      </trkpt>
      <trkpt lat="45.11129" lon="5.88093">
        <ele>1857.886</ele>
        <time>2021-01-10T16:16:43Z</time>
      </trkpt>
      <trkpt lat="45.11131" lon="5.88093">
        <ele>1857.613</ele>
        <time>2021-01-10T16:16:45Z</time>
      </trkpt>
      <trkpt lat="45.11133" lon="5.88094">
        <ele>1858.43</ele>
        <time>2021-01-10T16:16:47Z</time>
      </trkpt>
      <trkpt lat="45.11134" lon="5.88096">
        <ele>1859.015</ele>
        <time>2021-01-10T16:16:50Z</time>
      </trkpt>
      <trkpt lat="45.11135" lon="5.88095">
        <ele>1858.911</ele>
        <time>2021-01-10T16:16:52Z</time>
      </trkpt>
      <trkpt lat="45.11138" lon="5.88093">
        <ele>1860.218</ele>
        <time>2021-01-10T16:16:55Z</time>
      </trkpt>
      <trkpt lat="45.11139" lon="5.88092">
        <ele>1859.179</ele>
        <time>2021-01-10T16:16:57Z</time>
      </trkpt>
      <trkpt lat="45.1114" lon="5.88089">
        <ele>1860.043</ele>
        <time>2021-01-10T16:17:00Z</time>
      </trkpt>
      <trkpt lat="45.11141" lon="5.88086">
        <ele>1858.296</ele>
        <time>2021-01-10T16:17:03Z</time>
      </trkpt>
      <trkpt lat="45.11141" lon="5.88083">
        <ele>1857.521</ele>
        <time>2021-01-10T16:17:05Z</time>
      </trkpt>
      <trkpt lat="45.11141" lon="5.8808">
        <ele>1857.212</ele>
        <time>2021-01-10T16:17:08Z</time>
      </trkpt>
      <trkpt lat="45.11141" lon="5.88075">
        <ele>1855.423</ele>
        <time>2021-01-10T16:17:11Z</time>
      </trkpt>
      <trkpt lat="45.11142" lon="5.88072">
        <ele>1855.72</ele>
        <time>2021-01-10T16:17:13Z</time>
      </trkpt>
      <trkpt lat="45.11144" lon="5.8807">
        <ele>1857.831</ele>
        <time>2021-01-10T16:17:15Z</time>
      </trkpt>
      <trkpt lat="45.11148" lon="5.88068">
        <ele>1855.34</ele>
        <time>2021-01-10T16:17:18Z</time>
      </trkpt>
      <trkpt lat="45.1115" lon="5.88067">
        <ele>1854.736</ele>
        <time>2021-01-10T16:17:20Z</time>
      </trkpt>
      <trkpt lat="45.11153" lon="5.88065">
        <ele>1853.938</ele>
        <time>2021-01-10T16:17:22Z</time>
      </trkpt>
      <trkpt lat="45.11154" lon="5.88062">
        <ele>1854.541</ele>
        <time>2021-01-10T16:17:25Z</time>
      </trkpt>
      <trkpt lat="45.11152" lon="5.88057">
        <ele>1853.322</ele>
        <time>2021-01-10T16:17:28Z</time>
      </trkpt>
      <trkpt lat="45.11152" lon="5.88054">
        <ele>1851.173</ele>
        <time>2021-01-10T16:17:30Z</time>
      </trkpt>
      <trkpt lat="45.11153" lon="5.88052">
        <ele>1852.058</ele>
        <time>2021-01-10T16:17:32Z</time>
      </trkpt>
      <trkpt lat="45.11154" lon="5.88049">
        <ele>1851.598</ele>
        <time>2021-01-10T16:17:34Z</time>
      </trkpt>
      <trkpt lat="45.11156" lon="5.88042">
        <ele>1851.014</ele>
        <time>2021-01-10T16:17:37Z</time>
      </trkpt>
      <trkpt lat="45.1116" lon="5.88037">
        <ele>1851.115</ele>
        <time>2021-01-10T16:17:39Z</time>
      </trkpt>
      <trkpt lat="45.11164" lon="5.8803">
        <ele>1848.407</ele>
        <time>2021-01-10T16:17:42Z</time>
      </trkpt>
      <trkpt lat="45.11164" lon="5.88024">
        <ele>1851.277</ele>
        <time>2021-01-10T16:17:45Z</time>
      </trkpt>
      <trkpt lat="45.11163" lon="5.8802">
        <ele>1847.68</ele>
        <time>2021-01-10T16:17:47Z</time>
      </trkpt>
      <trkpt lat="45.11162" lon="5.88019">
        <ele>1847</ele>
        <time>2021-01-10T16:17:49Z</time>
      </trkpt>
      <trkpt lat="45.11159" lon="5.88014">
        <ele>1847.286</ele>
        <time>2021-01-10T16:17:52Z</time>
      </trkpt>
      <trkpt lat="45.11159" lon="5.88007">
        <ele>1847.166</ele>
        <time>2021-01-10T16:17:55Z</time>
      </trkpt>
      <trkpt lat="45.11158" lon="5.88004">
        <ele>1845.542</ele>
        <time>2021-01-10T16:17:57Z</time>
      </trkpt>
      <trkpt lat="45.11155" lon="5.88002">
        <ele>1843.11</ele>
        <time>2021-01-10T16:18:00Z</time>
      </trkpt>
      <trkpt lat="45.11154" lon="5.87998">
        <ele>1842.164</ele>
        <time>2021-01-10T16:18:03Z</time>
      </trkpt>
      <trkpt lat="45.11153" lon="5.87994">
        <ele>1841.171</ele>
        <time>2021-01-10T16:18:06Z</time>
      </trkpt>
      <trkpt lat="45.11153" lon="5.8799">
        <ele>1838.073</ele>
        <time>2021-01-10T16:18:08Z</time>
      </trkpt>
      <trkpt lat="45.11153" lon="5.87987">
        <ele>1838.068</ele>
        <time>2021-01-10T16:18:10Z</time>
      </trkpt>
      <trkpt lat="45.11152" lon="5.87984">
        <ele>1838.357</ele>
        <time>2021-01-10T16:18:12Z</time>
      </trkpt>
      <trkpt lat="45.11152" lon="5.87979">
        <ele>1841.804</ele>
        <time>2021-01-10T16:18:15Z</time>
      </trkpt>
      <trkpt lat="45.11153" lon="5.87974">
        <ele>1843.049</ele>
        <time>2021-01-10T16:18:17Z</time>
      </trkpt>
      <trkpt lat="45.11155" lon="5.87968">
        <ele>1843.181</ele>
        <time>2021-01-10T16:18:20Z</time>
      </trkpt>
      <trkpt lat="45.11155" lon="5.87964">
        <ele>1840.202</ele>
        <time>2021-01-10T16:18:22Z</time>
      </trkpt>
      <trkpt lat="45.11153" lon="5.87959">
        <ele>1840.378</ele>
        <time>2021-01-10T16:18:25Z</time>
      </trkpt>
      <trkpt lat="45.11152" lon="5.87955">
        <ele>1841.346</ele>
        <time>2021-01-10T16:18:27Z</time>
      </trkpt>
      <trkpt lat="45.11153" lon="5.8795">
        <ele>1840.854</ele>
        <time>2021-01-10T16:18:30Z</time>
      </trkpt>
      <trkpt lat="45.11155" lon="5.87943">
        <ele>1842.688</ele>
        <time>2021-01-10T16:18:33Z</time>
      </trkpt>
      <trkpt lat="45.11157" lon="5.87938">
        <ele>1841.489</ele>
        <time>2021-01-10T16:18:35Z</time>
      </trkpt>
      <trkpt lat="45.11157" lon="5.8793">
        <ele>1839.599</ele>
        <time>2021-01-10T16:18:38Z</time>
      </trkpt>
      <trkpt lat="45.11155" lon="5.87924">
        <ele>1836.87</ele>
        <time>2021-01-10T16:18:41Z</time>
      </trkpt>
      <trkpt lat="45.11154" lon="5.8792">
        <ele>1836.451</ele>
        <time>2021-01-10T16:18:43Z</time>
      </trkpt>
      <trkpt lat="45.11153" lon="5.87916">
        <ele>1837.397</ele>
        <time>2021-01-10T16:18:46Z</time>
      </trkpt>
      <trkpt lat="45.11153" lon="5.87913">
        <ele>1836.757</ele>
        <time>2021-01-10T16:18:48Z</time>
      </trkpt>
      <trkpt lat="45.11157" lon="5.87906">
        <ele>1836.531</ele>
        <time>2021-01-10T16:18:51Z</time>
      </trkpt>
      <trkpt lat="45.11157" lon="5.87904">
        <ele>1836.328</ele>
        <time>2021-01-10T16:18:53Z</time>
      </trkpt>
      <trkpt lat="45.11158" lon="5.87897">
        <ele>1835.534</ele>
        <time>2021-01-10T16:18:56Z</time>
      </trkpt>
      <trkpt lat="45.11157" lon="5.87892">
        <ele>1833.545</ele>
        <time>2021-01-10T16:18:59Z</time>
      </trkpt>
      <trkpt lat="45.11155" lon="5.87886">
        <ele>1834.812</ele>
        <time>2021-01-10T16:19:02Z</time>
      </trkpt>
      <trkpt lat="45.11155" lon="5.87883">
        <ele>1834.765</ele>
        <time>2021-01-10T16:19:04Z</time>
      </trkpt>
      <trkpt lat="45.11154" lon="5.87877">
        <ele>1832.458</ele>
        <time>2021-01-10T16:19:07Z</time>
      </trkpt>
      <trkpt lat="45.11153" lon="5.87874">
        <ele>1832.55</ele>
        <time>2021-01-10T16:19:09Z</time>
      </trkpt>
      <trkpt lat="45.11153" lon="5.87869">
        <ele>1833.006</ele>
        <time>2021-01-10T16:19:12Z</time>
      </trkpt>
      <trkpt lat="45.11155" lon="5.87867">
        <ele>1833.094</ele>
        <time>2021-01-10T16:19:14Z</time>
      </trkpt>
      <trkpt lat="45.11156" lon="5.87863">
        <ele>1834</ele>
        <time>2021-01-10T16:19:16Z</time>
      </trkpt>
      <trkpt lat="45.11155" lon="5.87859">
        <ele>1834.197</ele>
        <time>2021-01-10T16:19:18Z</time>
      </trkpt>
      <trkpt lat="45.11153" lon="5.87853">
        <ele>1833.997</ele>
        <time>2021-01-10T16:19:21Z</time>
      </trkpt>
      <trkpt lat="45.11151" lon="5.87851">
        <ele>1835.014</ele>
        <time>2021-01-10T16:19:23Z</time>
      </trkpt>
      <trkpt lat="45.11149" lon="5.87848">
        <ele>1832.676</ele>
        <time>2021-01-10T16:19:26Z</time>
      </trkpt>
      <trkpt lat="45.11149" lon="5.87844">
        <ele>1832.693</ele>
        <time>2021-01-10T16:19:28Z</time>
      </trkpt>
      <trkpt lat="45.11151" lon="5.87837">
        <ele>1831.991</ele>
        <time>2021-01-10T16:19:31Z</time>
      </trkpt>
      <trkpt lat="45.11154" lon="5.87832">
        <ele>1832.493</ele>
        <time>2021-01-10T16:19:34Z</time>
      </trkpt>
      <trkpt lat="45.11155" lon="5.87828">
        <ele>1831.837</ele>
        <time>2021-01-10T16:19:36Z</time>
      </trkpt>
      <trkpt lat="45.11156" lon="5.87823">
        <ele>1829.825</ele>
        <time>2021-01-10T16:19:39Z</time>
      </trkpt>
      <trkpt lat="45.11158" lon="5.87816">
        <ele>1829.254</ele>
        <time>2021-01-10T16:19:42Z</time>
      </trkpt>
      <trkpt lat="45.1116" lon="5.8781">
        <ele>1826.463</ele>
        <time>2021-01-10T16:19:45Z</time>
      </trkpt>
      <trkpt lat="45.11161" lon="5.87806">
        <ele>1826.427</ele>
        <time>2021-01-10T16:19:47Z</time>
      </trkpt>
      <trkpt lat="45.11162" lon="5.87803">
        <ele>1828.141</ele>
        <time>2021-01-10T16:19:50Z</time>
      </trkpt>
      <trkpt lat="45.11164" lon="5.878">
        <ele>1830.875</ele>
        <time>2021-01-10T16:19:52Z</time>
      </trkpt>
      <trkpt lat="45.11166" lon="5.87797">
        <ele>1832.383</ele>
        <time>2021-01-10T16:19:54Z</time>
      </trkpt>
      <trkpt lat="45.11167" lon="5.87795">
        <ele>1833.125</ele>
        <time>2021-01-10T16:19:56Z</time>
      </trkpt>
      <trkpt lat="45.11169" lon="5.87793">
        <ele>1831.851</ele>
        <time>2021-01-10T16:19:58Z</time>
      </trkpt>
      <trkpt lat="45.11172" lon="5.87789">
        <ele>1829.557</ele>
        <time>2021-01-10T16:20:01Z</time>
      </trkpt>
      <trkpt lat="45.11174" lon="5.87786">
        <ele>1829.487</ele>
        <time>2021-01-10T16:20:04Z</time>
      </trkpt>
    </trkseg>
  </trk>
</gpx>